<?xml version='1.0' encoding='UTF-8'?><gpx version="1.1" creator="JPX - https://github.com/jenetics/jpx" xmlns="http://www.topografix.com/GPX/1/1"><trk><trkseg><trkpt lat="45.9729818" lon="12.678431"><ele>31.0</ele><time>2026-04-12T16:38:42.272Z</time></trkpt><trkpt lat="45.9728295" lon="12.6784885"><ele>31.0</ele><time>2026-04-12T16:38:43.282Z</time></trkpt><trkpt lat="45.9727638" lon="12.6785953"><ele>31.0</ele><time>2026-04-12T16:38:44.277Z</time></trkpt><trkpt lat="45.9728916" lon="12.6785354"><ele>31.0</ele><time>2026-04-12T16:38:48.326Z</time></trkpt><trkpt lat="45.9729562" lon="12.6784198"><ele>31.0</ele><time>2026-04-12T16:39:08.325Z</time></trkpt><trkpt lat="45.9729998" lon="12.6783447"><ele>31.0</ele><time>2026-04-12T16:39:09.326Z</time></trkpt><trkpt lat="45.9730528" lon="12.6782744"><ele>31.0</ele><time>2026-04-12T16:39:10.325Z</time></trkpt><trkpt lat="45.9731364" lon="12.6781608"><ele>31.0</ele><time>2026-04-12T16:39:12.327Z</time></trkpt><trkpt lat="45.9732213" lon="12.6780599"><ele>31.0</ele><time>2026-04-12T16:39:14.327Z</time></trkpt><trkpt lat="45.9732976" lon="12.6779589"><ele>31.333333333333336</ele><time>2026-04-12T16:39:16.326Z</time></trkpt><trkpt lat="45.9733977" lon="12.6778624"><ele>31.666666666666668</ele><time>2026-04-12T16:39:18.325Z</time></trkpt><trkpt lat="45.9734624" lon="12.6778091"><ele>32.0</ele><time>2026-04-12T16:39:20.327Z</time></trkpt><trkpt lat="45.9735141" lon="12.6777565"><ele>32.333333333333336</ele><time>2026-04-12T16:39:22.325Z</time></trkpt><trkpt lat="45.9735972" lon="12.6776567"><ele>32.666666666666664</ele><time>2026-04-12T16:39:24.326Z</time></trkpt><trkpt lat="45.9736451" lon="12.6775912"><ele>33.0</ele><time>2026-04-12T16:39:25.326Z</time></trkpt><trkpt lat="45.9736967" lon="12.6775204"><ele>33.166666666666664</ele><time>2026-04-12T16:39:26.326Z</time></trkpt><trkpt lat="45.973747" lon="12.6774631"><ele>33.333333333333336</ele><time>2026-04-12T16:39:27.326Z</time></trkpt><trkpt lat="45.9738336" lon="12.6773595"><ele>33.5</ele><time>2026-04-12T16:39:29.326Z</time></trkpt><trkpt lat="45.9739087" lon="12.6772713"><ele>33.66666666666667</ele><time>2026-04-12T16:39:31.327Z</time></trkpt><trkpt lat="45.9739757" lon="12.6772192"><ele>33.833333333333336</ele><time>2026-04-12T16:39:33.325Z</time></trkpt><trkpt lat="45.9740621" lon="12.6772376"><ele>34.0</ele><time>2026-04-12T16:39:35.326Z</time></trkpt><trkpt lat="45.974161" lon="12.6771803"><ele>34.14285714285714</ele><time>2026-04-12T16:39:37.326Z</time></trkpt><trkpt lat="45.9742121" lon="12.6771225"><ele>34.285714285714285</ele><time>2026-04-12T16:39:38.327Z</time></trkpt><trkpt lat="45.9742724" lon="12.6770687"><ele>34.42857142857143</ele><time>2026-04-12T16:39:39.327Z</time></trkpt><trkpt lat="45.9743311" lon="12.6770136"><ele>34.57142857142857</ele><time>2026-04-12T16:39:40.326Z</time></trkpt><trkpt lat="45.974391" lon="12.6769556"><ele>34.714285714285715</ele><time>2026-04-12T16:39:41.326Z</time></trkpt><trkpt lat="45.9744591" lon="12.6768876"><ele>34.857142857142854</ele><time>2026-04-12T16:39:42.326Z</time></trkpt><trkpt lat="45.9745295" lon="12.6768116"><ele>35.0</ele><time>2026-04-12T16:39:43.325Z</time></trkpt><trkpt lat="45.9746064" lon="12.6767315"><ele>35.0</ele><time>2026-04-12T16:39:44.326Z</time></trkpt><trkpt lat="45.9746772" lon="12.6766548"><ele>35.0</ele><time>2026-04-12T16:39:45.325Z</time></trkpt><trkpt lat="45.9747435" lon="12.6765794"><ele>35.0</ele><time>2026-04-12T16:39:46.326Z</time></trkpt><trkpt lat="45.9748057" lon="12.6765027"><ele>35.0</ele><time>2026-04-12T16:39:47.325Z</time></trkpt><trkpt lat="45.9748634" lon="12.6764371"><ele>35.0</ele><time>2026-04-12T16:39:48.326Z</time></trkpt><trkpt lat="45.9749188" lon="12.676378"><ele>35.0</ele><time>2026-04-12T16:39:49.325Z</time></trkpt><trkpt lat="45.9749705" lon="12.6763199"><ele>35.0</ele><time>2026-04-12T16:39:50.327Z</time></trkpt><trkpt lat="45.9750192" lon="12.6762609"><ele>35.0</ele><time>2026-04-12T16:39:51.326Z</time></trkpt><trkpt lat="45.9750868" lon="12.6761828"><ele>35.0</ele><time>2026-04-12T16:39:53.325Z</time></trkpt><trkpt lat="45.9751578" lon="12.6761981"><ele>35.0</ele><time>2026-04-12T16:39:56.325Z</time></trkpt><trkpt lat="45.9752215" lon="12.6762839"><ele>35.0</ele><time>2026-04-12T16:39:58.326Z</time></trkpt><trkpt lat="45.9752581" lon="12.6763698"><ele>35.0</ele><time>2026-04-12T16:39:59.325Z</time></trkpt><trkpt lat="45.9753019" lon="12.6764585"><ele>35.0</ele><time>2026-04-12T16:40:00.325Z</time></trkpt><trkpt lat="45.9753464" lon="12.6765534"><ele>35.0</ele><time>2026-04-12T16:40:01.325Z</time></trkpt><trkpt lat="45.9753924" lon="12.6766616"><ele>35.0</ele><time>2026-04-12T16:40:02.325Z</time></trkpt><trkpt lat="45.9754383" lon="12.6767762"><ele>35.0</ele><time>2026-04-12T16:40:03.325Z</time></trkpt><trkpt lat="45.9754861" lon="12.6768901"><ele>35.0</ele><time>2026-04-12T16:40:04.327Z</time></trkpt><trkpt lat="45.9755377" lon="12.677016"><ele>35.2</ele><time>2026-04-12T16:40:05.326Z</time></trkpt><trkpt lat="45.97559" lon="12.6771434"><ele>35.4</ele><time>2026-04-12T16:40:06.325Z</time></trkpt><trkpt lat="45.9756429" lon="12.6772747"><ele>35.6</ele><time>2026-04-12T16:40:07.326Z</time></trkpt><trkpt lat="45.9756946" lon="12.6774031"><ele>35.8</ele><time>2026-04-12T16:40:08.326Z</time></trkpt><trkpt lat="45.9757511" lon="12.6775384"><ele>36.0</ele><time>2026-04-12T16:40:09.325Z</time></trkpt><trkpt lat="45.9758091" lon="12.6776698"><ele>36.0</ele><time>2026-04-12T16:40:10.325Z</time></trkpt><trkpt lat="45.9758629" lon="12.6778064"><ele>36.0</ele><time>2026-04-12T16:40:11.326Z</time></trkpt><trkpt lat="45.9759156" lon="12.6779442"><ele>36.0</ele><time>2026-04-12T16:40:12.326Z</time></trkpt><trkpt lat="45.9759732" lon="12.6780848"><ele>36.0</ele><time>2026-04-12T16:40:13.326Z</time></trkpt><trkpt lat="45.9760327" lon="12.6782309"><ele>36.0</ele><time>2026-04-12T16:40:14.326Z</time></trkpt><trkpt lat="45.9760941" lon="12.6783776"><ele>36.0</ele><time>2026-04-12T16:40:15.327Z</time></trkpt><trkpt lat="45.9761576" lon="12.6785221"><ele>36.0</ele><time>2026-04-12T16:40:16.325Z</time></trkpt><trkpt lat="45.9762188" lon="12.6786683"><ele>36.0</ele><time>2026-04-12T16:40:17.326Z</time></trkpt><trkpt lat="45.976271" lon="12.6788213"><ele>35.75</ele><time>2026-04-12T16:40:18.325Z</time></trkpt><trkpt lat="45.9763103" lon="12.6789818"><ele>35.5</ele><time>2026-04-12T16:40:19.326Z</time></trkpt><trkpt lat="45.9763385" lon="12.6791504"><ele>35.25</ele><time>2026-04-12T16:40:20.325Z</time></trkpt><trkpt lat="45.9763579" lon="12.6793193"><ele>35.0</ele><time>2026-04-12T16:40:21.326Z</time></trkpt><trkpt lat="45.9763807" lon="12.6794844"><ele>35.4</ele><time>2026-04-12T16:40:22.325Z</time></trkpt><trkpt lat="45.9764083" lon="12.679653"><ele>35.8</ele><time>2026-04-12T16:40:23.326Z</time></trkpt><trkpt lat="45.9764322" lon="12.6798051"><ele>36.2</ele><time>2026-04-12T16:40:24.326Z</time></trkpt><trkpt lat="45.9764675" lon="12.6799439"><ele>36.6</ele><time>2026-04-12T16:40:25.327Z</time></trkpt><trkpt lat="45.9765234" lon="12.6800565"><ele>37.0</ele><time>2026-04-12T16:40:26.326Z</time></trkpt><trkpt lat="45.9765848" lon="12.6801527"><ele>37.0</ele><time>2026-04-12T16:40:27.326Z</time></trkpt><trkpt lat="45.9766335" lon="12.6802343"><ele>37.0</ele><time>2026-04-12T16:40:28.326Z</time></trkpt><trkpt lat="45.9766794" lon="12.6803029"><ele>37.0</ele><time>2026-04-12T16:40:29.326Z</time></trkpt><trkpt lat="45.9767465" lon="12.6804094"><ele>37.0</ele><time>2026-04-12T16:40:31.326Z</time></trkpt><trkpt lat="45.9768015" lon="12.6804797"><ele>37.0</ele><time>2026-04-12T16:40:52.326Z</time></trkpt><trkpt lat="45.9768568" lon="12.6805522"><ele>37.0</ele><time>2026-04-12T16:40:54.326Z</time></trkpt><trkpt lat="45.9769183" lon="12.6806586"><ele>37.0</ele><time>2026-04-12T16:40:56.326Z</time></trkpt><trkpt lat="45.9769569" lon="12.6807306"><ele>37.0</ele><time>2026-04-12T16:40:57.326Z</time></trkpt><trkpt lat="45.9769991" lon="12.6808188"><ele>37.0</ele><time>2026-04-12T16:40:58.325Z</time></trkpt><trkpt lat="45.9770414" lon="12.6809022"><ele>37.0</ele><time>2026-04-12T16:40:59.327Z</time></trkpt><trkpt lat="45.9770908" lon="12.6809968"><ele>37.0</ele><time>2026-04-12T16:41:00.325Z</time></trkpt><trkpt lat="45.9771427" lon="12.6811022"><ele>37.0</ele><time>2026-04-12T16:41:01.326Z</time></trkpt><trkpt lat="45.9771955" lon="12.6812168"><ele>37.2</ele><time>2026-04-12T16:41:02.326Z</time></trkpt><trkpt lat="45.9772506" lon="12.6813227"><ele>37.400000000000006</ele><time>2026-04-12T16:41:03.326Z</time></trkpt><trkpt lat="45.9773061" lon="12.6814431"><ele>37.599999999999994</ele><time>2026-04-12T16:41:04.326Z</time></trkpt><trkpt lat="45.9773663" lon="12.6815741"><ele>37.8</ele><time>2026-04-12T16:41:05.326Z</time></trkpt><trkpt lat="45.9774269" lon="12.6817156"><ele>38.0</ele><time>2026-04-12T16:41:06.325Z</time></trkpt><trkpt lat="45.9774865" lon="12.6818641"><ele>38.5</ele><time>2026-04-12T16:41:07.326Z</time></trkpt><trkpt lat="45.9775422" lon="12.6819971"><ele>39.0</ele><time>2026-04-12T16:41:08.325Z</time></trkpt><trkpt lat="45.977602" lon="12.6821319"><ele>39.5</ele><time>2026-04-12T16:41:09.326Z</time></trkpt><trkpt lat="45.9776676" lon="12.6822732"><ele>40.0</ele><time>2026-04-12T16:41:10.327Z</time></trkpt><trkpt lat="45.9777333" lon="12.682413"><ele>40.0</ele><time>2026-04-12T16:41:11.326Z</time></trkpt><trkpt lat="45.9777921" lon="12.6825519"><ele>40.0</ele><time>2026-04-12T16:41:12.327Z</time></trkpt><trkpt lat="45.9778559" lon="12.6827019"><ele>40.0</ele><time>2026-04-12T16:41:13.325Z</time></trkpt><trkpt lat="45.9779236" lon="12.6828571"><ele>40.0</ele><time>2026-04-12T16:41:14.325Z</time></trkpt><trkpt lat="45.977991" lon="12.6830219"><ele>39.75</ele><time>2026-04-12T16:41:15.325Z</time></trkpt><trkpt lat="45.9780615" lon="12.6831913"><ele>39.5</ele><time>2026-04-12T16:41:16.326Z</time></trkpt><trkpt lat="45.9781311" lon="12.683363"><ele>39.25</ele><time>2026-04-12T16:41:17.325Z</time></trkpt><trkpt lat="45.9781997" lon="12.6835343"><ele>39.0</ele><time>2026-04-12T16:41:18.326Z</time></trkpt><trkpt lat="45.9782711" lon="12.6837016"><ele>39.0</ele><time>2026-04-12T16:41:19.327Z</time></trkpt><trkpt lat="45.9783434" lon="12.6838706"><ele>39.0</ele><time>2026-04-12T16:41:20.326Z</time></trkpt><trkpt lat="45.9784186" lon="12.6840406"><ele>39.0</ele><time>2026-04-12T16:41:21.326Z</time></trkpt><trkpt lat="45.9784893" lon="12.6842116"><ele>39.0</ele><time>2026-04-12T16:41:22.326Z</time></trkpt><trkpt lat="45.9785628" lon="12.6843826"><ele>39.25</ele><time>2026-04-12T16:41:23.326Z</time></trkpt><trkpt lat="45.9786401" lon="12.6845536"><ele>39.5</ele><time>2026-04-12T16:41:24.325Z</time></trkpt><trkpt lat="45.9787205" lon="12.6847192"><ele>39.75</ele><time>2026-04-12T16:41:25.326Z</time></trkpt><trkpt lat="45.9788026" lon="12.684884"><ele>40.0</ele><time>2026-04-12T16:41:26.327Z</time></trkpt><trkpt lat="45.9788828" lon="12.6850345"><ele>40.0</ele><time>2026-04-12T16:41:27.326Z</time></trkpt><trkpt lat="45.9789637" lon="12.6851882"><ele>40.0</ele><time>2026-04-12T16:41:28.327Z</time></trkpt><trkpt lat="45.9790428" lon="12.6853405"><ele>40.0</ele><time>2026-04-12T16:41:29.325Z</time></trkpt><trkpt lat="45.9791236" lon="12.6854963"><ele>40.0</ele><time>2026-04-12T16:41:30.326Z</time></trkpt><trkpt lat="45.9792055" lon="12.6856539"><ele>39.75</ele><time>2026-04-12T16:41:31.326Z</time></trkpt><trkpt lat="45.979288" lon="12.6858136"><ele>39.5</ele><time>2026-04-12T16:41:32.326Z</time></trkpt><trkpt lat="45.9793708" lon="12.6859753"><ele>39.25</ele><time>2026-04-12T16:41:33.326Z</time></trkpt><trkpt lat="45.9794597" lon="12.6861345"><ele>39.0</ele><time>2026-04-12T16:41:34.325Z</time></trkpt><trkpt lat="45.9795494" lon="12.6862916"><ele>39.0</ele><time>2026-04-12T16:41:35.325Z</time></trkpt><trkpt lat="45.9796376" lon="12.686441"><ele>39.0</ele><time>2026-04-12T16:41:36.325Z</time></trkpt><trkpt lat="45.9797181" lon="12.6865744"><ele>39.0</ele><time>2026-04-12T16:41:37.326Z</time></trkpt><trkpt lat="45.9797946" lon="12.6866979"><ele>39.0</ele><time>2026-04-12T16:41:38.325Z</time></trkpt><trkpt lat="45.9798648" lon="12.6868127"><ele>39.0</ele><time>2026-04-12T16:41:39.325Z</time></trkpt><trkpt lat="45.9799205" lon="12.686903"><ele>39.0</ele><time>2026-04-12T16:41:40.325Z</time></trkpt><trkpt lat="45.9799741" lon="12.6869827"><ele>39.0</ele><time>2026-04-12T16:41:41.325Z</time></trkpt><trkpt lat="45.9800268" lon="12.6870628"><ele>39.0</ele><time>2026-04-12T16:41:42.325Z</time></trkpt><trkpt lat="45.9800829" lon="12.6871603"><ele>39.0</ele><time>2026-04-12T16:41:43.325Z</time></trkpt><trkpt lat="45.9801445" lon="12.6872768"><ele>39.0</ele><time>2026-04-12T16:41:44.325Z</time></trkpt><trkpt lat="45.980214" lon="12.687399"><ele>39.0</ele><time>2026-04-12T16:41:45.325Z</time></trkpt><trkpt lat="45.9802951" lon="12.6875233"><ele>39.0</ele><time>2026-04-12T16:41:46.325Z</time></trkpt><trkpt lat="45.9803832" lon="12.6876498"><ele>39.0</ele><time>2026-04-12T16:41:47.325Z</time></trkpt><trkpt lat="45.9804818" lon="12.6877718"><ele>39.0</ele><time>2026-04-12T16:41:48.325Z</time></trkpt><trkpt lat="45.9805847" lon="12.6878933"><ele>39.25</ele><time>2026-04-12T16:41:49.326Z</time></trkpt><trkpt lat="45.9806968" lon="12.6880021"><ele>39.5</ele><time>2026-04-12T16:41:50.326Z</time></trkpt><trkpt lat="45.980804" lon="12.6880926"><ele>39.75</ele><time>2026-04-12T16:41:51.326Z</time></trkpt><trkpt lat="45.9809201" lon="12.6881678"><ele>40.0</ele><time>2026-04-12T16:41:52.326Z</time></trkpt><trkpt lat="45.981038" lon="12.6882367"><ele>40.0</ele><time>2026-04-12T16:41:53.326Z</time></trkpt><trkpt lat="45.9811553" lon="12.6883062"><ele>40.0</ele><time>2026-04-12T16:41:54.326Z</time></trkpt><trkpt lat="45.9812707" lon="12.6883817"><ele>40.0</ele><time>2026-04-12T16:41:55.326Z</time></trkpt><trkpt lat="45.9813861" lon="12.6884668"><ele>40.0</ele><time>2026-04-12T16:41:56.326Z</time></trkpt><trkpt lat="45.9814986" lon="12.6885548"><ele>40.25</ele><time>2026-04-12T16:41:57.326Z</time></trkpt><trkpt lat="45.9816047" lon="12.6886644"><ele>40.5</ele><time>2026-04-12T16:41:58.326Z</time></trkpt><trkpt lat="45.9816988" lon="12.6887946"><ele>40.75</ele><time>2026-04-12T16:41:59.326Z</time></trkpt><trkpt lat="45.981779" lon="12.6889436"><ele>41.0</ele><time>2026-04-12T16:42:00.326Z</time></trkpt><trkpt lat="45.9818488" lon="12.6891063"><ele>41.25</ele><time>2026-04-12T16:42:01.326Z</time></trkpt><trkpt lat="45.9819018" lon="12.6892895"><ele>41.5</ele><time>2026-04-12T16:42:02.326Z</time></trkpt><trkpt lat="45.981941" lon="12.6894839"><ele>41.75</ele><time>2026-04-12T16:42:03.325Z</time></trkpt><trkpt lat="45.9819759" lon="12.6896758"><ele>42.0</ele><time>2026-04-12T16:42:04.326Z</time></trkpt><trkpt lat="45.9820214" lon="12.6898598"><ele>42.0</ele><time>2026-04-12T16:42:05.326Z</time></trkpt><trkpt lat="45.9820795" lon="12.6900406"><ele>42.0</ele><time>2026-04-12T16:42:06.325Z</time></trkpt><trkpt lat="45.9821478" lon="12.6902105"><ele>42.0</ele><time>2026-04-12T16:42:07.326Z</time></trkpt><trkpt lat="45.9822297" lon="12.6903644"><ele>42.0</ele><time>2026-04-12T16:42:08.325Z</time></trkpt><trkpt lat="45.9823221" lon="12.6905057"><ele>42.0</ele><time>2026-04-12T16:42:09.326Z</time></trkpt><trkpt lat="45.9824327" lon="12.6906339"><ele>42.0</ele><time>2026-04-12T16:42:10.326Z</time></trkpt><trkpt lat="45.9825466" lon="12.6907547"><ele>42.0</ele><time>2026-04-12T16:42:11.325Z</time></trkpt><trkpt lat="45.9826619" lon="12.6908733"><ele>42.0</ele><time>2026-04-12T16:42:12.325Z</time></trkpt><trkpt lat="45.9827636" lon="12.6909989"><ele>42.25</ele><time>2026-04-12T16:42:13.325Z</time></trkpt><trkpt lat="45.9828559" lon="12.6911427"><ele>42.5</ele><time>2026-04-12T16:42:14.325Z</time></trkpt><trkpt lat="45.9829376" lon="12.6913026"><ele>42.75</ele><time>2026-04-12T16:42:15.325Z</time></trkpt><trkpt lat="45.9830181" lon="12.6914661"><ele>43.0</ele><time>2026-04-12T16:42:16.325Z</time></trkpt><trkpt lat="45.9831023" lon="12.69163"><ele>43.0</ele><time>2026-04-12T16:42:17.326Z</time></trkpt><trkpt lat="45.9831825" lon="12.6917865"><ele>43.0</ele><time>2026-04-12T16:42:18.326Z</time></trkpt><trkpt lat="45.9832508" lon="12.6919339"><ele>43.0</ele><time>2026-04-12T16:42:19.326Z</time></trkpt><trkpt lat="45.9833096" lon="12.6920691"><ele>43.0</ele><time>2026-04-12T16:42:20.326Z</time></trkpt><trkpt lat="45.9833613" lon="12.6921872"><ele>43.0</ele><time>2026-04-12T16:42:21.326Z</time></trkpt><trkpt lat="45.9834046" lon="12.6922858"><ele>43.0</ele><time>2026-04-12T16:42:22.326Z</time></trkpt><trkpt lat="45.9834594" lon="12.6924223"><ele>43.0</ele><time>2026-04-12T16:42:24.326Z</time></trkpt><trkpt lat="45.983542" lon="12.6925216"><ele>43.0</ele><time>2026-04-12T16:42:26.326Z</time></trkpt><trkpt lat="45.9836049" lon="12.6925499"><ele>43.0</ele><time>2026-04-12T16:42:27.326Z</time></trkpt><trkpt lat="45.9836736" lon="12.6925863"><ele>43.0</ele><time>2026-04-12T16:42:28.326Z</time></trkpt><trkpt lat="45.9837454" lon="12.6926567"><ele>42.5</ele><time>2026-04-12T16:42:29.326Z</time></trkpt><trkpt lat="45.9838135" lon="12.6927626"><ele>42.0</ele><time>2026-04-12T16:42:30.326Z</time></trkpt><trkpt lat="45.9838939" lon="12.6928849"><ele>41.5</ele><time>2026-04-12T16:42:31.325Z</time></trkpt><trkpt lat="45.9839815" lon="12.6930205"><ele>41.0</ele><time>2026-04-12T16:42:32.326Z</time></trkpt><trkpt lat="45.9840721" lon="12.6931623"><ele>41.0</ele><time>2026-04-12T16:42:33.325Z</time></trkpt><trkpt lat="45.9841569" lon="12.6933009"><ele>41.0</ele><time>2026-04-12T16:42:34.325Z</time></trkpt><trkpt lat="45.9842461" lon="12.6934455"><ele>41.0</ele><time>2026-04-12T16:42:35.326Z</time></trkpt><trkpt lat="45.9843392" lon="12.6935933"><ele>41.0</ele><time>2026-04-12T16:42:36.326Z</time></trkpt><trkpt lat="45.9844346" lon="12.6937446"><ele>40.75</ele><time>2026-04-12T16:42:37.325Z</time></trkpt><trkpt lat="45.9845312" lon="12.6938977"><ele>40.5</ele><time>2026-04-12T16:42:38.325Z</time></trkpt><trkpt lat="45.9846195" lon="12.6940434"><ele>40.25</ele><time>2026-04-12T16:42:39.325Z</time></trkpt><trkpt lat="45.9847053" lon="12.6941775"><ele>40.0</ele><time>2026-04-12T16:42:40.326Z</time></trkpt><trkpt lat="45.9847892" lon="12.6943045"><ele>40.25</ele><time>2026-04-12T16:42:41.325Z</time></trkpt><trkpt lat="45.984874" lon="12.6944431"><ele>40.5</ele><time>2026-04-12T16:42:42.325Z</time></trkpt><trkpt lat="45.9849519" lon="12.694574"><ele>40.75</ele><time>2026-04-12T16:42:43.326Z</time></trkpt><trkpt lat="45.9850396" lon="12.6946872"><ele>41.0</ele><time>2026-04-12T16:42:44.326Z</time></trkpt><trkpt lat="45.9851349" lon="12.6947736"><ele>41.25</ele><time>2026-04-12T16:42:45.325Z</time></trkpt><trkpt lat="45.9852554" lon="12.6948209"><ele>41.5</ele><time>2026-04-12T16:42:46.325Z</time></trkpt><trkpt lat="45.9853786" lon="12.694836"><ele>41.75</ele><time>2026-04-12T16:42:47.325Z</time></trkpt><trkpt lat="45.9854957" lon="12.6948239"><ele>42.0</ele><time>2026-04-12T16:42:48.326Z</time></trkpt><trkpt lat="45.9856023" lon="12.6948089"><ele>42.0</ele><time>2026-04-12T16:42:49.326Z</time></trkpt><trkpt lat="45.9856949" lon="12.6948052"><ele>42.0</ele><time>2026-04-12T16:42:50.325Z</time></trkpt><trkpt lat="45.9857732" lon="12.694801"><ele>42.0</ele><time>2026-04-12T16:42:51.325Z</time></trkpt><trkpt lat="45.9858404" lon="12.6948445"><ele>42.0</ele><time>2026-04-12T16:42:52.325Z</time></trkpt><trkpt lat="45.9858968" lon="12.6949256"><ele>42.0</ele><time>2026-04-12T16:42:53.325Z</time></trkpt><trkpt lat="45.9859487" lon="12.6950305"><ele>42.0</ele><time>2026-04-12T16:42:54.326Z</time></trkpt><trkpt lat="45.9860104" lon="12.6951434"><ele>42.2</ele><time>2026-04-12T16:42:55.325Z</time></trkpt><trkpt lat="45.9860763" lon="12.6952636"><ele>42.400000000000006</ele><time>2026-04-12T16:42:56.325Z</time></trkpt><trkpt lat="45.9861433" lon="12.695388"><ele>42.599999999999994</ele><time>2026-04-12T16:42:57.325Z</time></trkpt><trkpt lat="45.9862065" lon="12.6955055"><ele>42.8</ele><time>2026-04-12T16:42:58.325Z</time></trkpt><trkpt lat="45.9862627" lon="12.6956084"><ele>43.0</ele><time>2026-04-12T16:42:59.325Z</time></trkpt><trkpt lat="45.9863102" lon="12.6956951"><ele>43.0</ele><time>2026-04-12T16:43:00.326Z</time></trkpt><trkpt lat="45.9863487" lon="12.6957691"><ele>43.0</ele><time>2026-04-12T16:43:01.326Z</time></trkpt><trkpt lat="45.986396" lon="12.6958809"><ele>43.0</ele><time>2026-04-12T16:43:03.326Z</time></trkpt><trkpt lat="45.9864842" lon="12.6959997"><ele>43.0</ele><time>2026-04-12T16:43:05.325Z</time></trkpt><trkpt lat="45.9865681" lon="12.6960303"><ele>43.0</ele><time>2026-04-12T16:43:06.326Z</time></trkpt><trkpt lat="45.9866664" lon="12.6960414"><ele>43.25</ele><time>2026-04-12T16:43:07.326Z</time></trkpt><trkpt lat="45.9867749" lon="12.6960591"><ele>43.5</ele><time>2026-04-12T16:43:08.326Z</time></trkpt><trkpt lat="45.9868923" lon="12.6960772"><ele>43.75</ele><time>2026-04-12T16:43:09.327Z</time></trkpt><trkpt lat="45.9870129" lon="12.6960919"><ele>44.0</ele><time>2026-04-12T16:43:10.326Z</time></trkpt><trkpt lat="45.9871315" lon="12.6961083"><ele>44.0</ele><time>2026-04-12T16:43:11.325Z</time></trkpt><trkpt lat="45.987251" lon="12.6961236"><ele>44.0</ele><time>2026-04-12T16:43:12.326Z</time></trkpt><trkpt lat="45.9873636" lon="12.6961285"><ele>44.0</ele><time>2026-04-12T16:43:13.325Z</time></trkpt><trkpt lat="45.9874726" lon="12.6961422"><ele>44.0</ele><time>2026-04-12T16:43:14.326Z</time></trkpt><trkpt lat="45.9875724" lon="12.6961902"><ele>44.0</ele><time>2026-04-12T16:43:15.326Z</time></trkpt><trkpt lat="45.9876667" lon="12.6962738"><ele>44.25</ele><time>2026-04-12T16:43:16.326Z</time></trkpt><trkpt lat="45.9877567" lon="12.6963894"><ele>44.5</ele><time>2026-04-12T16:43:17.326Z</time></trkpt><trkpt lat="45.9878441" lon="12.696526"><ele>44.75</ele><time>2026-04-12T16:43:18.325Z</time></trkpt><trkpt lat="45.9879207" lon="12.6966709"><ele>45.0</ele><time>2026-04-12T16:43:19.325Z</time></trkpt><trkpt lat="45.9879877" lon="12.6968289"><ele>44.5</ele><time>2026-04-12T16:43:20.325Z</time></trkpt><trkpt lat="45.9880428" lon="12.6969969"><ele>44.0</ele><time>2026-04-12T16:43:21.325Z</time></trkpt><trkpt lat="45.988089" lon="12.697174"><ele>43.5</ele><time>2026-04-12T16:43:22.326Z</time></trkpt><trkpt lat="45.9881307" lon="12.6973386"><ele>43.0</ele><time>2026-04-12T16:43:23.327Z</time></trkpt><trkpt lat="45.9881682" lon="12.697495"><ele>43.0</ele><time>2026-04-12T16:43:24.326Z</time></trkpt><trkpt lat="45.9882011" lon="12.6976583"><ele>43.0</ele><time>2026-04-12T16:43:25.326Z</time></trkpt><trkpt lat="45.9882341" lon="12.6978251"><ele>43.0</ele><time>2026-04-12T16:43:26.326Z</time></trkpt><trkpt lat="45.9882692" lon="12.6979958"><ele>43.0</ele><time>2026-04-12T16:43:27.326Z</time></trkpt><trkpt lat="45.9883046" lon="12.6981693"><ele>43.0</ele><time>2026-04-12T16:43:28.325Z</time></trkpt><trkpt lat="45.9883441" lon="12.6983475"><ele>43.0</ele><time>2026-04-12T16:43:29.325Z</time></trkpt><trkpt lat="45.9883896" lon="12.6985247"><ele>43.0</ele><time>2026-04-12T16:43:30.325Z</time></trkpt><trkpt lat="45.9884469" lon="12.6986908"><ele>43.0</ele><time>2026-04-12T16:43:31.325Z</time></trkpt><trkpt lat="45.9885191" lon="12.6988466"><ele>43.0</ele><time>2026-04-12T16:43:32.326Z</time></trkpt><trkpt lat="45.9886063" lon="12.6989949"><ele>43.0</ele><time>2026-04-12T16:43:33.327Z</time></trkpt><trkpt lat="45.9887" lon="12.6991364"><ele>43.0</ele><time>2026-04-12T16:43:34.326Z</time></trkpt><trkpt lat="45.9887939" lon="12.6992809"><ele>43.0</ele><time>2026-04-12T16:43:35.326Z</time></trkpt><trkpt lat="45.9888859" lon="12.6994273"><ele>42.75</ele><time>2026-04-12T16:43:36.325Z</time></trkpt><trkpt lat="45.9889763" lon="12.6995751"><ele>42.5</ele><time>2026-04-12T16:43:37.326Z</time></trkpt><trkpt lat="45.9890683" lon="12.6997217"><ele>42.25</ele><time>2026-04-12T16:43:38.325Z</time></trkpt><trkpt lat="45.9891598" lon="12.6998709"><ele>42.0</ele><time>2026-04-12T16:43:39.325Z</time></trkpt><trkpt lat="45.989249" lon="12.7000183"><ele>42.25</ele><time>2026-04-12T16:43:40.326Z</time></trkpt><trkpt lat="45.9893374" lon="12.7001679"><ele>42.5</ele><time>2026-04-12T16:43:41.326Z</time></trkpt><trkpt lat="45.9894261" lon="12.7003149"><ele>42.75</ele><time>2026-04-12T16:43:42.326Z</time></trkpt><trkpt lat="45.9895165" lon="12.700462"><ele>43.0</ele><time>2026-04-12T16:43:43.326Z</time></trkpt><trkpt lat="45.9896041" lon="12.7006088"><ele>43.0</ele><time>2026-04-12T16:43:44.325Z</time></trkpt><trkpt lat="45.989691" lon="12.7007475"><ele>43.0</ele><time>2026-04-12T16:43:45.325Z</time></trkpt><trkpt lat="45.9897708" lon="12.7008786"><ele>43.0</ele><time>2026-04-12T16:43:46.325Z</time></trkpt><trkpt lat="45.9898495" lon="12.7010027"><ele>43.0</ele><time>2026-04-12T16:43:47.325Z</time></trkpt><trkpt lat="45.9899247" lon="12.7011213"><ele>43.0</ele><time>2026-04-12T16:43:48.326Z</time></trkpt><trkpt lat="45.9899953" lon="12.7012369"><ele>43.0</ele><time>2026-04-12T16:43:49.327Z</time></trkpt><trkpt lat="45.9900638" lon="12.7013483"><ele>43.0</ele><time>2026-04-12T16:43:50.326Z</time></trkpt><trkpt lat="45.9901268" lon="12.7014534"><ele>43.0</ele><time>2026-04-12T16:43:51.325Z</time></trkpt><trkpt lat="45.9901808" lon="12.7015473"><ele>43.0</ele><time>2026-04-12T16:43:52.325Z</time></trkpt><trkpt lat="45.990228" lon="12.701627"><ele>43.0</ele><time>2026-04-12T16:43:53.325Z</time></trkpt><trkpt lat="45.9902704" lon="12.7016955"><ele>43.0</ele><time>2026-04-12T16:43:54.326Z</time></trkpt><trkpt lat="45.9903206" lon="12.7017883"><ele>43.0</ele><time>2026-04-12T16:43:56.327Z</time></trkpt><trkpt lat="45.9903856" lon="12.701838"><ele>43.0</ele><time>2026-04-12T16:44:02.325Z</time></trkpt><trkpt lat="45.9904932" lon="12.701826"><ele>43.0</ele><time>2026-04-12T16:44:04.327Z</time></trkpt><trkpt lat="45.9905561" lon="12.7018091"><ele>43.0</ele><time>2026-04-12T16:44:05.326Z</time></trkpt><trkpt lat="45.9906264" lon="12.7017855"><ele>43.00000000000001</ele><time>2026-04-12T16:44:06.325Z</time></trkpt><trkpt lat="45.9907004" lon="12.7017573"><ele>43.0</ele><time>2026-04-12T16:44:07.325Z</time></trkpt><trkpt lat="45.9907761" lon="12.701731"><ele>43.0</ele><time>2026-04-12T16:44:08.325Z</time></trkpt><trkpt lat="45.9908434" lon="12.7017053"><ele>43.0</ele><time>2026-04-12T16:44:09.325Z</time></trkpt><trkpt lat="45.9909065" lon="12.7016873"><ele>43.0</ele><time>2026-04-12T16:44:10.325Z</time></trkpt><trkpt lat="45.9909784" lon="12.7016888"><ele>43.00000000000001</ele><time>2026-04-12T16:44:11.325Z</time></trkpt><trkpt lat="45.9910453" lon="12.7017191"><ele>43.0</ele><time>2026-04-12T16:44:12.326Z</time></trkpt><trkpt lat="45.9910953" lon="12.7017777"><ele>43.599999999999994</ele><time>2026-04-12T16:44:13.325Z</time></trkpt><trkpt lat="45.9911354" lon="12.7018713"><ele>44.199999999999996</ele><time>2026-04-12T16:44:14.326Z</time></trkpt><trkpt lat="45.9911817" lon="12.7019793"><ele>44.8</ele><time>2026-04-12T16:44:15.326Z</time></trkpt><trkpt lat="45.9912303" lon="12.7021032"><ele>45.4</ele><time>2026-04-12T16:44:16.326Z</time></trkpt><trkpt lat="45.991285" lon="12.7022347"><ele>46.0</ele><time>2026-04-12T16:44:17.326Z</time></trkpt><trkpt lat="45.991336" lon="12.7023617"><ele>46.0</ele><time>2026-04-12T16:44:18.326Z</time></trkpt><trkpt lat="45.9913904" lon="12.7025001"><ele>46.0</ele><time>2026-04-12T16:44:19.326Z</time></trkpt><trkpt lat="45.9914504" lon="12.7026482"><ele>46.0</ele><time>2026-04-12T16:44:20.325Z</time></trkpt><trkpt lat="45.9915129" lon="12.7028046"><ele>46.0</ele><time>2026-04-12T16:44:21.325Z</time></trkpt><trkpt lat="45.9915738" lon="12.7029713"><ele>46.0</ele><time>2026-04-12T16:44:22.325Z</time></trkpt><trkpt lat="45.9916335" lon="12.7031402"><ele>46.0</ele><time>2026-04-12T16:44:23.325Z</time></trkpt><trkpt lat="45.9916946" lon="12.7033041"><ele>46.0</ele><time>2026-04-12T16:44:24.326Z</time></trkpt><trkpt lat="45.9917693" lon="12.7034674"><ele>46.0</ele><time>2026-04-12T16:44:25.326Z</time></trkpt><trkpt lat="45.9918556" lon="12.7036282"><ele>45.66666666666667</ele><time>2026-04-12T16:44:26.327Z</time></trkpt><trkpt lat="45.9919498" lon="12.7037902"><ele>45.333333333333336</ele><time>2026-04-12T16:44:27.326Z</time></trkpt><trkpt lat="45.9920486" lon="12.7039527"><ele>45.0</ele><time>2026-04-12T16:44:28.326Z</time></trkpt><trkpt lat="45.9921531" lon="12.7041135"><ele>45.0</ele><time>2026-04-12T16:44:29.326Z</time></trkpt><trkpt lat="45.9922635" lon="12.7042704"><ele>45.0</ele><time>2026-04-12T16:44:30.325Z</time></trkpt><trkpt lat="45.9923777" lon="12.7044221"><ele>45.0</ele><time>2026-04-12T16:44:31.326Z</time></trkpt><trkpt lat="45.9924889" lon="12.7045607"><ele>45.25</ele><time>2026-04-12T16:44:32.325Z</time></trkpt><trkpt lat="45.9925878" lon="12.7046765"><ele>45.5</ele><time>2026-04-12T16:44:33.326Z</time></trkpt><trkpt lat="45.9926858" lon="12.7047784"><ele>45.75</ele><time>2026-04-12T16:44:34.326Z</time></trkpt><trkpt lat="45.9927886" lon="12.7048794"><ele>46.0</ele><time>2026-04-12T16:44:35.325Z</time></trkpt><trkpt lat="45.9928919" lon="12.7049823"><ele>46.0</ele><time>2026-04-12T16:44:36.325Z</time></trkpt><trkpt lat="45.992997" lon="12.7050969"><ele>46.0</ele><time>2026-04-12T16:44:37.325Z</time></trkpt><trkpt lat="45.9931" lon="12.7052156"><ele>46.0</ele><time>2026-04-12T16:44:38.325Z</time></trkpt><trkpt lat="45.9932038" lon="12.7053263"><ele>46.0</ele><time>2026-04-12T16:44:39.325Z</time></trkpt><trkpt lat="45.9932967" lon="12.7054261"><ele>46.199999999999996</ele><time>2026-04-12T16:44:40.326Z</time></trkpt><trkpt lat="45.9933851" lon="12.7055227"><ele>46.4</ele><time>2026-04-12T16:44:41.327Z</time></trkpt><trkpt lat="45.9934735" lon="12.7056207"><ele>46.6</ele><time>2026-04-12T16:44:42.326Z</time></trkpt><trkpt lat="45.9935596" lon="12.7057097"><ele>46.8</ele><time>2026-04-12T16:44:43.326Z</time></trkpt><trkpt lat="45.993639" lon="12.7058004"><ele>47.0</ele><time>2026-04-12T16:44:44.327Z</time></trkpt><trkpt lat="45.9937034" lon="12.705911"><ele>47.0</ele><time>2026-04-12T16:44:45.327Z</time></trkpt><trkpt lat="45.9937568" lon="12.7060342"><ele>47.0</ele><time>2026-04-12T16:44:46.326Z</time></trkpt><trkpt lat="45.9938063" lon="12.7061729"><ele>47.0</ele><time>2026-04-12T16:44:47.326Z</time></trkpt><trkpt lat="45.9938549" lon="12.7063203"><ele>47.0</ele><time>2026-04-12T16:44:48.327Z</time></trkpt><trkpt lat="45.9939081" lon="12.706473"><ele>47.0</ele><time>2026-04-12T16:44:49.326Z</time></trkpt><trkpt lat="45.9939626" lon="12.7066359"><ele>47.0</ele><time>2026-04-12T16:44:50.325Z</time></trkpt><trkpt lat="45.9940168" lon="12.7068048"><ele>47.0</ele><time>2026-04-12T16:44:51.325Z</time></trkpt><trkpt lat="45.9940737" lon="12.7069724"><ele>47.0</ele><time>2026-04-12T16:44:52.325Z</time></trkpt><trkpt lat="45.9941287" lon="12.7071459"><ele>47.0</ele><time>2026-04-12T16:44:53.325Z</time></trkpt><trkpt lat="45.9941794" lon="12.7073228"><ele>47.25</ele><time>2026-04-12T16:44:54.326Z</time></trkpt><trkpt lat="45.9942274" lon="12.7074938"><ele>47.5</ele><time>2026-04-12T16:44:55.327Z</time></trkpt><trkpt lat="45.9942685" lon="12.7076574"><ele>47.75</ele><time>2026-04-12T16:44:56.327Z</time></trkpt><trkpt lat="45.9943067" lon="12.7078113"><ele>48.0</ele><time>2026-04-12T16:44:57.327Z</time></trkpt><trkpt lat="45.9943402" lon="12.7079499"><ele>48.0</ele><time>2026-04-12T16:44:58.326Z</time></trkpt><trkpt lat="45.9943679" lon="12.7080689"><ele>48.0</ele><time>2026-04-12T16:44:59.326Z</time></trkpt><trkpt lat="45.994391" lon="12.7081692"><ele>48.0</ele><time>2026-04-12T16:45:00.326Z</time></trkpt><trkpt lat="45.9944265" lon="12.7083277"><ele>48.0</ele><time>2026-04-12T16:45:02.327Z</time></trkpt><trkpt lat="45.9944396" lon="12.7084905"><ele>48.0</ele><time>2026-04-12T16:45:04.325Z</time></trkpt><trkpt lat="45.9944594" lon="12.7085998"><ele>48.2</ele><time>2026-04-12T16:45:05.325Z</time></trkpt><trkpt lat="45.9944858" lon="12.7087233"><ele>48.4</ele><time>2026-04-12T16:45:06.326Z</time></trkpt><trkpt lat="45.9945143" lon="12.7088634"><ele>48.6</ele><time>2026-04-12T16:45:07.325Z</time></trkpt><trkpt lat="45.9945458" lon="12.7090066"><ele>48.800000000000004</ele><time>2026-04-12T16:45:08.326Z</time></trkpt><trkpt lat="45.9945817" lon="12.7091462"><ele>49.0</ele><time>2026-04-12T16:45:09.326Z</time></trkpt><trkpt lat="45.9946209" lon="12.7092915"><ele>48.5</ele><time>2026-04-12T16:45:10.325Z</time></trkpt><trkpt lat="45.9946594" lon="12.7094443"><ele>48.0</ele><time>2026-04-12T16:45:11.327Z</time></trkpt><trkpt lat="45.9947022" lon="12.7096055"><ele>47.5</ele><time>2026-04-12T16:45:12.326Z</time></trkpt><trkpt lat="45.99474" lon="12.7097661"><ele>47.0</ele><time>2026-04-12T16:45:13.325Z</time></trkpt><trkpt lat="45.9947757" lon="12.7099195"><ele>47.0</ele><time>2026-04-12T16:45:14.326Z</time></trkpt><trkpt lat="45.9948083" lon="12.7100656"><ele>47.0</ele><time>2026-04-12T16:45:15.325Z</time></trkpt><trkpt lat="45.9948378" lon="12.7102081"><ele>47.0</ele><time>2026-04-12T16:45:16.325Z</time></trkpt><trkpt lat="45.9948653" lon="12.7103371"><ele>47.0</ele><time>2026-04-12T16:45:17.326Z</time></trkpt><trkpt lat="45.9948894" lon="12.7104567"><ele>47.0</ele><time>2026-04-12T16:45:18.326Z</time></trkpt><trkpt lat="45.9949113" lon="12.7105602"><ele>47.0</ele><time>2026-04-12T16:45:19.326Z</time></trkpt><trkpt lat="45.9949296" lon="12.7106478"><ele>47.0</ele><time>2026-04-12T16:45:20.327Z</time></trkpt><trkpt lat="45.9949122" lon="12.7107908"><ele>47.0</ele><time>2026-04-12T16:45:22.327Z</time></trkpt><trkpt lat="45.9949122" lon="12.7109227"><ele>47.0</ele><time>2026-04-12T16:45:24.325Z</time></trkpt><trkpt lat="45.9950197" lon="12.7110322"><ele>47.0</ele><time>2026-04-12T16:45:26.326Z</time></trkpt><trkpt lat="45.9950892" lon="12.7111119"><ele>47.6</ele><time>2026-04-12T16:45:27.326Z</time></trkpt><trkpt lat="45.995161" lon="12.7112099"><ele>48.2</ele><time>2026-04-12T16:45:28.326Z</time></trkpt><trkpt lat="45.9952394" lon="12.7113075"><ele>48.8</ele><time>2026-04-12T16:45:29.325Z</time></trkpt><trkpt lat="45.9953114" lon="12.7113942"><ele>49.4</ele><time>2026-04-12T16:45:30.325Z</time></trkpt><trkpt lat="45.9953908" lon="12.7114876"><ele>50.0</ele><time>2026-04-12T16:45:31.326Z</time></trkpt><trkpt lat="45.9954789" lon="12.7115813"><ele>50.0</ele><time>2026-04-12T16:45:32.326Z</time></trkpt><trkpt lat="45.9955739" lon="12.7116767"><ele>50.0</ele><time>2026-04-12T16:45:33.326Z</time></trkpt><trkpt lat="45.9956719" lon="12.7117724"><ele>50.0</ele><time>2026-04-12T16:45:34.326Z</time></trkpt><trkpt lat="45.9957715" lon="12.7118704"><ele>50.0</ele><time>2026-04-12T16:45:35.326Z</time></trkpt><trkpt lat="45.9958744" lon="12.7119715"><ele>50.5</ele><time>2026-04-12T16:45:36.326Z</time></trkpt><trkpt lat="45.9959805" lon="12.7120725"><ele>51.0</ele><time>2026-04-12T16:45:37.326Z</time></trkpt><trkpt lat="45.9960856" lon="12.7121768"><ele>51.5</ele><time>2026-04-12T16:45:38.326Z</time></trkpt><trkpt lat="45.9961899" lon="12.7122751"><ele>52.0</ele><time>2026-04-12T16:45:39.325Z</time></trkpt><trkpt lat="45.9962915" lon="12.7123626"><ele>52.0</ele><time>2026-04-12T16:45:40.326Z</time></trkpt><trkpt lat="45.9963842" lon="12.7124482"><ele>52.0</ele><time>2026-04-12T16:45:41.326Z</time></trkpt><trkpt lat="45.9964711" lon="12.7125301"><ele>52.0</ele><time>2026-04-12T16:45:42.325Z</time></trkpt><trkpt lat="45.9965541" lon="12.7126104"><ele>52.0</ele><time>2026-04-12T16:45:43.326Z</time></trkpt><trkpt lat="45.9966333" lon="12.7126802"><ele>52.0</ele><time>2026-04-12T16:45:44.326Z</time></trkpt><trkpt lat="45.9967135" lon="12.7127361"><ele>51.6</ele><time>2026-04-12T16:45:45.325Z</time></trkpt><trkpt lat="45.9967718" lon="12.7127945"><ele>51.2</ele><time>2026-04-12T16:45:46.326Z</time></trkpt><trkpt lat="45.9967971" lon="12.7129293"><ele>50.8</ele><time>2026-04-12T16:45:48.325Z</time></trkpt><trkpt lat="45.9967039" lon="12.7130286"><ele>50.4</ele><time>2026-04-12T16:45:50.326Z</time></trkpt><trkpt lat="45.9966315" lon="12.7130907"><ele>50.0</ele><time>2026-04-12T16:45:51.325Z</time></trkpt><trkpt lat="45.9965441" lon="12.7131643"><ele>50.0</ele><time>2026-04-12T16:45:52.324Z</time></trkpt><trkpt lat="45.9964426" lon="12.7132435"><ele>50.0</ele><time>2026-04-12T16:45:53.324Z</time></trkpt><trkpt lat="45.9963304" lon="12.7133239"><ele>50.0</ele><time>2026-04-12T16:45:54.325Z</time></trkpt><trkpt lat="45.9962233" lon="12.7134061"><ele>50.0</ele><time>2026-04-12T16:45:55.326Z</time></trkpt><trkpt lat="45.99611" lon="12.7134919"><ele>50.0</ele><time>2026-04-12T16:45:56.325Z</time></trkpt><trkpt lat="45.9959936" lon="12.7135831"><ele>50.0</ele><time>2026-04-12T16:45:57.325Z</time></trkpt><trkpt lat="45.9958749" lon="12.7136733"><ele>50.0</ele><time>2026-04-12T16:45:58.324Z</time></trkpt><trkpt lat="45.9957528" lon="12.7137689"><ele>50.0</ele><time>2026-04-12T16:45:59.324Z</time></trkpt><trkpt lat="45.9956289" lon="12.7138638"><ele>50.0</ele><time>2026-04-12T16:46:00.324Z</time></trkpt><trkpt lat="45.9955028" lon="12.7139611"><ele>50.0</ele><time>2026-04-12T16:46:01.325Z</time></trkpt><trkpt lat="45.9953743" lon="12.7140626"><ele>50.0</ele><time>2026-04-12T16:46:02.324Z</time></trkpt><trkpt lat="45.9952405" lon="12.7141666"><ele>50.0</ele><time>2026-04-12T16:46:03.325Z</time></trkpt><trkpt lat="45.995106" lon="12.7142682"><ele>50.0</ele><time>2026-04-12T16:46:04.324Z</time></trkpt><trkpt lat="45.9949692" lon="12.7143723"><ele>50.0</ele><time>2026-04-12T16:46:05.325Z</time></trkpt><trkpt lat="45.9948382" lon="12.7144754"><ele>50.0</ele><time>2026-04-12T16:46:06.325Z</time></trkpt><trkpt lat="45.9947139" lon="12.7145755"><ele>50.0</ele><time>2026-04-12T16:46:07.326Z</time></trkpt><trkpt lat="45.9945893" lon="12.714671"><ele>49.75</ele><time>2026-04-12T16:46:08.326Z</time></trkpt><trkpt lat="45.9944656" lon="12.7147683"><ele>49.5</ele><time>2026-04-12T16:46:09.325Z</time></trkpt><trkpt lat="45.9943391" lon="12.7148666"><ele>49.25</ele><time>2026-04-12T16:46:10.324Z</time></trkpt><trkpt lat="45.9942115" lon="12.7149616"><ele>49.0</ele><time>2026-04-12T16:46:11.324Z</time></trkpt><trkpt lat="45.9940816" lon="12.7150567"><ele>48.75</ele><time>2026-04-12T16:46:12.324Z</time></trkpt><trkpt lat="45.9939524" lon="12.7151523"><ele>48.5</ele><time>2026-04-12T16:46:13.324Z</time></trkpt><trkpt lat="45.9938264" lon="12.7152416"><ele>48.25</ele><time>2026-04-12T16:46:14.325Z</time></trkpt><trkpt lat="45.9936975" lon="12.7153269"><ele>48.0</ele><time>2026-04-12T16:46:15.324Z</time></trkpt><trkpt lat="45.9935656" lon="12.7154095"><ele>47.25</ele><time>2026-04-12T16:46:16.325Z</time></trkpt><trkpt lat="45.9934321" lon="12.7154847"><ele>46.5</ele><time>2026-04-12T16:46:17.325Z</time></trkpt><trkpt lat="45.9933012" lon="12.7155605"><ele>45.75</ele><time>2026-04-12T16:46:18.325Z</time></trkpt><trkpt lat="45.993169" lon="12.7156327"><ele>45.0</ele><time>2026-04-12T16:46:19.325Z</time></trkpt><trkpt lat="45.9930379" lon="12.7157075"><ele>45.0</ele><time>2026-04-12T16:46:20.324Z</time></trkpt><trkpt lat="45.9929099" lon="12.7157734"><ele>45.0</ele><time>2026-04-12T16:46:21.326Z</time></trkpt><trkpt lat="45.9927836" lon="12.7158431"><ele>45.0</ele><time>2026-04-12T16:46:22.325Z</time></trkpt><trkpt lat="45.9926625" lon="12.7159094"><ele>45.0</ele><time>2026-04-12T16:46:23.325Z</time></trkpt><trkpt lat="45.9925524" lon="12.7159708"><ele>45.166666666666664</ele><time>2026-04-12T16:46:24.326Z</time></trkpt><trkpt lat="45.992456" lon="12.7160231"><ele>45.333333333333336</ele><time>2026-04-12T16:46:25.325Z</time></trkpt><trkpt lat="45.9923746" lon="12.7160655"><ele>45.5</ele><time>2026-04-12T16:46:26.324Z</time></trkpt><trkpt lat="45.9923079" lon="12.7160979"><ele>45.66666666666667</ele><time>2026-04-12T16:46:27.326Z</time></trkpt><trkpt lat="45.9921996" lon="12.7161482"><ele>45.833333333333336</ele><time>2026-04-12T16:46:29.325Z</time></trkpt><trkpt lat="45.9921325" lon="12.7161931"><ele>46.0</ele><time>2026-04-12T16:46:31.325Z</time></trkpt><trkpt lat="45.9921022" lon="12.7163449"><ele>45.66666666666667</ele><time>2026-04-12T16:46:56.324Z</time></trkpt><trkpt lat="45.9921333" lon="12.7164947"><ele>45.333333333333336</ele><time>2026-04-12T16:46:58.325Z</time></trkpt><trkpt lat="45.9921618" lon="12.7165863"><ele>45.0</ele><time>2026-04-12T16:46:59.324Z</time></trkpt><trkpt lat="45.9921897" lon="12.7166889"><ele>44.666666666666664</ele><time>2026-04-12T16:47:00.324Z</time></trkpt><trkpt lat="45.9922172" lon="12.7167905"><ele>44.33333333333333</ele><time>2026-04-12T16:47:01.324Z</time></trkpt><trkpt lat="45.9922496" lon="12.7169038"><ele>44.0</ele><time>2026-04-12T16:47:02.324Z</time></trkpt><trkpt lat="45.9922842" lon="12.7170276"><ele>43.800000000000004</ele><time>2026-04-12T16:47:03.324Z</time></trkpt><trkpt lat="45.992322" lon="12.7171568"><ele>43.6</ele><time>2026-04-12T16:47:04.324Z</time></trkpt><trkpt lat="45.9923573" lon="12.7172861"><ele>43.4</ele><time>2026-04-12T16:47:05.325Z</time></trkpt><trkpt lat="45.9923952" lon="12.7174267"><ele>43.2</ele><time>2026-04-12T16:47:06.325Z</time></trkpt><trkpt lat="45.9924371" lon="12.7175692"><ele>43.0</ele><time>2026-04-12T16:47:07.326Z</time></trkpt><trkpt lat="45.9924795" lon="12.7177178"><ele>43.5</ele><time>2026-04-12T16:47:08.325Z</time></trkpt><trkpt lat="45.9925236" lon="12.7178702"><ele>44.0</ele><time>2026-04-12T16:47:09.325Z</time></trkpt><trkpt lat="45.9925644" lon="12.7180206"><ele>44.5</ele><time>2026-04-12T16:47:10.325Z</time></trkpt><trkpt lat="45.9926065" lon="12.718174"><ele>45.0</ele><time>2026-04-12T16:47:11.326Z</time></trkpt><trkpt lat="45.9926508" lon="12.7183333"><ele>45.0</ele><time>2026-04-12T16:47:12.324Z</time></trkpt><trkpt lat="45.9926983" lon="12.7184976"><ele>45.0</ele><time>2026-04-12T16:47:13.324Z</time></trkpt><trkpt lat="45.9927471" lon="12.7186665"><ele>45.0</ele><time>2026-04-12T16:47:14.324Z</time></trkpt><trkpt lat="45.9927943" lon="12.7188368"><ele>45.0</ele><time>2026-04-12T16:47:15.324Z</time></trkpt><trkpt lat="45.9928415" lon="12.7190089"><ele>45.0</ele><time>2026-04-12T16:47:16.324Z</time></trkpt><trkpt lat="45.9928893" lon="12.7191863"><ele>45.0</ele><time>2026-04-12T16:47:17.325Z</time></trkpt><trkpt lat="45.9929385" lon="12.7193651"><ele>45.0</ele><time>2026-04-12T16:47:18.324Z</time></trkpt><trkpt lat="45.992988" lon="12.7195426"><ele>45.0</ele><time>2026-04-12T16:47:19.325Z</time></trkpt><trkpt lat="45.9930384" lon="12.719721"><ele>44.75</ele><time>2026-04-12T16:47:20.324Z</time></trkpt><trkpt lat="45.9930869" lon="12.7198988"><ele>44.5</ele><time>2026-04-12T16:47:21.324Z</time></trkpt><trkpt lat="45.9931355" lon="12.7200769"><ele>44.25</ele><time>2026-04-12T16:47:22.324Z</time></trkpt><trkpt lat="45.9931858" lon="12.7202525"><ele>44.0</ele><time>2026-04-12T16:47:23.324Z</time></trkpt><trkpt lat="45.9932334" lon="12.7204263"><ele>44.0</ele><time>2026-04-12T16:47:24.326Z</time></trkpt><trkpt lat="45.993281" lon="12.7206113"><ele>44.0</ele><time>2026-04-12T16:47:25.325Z</time></trkpt><trkpt lat="45.9933339" lon="12.7207976"><ele>44.0</ele><time>2026-04-12T16:47:26.325Z</time></trkpt><trkpt lat="45.9933898" lon="12.7209908"><ele>44.0</ele><time>2026-04-12T16:47:27.325Z</time></trkpt><trkpt lat="45.9934462" lon="12.7211849"><ele>44.0</ele><time>2026-04-12T16:47:28.325Z</time></trkpt><trkpt lat="45.9935018" lon="12.7213784"><ele>44.0</ele><time>2026-04-12T16:47:29.325Z</time></trkpt><trkpt lat="45.9935553" lon="12.7215733"><ele>44.0</ele><time>2026-04-12T16:47:30.325Z</time></trkpt><trkpt lat="45.9936089" lon="12.7217654"><ele>44.0</ele><time>2026-04-12T16:47:31.325Z</time></trkpt><trkpt lat="45.9936602" lon="12.7219576"><ele>44.0</ele><time>2026-04-12T16:47:32.325Z</time></trkpt><trkpt lat="45.9937118" lon="12.7221465"><ele>44.0</ele><time>2026-04-12T16:47:33.325Z</time></trkpt><trkpt lat="45.9937596" lon="12.7223368"><ele>44.0</ele><time>2026-04-12T16:47:34.325Z</time></trkpt><trkpt lat="45.9938079" lon="12.7225273"><ele>44.0</ele><time>2026-04-12T16:47:35.325Z</time></trkpt><trkpt lat="45.9938532" lon="12.7227208"><ele>43.75</ele><time>2026-04-12T16:47:36.325Z</time></trkpt><trkpt lat="45.9938923" lon="12.7229145"><ele>43.5</ele><time>2026-04-12T16:47:37.324Z</time></trkpt><trkpt lat="45.993927" lon="12.723108"><ele>43.25</ele><time>2026-04-12T16:47:38.325Z</time></trkpt><trkpt lat="45.9939628" lon="12.7232993"><ele>43.0</ele><time>2026-04-12T16:47:39.324Z</time></trkpt><trkpt lat="45.9940042" lon="12.7234858"><ele>42.75</ele><time>2026-04-12T16:47:40.324Z</time></trkpt><trkpt lat="45.9940452" lon="12.7236609"><ele>42.5</ele><time>2026-04-12T16:47:41.324Z</time></trkpt><trkpt lat="45.9940913" lon="12.7238243"><ele>42.25</ele><time>2026-04-12T16:47:42.324Z</time></trkpt><trkpt lat="45.9941317" lon="12.7239785"><ele>42.0</ele><time>2026-04-12T16:47:43.324Z</time></trkpt><trkpt lat="45.994169" lon="12.7241147"><ele>41.833333333333336</ele><time>2026-04-12T16:47:44.325Z</time></trkpt><trkpt lat="45.9941982" lon="12.7242419"><ele>41.666666666666664</ele><time>2026-04-12T16:47:45.325Z</time></trkpt><trkpt lat="45.9942226" lon="12.7243483"><ele>41.5</ele><time>2026-04-12T16:47:46.324Z</time></trkpt><trkpt lat="45.9942337" lon="12.7244518"><ele>41.33333333333333</ele><time>2026-04-12T16:47:47.324Z</time></trkpt><trkpt lat="45.9942443" lon="12.7245643"><ele>41.166666666666664</ele><time>2026-04-12T16:47:48.324Z</time></trkpt><trkpt lat="45.9942549" lon="12.7246898"><ele>41.0</ele><time>2026-04-12T16:47:49.325Z</time></trkpt><trkpt lat="45.9942686" lon="12.724828"><ele>41.0</ele><time>2026-04-12T16:47:50.325Z</time></trkpt><trkpt lat="45.9942884" lon="12.7249708"><ele>41.0</ele><time>2026-04-12T16:47:51.326Z</time></trkpt><trkpt lat="45.9943087" lon="12.7251219"><ele>41.0</ele><time>2026-04-12T16:47:52.325Z</time></trkpt><trkpt lat="45.9943278" lon="12.7252702"><ele>41.0</ele><time>2026-04-12T16:47:53.325Z</time></trkpt><trkpt lat="45.9943509" lon="12.7254222"><ele>41.0</ele><time>2026-04-12T16:47:54.325Z</time></trkpt><trkpt lat="45.994377" lon="12.7255738"><ele>41.75</ele><time>2026-04-12T16:47:55.325Z</time></trkpt><trkpt lat="45.9944007" lon="12.7257337"><ele>42.5</ele><time>2026-04-12T16:47:56.324Z</time></trkpt><trkpt lat="45.994422" lon="12.7258981"><ele>43.25</ele><time>2026-04-12T16:47:57.324Z</time></trkpt><trkpt lat="45.9944443" lon="12.7260521"><ele>44.0</ele><time>2026-04-12T16:47:58.325Z</time></trkpt><trkpt lat="45.9944684" lon="12.7262151"><ele>44.0</ele><time>2026-04-12T16:47:59.325Z</time></trkpt><trkpt lat="45.9944897" lon="12.7263711"><ele>44.0</ele><time>2026-04-12T16:48:00.325Z</time></trkpt><trkpt lat="45.994508" lon="12.7265225"><ele>44.0</ele><time>2026-04-12T16:48:01.325Z</time></trkpt><trkpt lat="45.9945163" lon="12.7266689"><ele>44.0</ele><time>2026-04-12T16:48:02.325Z</time></trkpt><trkpt lat="45.9945121" lon="12.7268216"><ele>44.0</ele><time>2026-04-12T16:48:03.324Z</time></trkpt><trkpt lat="45.9944958" lon="12.7269788"><ele>43.5</ele><time>2026-04-12T16:48:04.325Z</time></trkpt><trkpt lat="45.9944611" lon="12.7271349"><ele>43.0</ele><time>2026-04-12T16:48:05.325Z</time></trkpt><trkpt lat="45.9944152" lon="12.7272859"><ele>42.5</ele><time>2026-04-12T16:48:06.325Z</time></trkpt><trkpt lat="45.9943758" lon="12.7274335"><ele>42.0</ele><time>2026-04-12T16:48:07.325Z</time></trkpt><trkpt lat="45.9943412" lon="12.7275879"><ele>42.25</ele><time>2026-04-12T16:48:08.325Z</time></trkpt><trkpt lat="45.9943117" lon="12.7277508"><ele>42.5</ele><time>2026-04-12T16:48:09.324Z</time></trkpt><trkpt lat="45.9942894" lon="12.7279076"><ele>42.75</ele><time>2026-04-12T16:48:10.325Z</time></trkpt><trkpt lat="45.9942738" lon="12.7280679"><ele>43.0</ele><time>2026-04-12T16:48:11.325Z</time></trkpt><trkpt lat="45.9942659" lon="12.7282337"><ele>43.0</ele><time>2026-04-12T16:48:12.325Z</time></trkpt><trkpt lat="45.9942694" lon="12.7283989"><ele>43.0</ele><time>2026-04-12T16:48:13.325Z</time></trkpt><trkpt lat="45.994294" lon="12.7285698"><ele>43.0</ele><time>2026-04-12T16:48:14.325Z</time></trkpt><trkpt lat="45.9943262" lon="12.7287414"><ele>43.0</ele><time>2026-04-12T16:48:15.325Z</time></trkpt><trkpt lat="45.9943599" lon="12.7289253"><ele>43.25</ele><time>2026-04-12T16:48:16.325Z</time></trkpt><trkpt lat="45.994397" lon="12.7291152"><ele>43.5</ele><time>2026-04-12T16:48:17.324Z</time></trkpt><trkpt lat="45.9944357" lon="12.7293096"><ele>43.75</ele><time>2026-04-12T16:48:18.324Z</time></trkpt><trkpt lat="45.9944692" lon="12.7295092"><ele>44.0</ele><time>2026-04-12T16:48:19.324Z</time></trkpt><trkpt lat="45.994502" lon="12.7297126"><ele>44.25</ele><time>2026-04-12T16:48:20.325Z</time></trkpt><trkpt lat="45.9945358" lon="12.7299047"><ele>44.5</ele><time>2026-04-12T16:48:21.325Z</time></trkpt><trkpt lat="45.9945682" lon="12.7300914"><ele>44.75</ele><time>2026-04-12T16:48:22.325Z</time></trkpt><trkpt lat="45.9946026" lon="12.7302827"><ele>45.0</ele><time>2026-04-12T16:48:23.325Z</time></trkpt><trkpt lat="45.9946381" lon="12.7304722"><ele>45.0</ele><time>2026-04-12T16:48:24.325Z</time></trkpt><trkpt lat="45.9946739" lon="12.7306648"><ele>45.0</ele><time>2026-04-12T16:48:25.325Z</time></trkpt><trkpt lat="45.9947055" lon="12.7308462"><ele>45.0</ele><time>2026-04-12T16:48:26.325Z</time></trkpt><trkpt lat="45.9947321" lon="12.731021"><ele>45.0</ele><time>2026-04-12T16:48:27.325Z</time></trkpt><trkpt lat="45.9947568" lon="12.731195"><ele>45.0</ele><time>2026-04-12T16:48:28.326Z</time></trkpt><trkpt lat="45.9947781" lon="12.7313754"><ele>45.0</ele><time>2026-04-12T16:48:29.325Z</time></trkpt><trkpt lat="45.9947927" lon="12.7315598"><ele>45.0</ele><time>2026-04-12T16:48:30.324Z</time></trkpt><trkpt lat="45.9947972" lon="12.7317417"><ele>45.0</ele><time>2026-04-12T16:48:31.325Z</time></trkpt><trkpt lat="45.9948017" lon="12.7319301"><ele>44.75</ele><time>2026-04-12T16:48:32.325Z</time></trkpt><trkpt lat="45.9948021" lon="12.7321179"><ele>44.5</ele><time>2026-04-12T16:48:33.325Z</time></trkpt><trkpt lat="45.9948035" lon="12.7323076"><ele>44.25</ele><time>2026-04-12T16:48:34.325Z</time></trkpt><trkpt lat="45.9948053" lon="12.7325015"><ele>44.0</ele><time>2026-04-12T16:48:35.325Z</time></trkpt><trkpt lat="45.9948071" lon="12.7326976"><ele>44.0</ele><time>2026-04-12T16:48:36.325Z</time></trkpt><trkpt lat="45.9948053" lon="12.7328953"><ele>44.0</ele><time>2026-04-12T16:48:37.324Z</time></trkpt><trkpt lat="45.9947997" lon="12.7330838"><ele>44.0</ele><time>2026-04-12T16:48:38.324Z</time></trkpt><trkpt lat="45.9947932" lon="12.7332578"><ele>44.0</ele><time>2026-04-12T16:48:39.325Z</time></trkpt><trkpt lat="45.9947766" lon="12.7334181"><ele>43.75</ele><time>2026-04-12T16:48:40.326Z</time></trkpt><trkpt lat="45.9947514" lon="12.7335793"><ele>43.5</ele><time>2026-04-12T16:48:41.325Z</time></trkpt><trkpt lat="45.9947135" lon="12.7337376"><ele>43.25</ele><time>2026-04-12T16:48:42.325Z</time></trkpt><trkpt lat="45.9946642" lon="12.7338971"><ele>43.0</ele><time>2026-04-12T16:48:43.326Z</time></trkpt><trkpt lat="45.9946108" lon="12.7340702"><ele>43.0</ele><time>2026-04-12T16:48:44.325Z</time></trkpt><trkpt lat="45.9945564" lon="12.7342411"><ele>43.0</ele><time>2026-04-12T16:48:45.325Z</time></trkpt><trkpt lat="45.9945014" lon="12.7344105"><ele>43.0</ele><time>2026-04-12T16:48:46.324Z</time></trkpt><trkpt lat="45.9944536" lon="12.7345782"><ele>43.0</ele><time>2026-04-12T16:48:47.324Z</time></trkpt><trkpt lat="45.9944175" lon="12.7347565"><ele>42.5</ele><time>2026-04-12T16:48:48.324Z</time></trkpt><trkpt lat="45.9943846" lon="12.7349344"><ele>42.0</ele><time>2026-04-12T16:48:49.324Z</time></trkpt><trkpt lat="45.9943508" lon="12.7351189"><ele>41.5</ele><time>2026-04-12T16:48:50.324Z</time></trkpt><trkpt lat="45.9943203" lon="12.7353068"><ele>41.0</ele><time>2026-04-12T16:48:51.324Z</time></trkpt><trkpt lat="45.9942908" lon="12.7354935"><ele>41.0</ele><time>2026-04-12T16:48:52.324Z</time></trkpt><trkpt lat="45.9942687" lon="12.735681"><ele>41.0</ele><time>2026-04-12T16:48:53.324Z</time></trkpt><trkpt lat="45.994242" lon="12.7358695"><ele>41.0</ele><time>2026-04-12T16:48:54.325Z</time></trkpt><trkpt lat="45.9942167" lon="12.7360584"><ele>41.0</ele><time>2026-04-12T16:48:55.325Z</time></trkpt><trkpt lat="45.9941881" lon="12.7362473"><ele>41.25</ele><time>2026-04-12T16:48:56.326Z</time></trkpt><trkpt lat="45.9941557" lon="12.736428"><ele>41.5</ele><time>2026-04-12T16:48:57.324Z</time></trkpt><trkpt lat="45.9941322" lon="12.7365945"><ele>41.75</ele><time>2026-04-12T16:48:58.325Z</time></trkpt><trkpt lat="45.9941138" lon="12.7367535"><ele>42.0</ele><time>2026-04-12T16:48:59.324Z</time></trkpt><trkpt lat="45.9941096" lon="12.7369105"><ele>42.0</ele><time>2026-04-12T16:49:00.326Z</time></trkpt><trkpt lat="45.9941157" lon="12.7370647"><ele>42.0</ele><time>2026-04-12T16:49:01.325Z</time></trkpt><trkpt lat="45.9941368" lon="12.7372133"><ele>42.0</ele><time>2026-04-12T16:49:02.325Z</time></trkpt><trkpt lat="45.9941739" lon="12.7373629"><ele>42.0</ele><time>2026-04-12T16:49:03.325Z</time></trkpt><trkpt lat="45.9942173" lon="12.7375193"><ele>42.0</ele><time>2026-04-12T16:49:04.324Z</time></trkpt><trkpt lat="45.9942688" lon="12.7376802"><ele>41.75</ele><time>2026-04-12T16:49:05.324Z</time></trkpt><trkpt lat="45.9943193" lon="12.7378478"><ele>41.5</ele><time>2026-04-12T16:49:06.324Z</time></trkpt><trkpt lat="45.9943714" lon="12.7380193"><ele>41.25</ele><time>2026-04-12T16:49:07.324Z</time></trkpt><trkpt lat="45.9944204" lon="12.7381911"><ele>41.0</ele><time>2026-04-12T16:49:08.325Z</time></trkpt><trkpt lat="45.9944655" lon="12.7383548"><ele>41.0</ele><time>2026-04-12T16:49:09.325Z</time></trkpt><trkpt lat="45.9945052" lon="12.7385171"><ele>41.0</ele><time>2026-04-12T16:49:10.325Z</time></trkpt><trkpt lat="45.994535" lon="12.7386675"><ele>41.0</ele><time>2026-04-12T16:49:11.324Z</time></trkpt><trkpt lat="45.9945459" lon="12.7388164"><ele>41.0</ele><time>2026-04-12T16:49:12.324Z</time></trkpt><trkpt lat="45.9945457" lon="12.7389772"><ele>41.0</ele><time>2026-04-12T16:49:13.325Z</time></trkpt><trkpt lat="45.9945346" lon="12.7391415"><ele>41.0</ele><time>2026-04-12T16:49:14.324Z</time></trkpt><trkpt lat="45.9945209" lon="12.7393212"><ele>41.0</ele><time>2026-04-12T16:49:15.324Z</time></trkpt><trkpt lat="45.9945039" lon="12.7395075"><ele>41.0</ele><time>2026-04-12T16:49:16.324Z</time></trkpt><trkpt lat="45.9944829" lon="12.739699"><ele>41.0</ele><time>2026-04-12T16:49:17.324Z</time></trkpt><trkpt lat="45.9944629" lon="12.7398945"><ele>41.0</ele><time>2026-04-12T16:49:18.325Z</time></trkpt><trkpt lat="45.9944476" lon="12.7400865"><ele>41.0</ele><time>2026-04-12T16:49:19.325Z</time></trkpt><trkpt lat="45.994429" lon="12.7402608"><ele>41.0</ele><time>2026-04-12T16:49:20.325Z</time></trkpt><trkpt lat="45.994414" lon="12.7404183"><ele>41.0</ele><time>2026-04-12T16:49:21.325Z</time></trkpt><trkpt lat="45.9943997" lon="12.7405684"><ele>41.0</ele><time>2026-04-12T16:49:22.325Z</time></trkpt><trkpt lat="45.9943848" lon="12.7407055"><ele>41.0</ele><time>2026-04-12T16:49:23.325Z</time></trkpt><trkpt lat="45.9943769" lon="12.7408239"><ele>41.0</ele><time>2026-04-12T16:49:24.325Z</time></trkpt><trkpt lat="45.9943625" lon="12.7409297"><ele>41.0</ele><time>2026-04-12T16:49:25.325Z</time></trkpt><trkpt lat="45.994349" lon="12.7410311"><ele>41.0</ele><time>2026-04-12T16:49:26.325Z</time></trkpt><trkpt lat="45.9943366" lon="12.7411474"><ele>41.0</ele><time>2026-04-12T16:49:27.325Z</time></trkpt><trkpt lat="45.9943267" lon="12.7412809"><ele>41.25</ele><time>2026-04-12T16:49:28.324Z</time></trkpt><trkpt lat="45.9943153" lon="12.7414294"><ele>41.5</ele><time>2026-04-12T16:49:29.325Z</time></trkpt><trkpt lat="45.9943011" lon="12.7415872"><ele>41.75</ele><time>2026-04-12T16:49:30.325Z</time></trkpt><trkpt lat="45.9942885" lon="12.7417524"><ele>42.0</ele><time>2026-04-12T16:49:31.325Z</time></trkpt><trkpt lat="45.9942752" lon="12.7419256"><ele>42.25</ele><time>2026-04-12T16:49:32.325Z</time></trkpt><trkpt lat="45.9942605" lon="12.7421092"><ele>42.5</ele><time>2026-04-12T16:49:33.325Z</time></trkpt><trkpt lat="45.9942483" lon="12.7422872"><ele>42.75</ele><time>2026-04-12T16:49:34.325Z</time></trkpt><trkpt lat="45.9942355" lon="12.7424509"><ele>43.0</ele><time>2026-04-12T16:49:35.326Z</time></trkpt><trkpt lat="45.9942253" lon="12.7426129"><ele>43.0</ele><time>2026-04-12T16:49:36.324Z</time></trkpt><trkpt lat="45.9942102" lon="12.7427754"><ele>43.0</ele><time>2026-04-12T16:49:37.324Z</time></trkpt><trkpt lat="45.9942" lon="12.7429423"><ele>43.0</ele><time>2026-04-12T16:49:38.325Z</time></trkpt><trkpt lat="45.994191" lon="12.7431121"><ele>43.0</ele><time>2026-04-12T16:49:39.325Z</time></trkpt><trkpt lat="45.9941768" lon="12.743276"><ele>43.25</ele><time>2026-04-12T16:49:40.324Z</time></trkpt><trkpt lat="45.9941641" lon="12.7434444"><ele>43.5</ele><time>2026-04-12T16:49:41.324Z</time></trkpt><trkpt lat="45.9941556" lon="12.743615"><ele>43.75</ele><time>2026-04-12T16:49:42.325Z</time></trkpt><trkpt lat="45.9941462" lon="12.7437824"><ele>44.0</ele><time>2026-04-12T16:49:43.325Z</time></trkpt><trkpt lat="45.9941442" lon="12.7439524"><ele>44.0</ele><time>2026-04-12T16:49:44.325Z</time></trkpt><trkpt lat="45.9941451" lon="12.7441092"><ele>44.0</ele><time>2026-04-12T16:49:45.325Z</time></trkpt><trkpt lat="45.9941488" lon="12.7442518"><ele>44.0</ele><time>2026-04-12T16:49:46.326Z</time></trkpt><trkpt lat="45.9941558" lon="12.7443856"><ele>44.0</ele><time>2026-04-12T16:49:47.324Z</time></trkpt><trkpt lat="45.9941616" lon="12.7444972"><ele>44.0</ele><time>2026-04-12T16:49:48.324Z</time></trkpt><trkpt lat="45.9941699" lon="12.744596"><ele>44.0</ele><time>2026-04-12T16:49:49.324Z</time></trkpt><trkpt lat="45.9941725" lon="12.7446966"><ele>44.0</ele><time>2026-04-12T16:49:50.326Z</time></trkpt><trkpt lat="45.9941748" lon="12.744798"><ele>44.0</ele><time>2026-04-12T16:49:51.324Z</time></trkpt><trkpt lat="45.994174" lon="12.7448965"><ele>44.0</ele><time>2026-04-12T16:49:52.325Z</time></trkpt><trkpt lat="45.994158" lon="12.7450604"><ele>44.0</ele><time>2026-04-12T16:49:54.325Z</time></trkpt><trkpt lat="45.994107" lon="12.7451778"><ele>44.0</ele><time>2026-04-12T16:49:56.325Z</time></trkpt><trkpt lat="45.9940003" lon="12.7452424"><ele>43.6</ele><time>2026-04-12T16:49:58.325Z</time></trkpt><trkpt lat="45.993927" lon="12.745254"><ele>43.2</ele><time>2026-04-12T16:49:59.325Z</time></trkpt><trkpt lat="45.9938368" lon="12.7452698"><ele>42.800000000000004</ele><time>2026-04-12T16:50:00.324Z</time></trkpt><trkpt lat="45.9937363" lon="12.7452909"><ele>42.400000000000006</ele><time>2026-04-12T16:50:01.326Z</time></trkpt><trkpt lat="45.9936292" lon="12.7453139"><ele>42.0</ele><time>2026-04-12T16:50:02.325Z</time></trkpt><trkpt lat="45.993525" lon="12.7453375"><ele>42.0</ele><time>2026-04-12T16:50:03.324Z</time></trkpt><trkpt lat="45.993413" lon="12.7453661"><ele>42.0</ele><time>2026-04-12T16:50:04.326Z</time></trkpt><trkpt lat="45.9932965" lon="12.745401"><ele>42.0</ele><time>2026-04-12T16:50:05.324Z</time></trkpt><trkpt lat="45.9931806" lon="12.7454303"><ele>42.0</ele><time>2026-04-12T16:50:06.325Z</time></trkpt><trkpt lat="45.9930635" lon="12.7454636"><ele>41.25</ele><time>2026-04-12T16:50:07.325Z</time></trkpt><trkpt lat="45.9929402" lon="12.7454951"><ele>40.5</ele><time>2026-04-12T16:50:08.324Z</time></trkpt><trkpt lat="45.9928229" lon="12.7455235"><ele>39.75</ele><time>2026-04-12T16:50:09.324Z</time></trkpt><trkpt lat="45.9926999" lon="12.7455582"><ele>39.0</ele><time>2026-04-12T16:50:10.324Z</time></trkpt><trkpt lat="45.992574" lon="12.7455871"><ele>39.0</ele><time>2026-04-12T16:50:11.324Z</time></trkpt><trkpt lat="45.9924447" lon="12.7456186"><ele>39.0</ele><time>2026-04-12T16:50:12.324Z</time></trkpt><trkpt lat="45.9923133" lon="12.7456511"><ele>39.0</ele><time>2026-04-12T16:50:13.324Z</time></trkpt><trkpt lat="45.9921811" lon="12.7456832"><ele>39.0</ele><time>2026-04-12T16:50:14.324Z</time></trkpt><trkpt lat="45.9920473" lon="12.7457172"><ele>39.0</ele><time>2026-04-12T16:50:15.324Z</time></trkpt><trkpt lat="45.9919132" lon="12.7457506"><ele>39.0</ele><time>2026-04-12T16:50:16.324Z</time></trkpt><trkpt lat="45.9917781" lon="12.7457821"><ele>39.0</ele><time>2026-04-12T16:50:17.326Z</time></trkpt><trkpt lat="45.9916427" lon="12.7458184"><ele>39.0</ele><time>2026-04-12T16:50:18.325Z</time></trkpt><trkpt lat="45.9915064" lon="12.7458494"><ele>39.25</ele><time>2026-04-12T16:50:19.325Z</time></trkpt><trkpt lat="45.9913764" lon="12.7458854"><ele>39.5</ele><time>2026-04-12T16:50:20.325Z</time></trkpt><trkpt lat="45.9912464" lon="12.7459163"><ele>39.75</ele><time>2026-04-12T16:50:21.324Z</time></trkpt><trkpt lat="45.9911158" lon="12.7459495"><ele>40.0</ele><time>2026-04-12T16:50:22.324Z</time></trkpt><trkpt lat="45.9909842" lon="12.745982"><ele>40.0</ele><time>2026-04-12T16:50:23.324Z</time></trkpt><trkpt lat="45.9908512" lon="12.7460164"><ele>40.0</ele><time>2026-04-12T16:50:24.324Z</time></trkpt><trkpt lat="45.9907169" lon="12.7460501"><ele>40.0</ele><time>2026-04-12T16:50:25.324Z</time></trkpt><trkpt lat="45.990585" lon="12.7460892"><ele>40.0</ele><time>2026-04-12T16:50:26.324Z</time></trkpt><trkpt lat="45.9904522" lon="12.746128"><ele>40.0</ele><time>2026-04-12T16:50:27.325Z</time></trkpt><trkpt lat="45.9903206" lon="12.7461605"><ele>40.0</ele><time>2026-04-12T16:50:28.324Z</time></trkpt><trkpt lat="45.9901916" lon="12.7461924"><ele>40.0</ele><time>2026-04-12T16:50:29.325Z</time></trkpt><trkpt lat="45.9900636" lon="12.7462263"><ele>40.0</ele><time>2026-04-12T16:50:30.325Z</time></trkpt><trkpt lat="45.9899352" lon="12.7462598"><ele>40.0</ele><time>2026-04-12T16:50:31.325Z</time></trkpt><trkpt lat="45.9898063" lon="12.7462921"><ele>40.0</ele><time>2026-04-12T16:50:32.324Z</time></trkpt><trkpt lat="45.9896772" lon="12.7463258"><ele>40.0</ele><time>2026-04-12T16:50:33.325Z</time></trkpt><trkpt lat="45.989547" lon="12.7463588"><ele>40.0</ele><time>2026-04-12T16:50:34.324Z</time></trkpt><trkpt lat="45.9894141" lon="12.746395"><ele>40.0</ele><time>2026-04-12T16:50:35.325Z</time></trkpt><trkpt lat="45.9892815" lon="12.7464303"><ele>40.0</ele><time>2026-04-12T16:50:36.325Z</time></trkpt><trkpt lat="45.989147" lon="12.7464682"><ele>40.0</ele><time>2026-04-12T16:50:37.325Z</time></trkpt><trkpt lat="45.9890139" lon="12.7465067"><ele>40.0</ele><time>2026-04-12T16:50:38.325Z</time></trkpt><trkpt lat="45.9888777" lon="12.7465402"><ele>39.0</ele><time>2026-04-12T16:50:39.324Z</time></trkpt><trkpt lat="45.9887447" lon="12.7465777"><ele>38.0</ele><time>2026-04-12T16:50:40.325Z</time></trkpt><trkpt lat="45.9886109" lon="12.7466139"><ele>37.0</ele><time>2026-04-12T16:50:41.325Z</time></trkpt><trkpt lat="45.9884785" lon="12.7466513"><ele>36.0</ele><time>2026-04-12T16:50:42.325Z</time></trkpt><trkpt lat="45.9883451" lon="12.7466882"><ele>36.0</ele><time>2026-04-12T16:50:43.325Z</time></trkpt><trkpt lat="45.9882109" lon="12.7467266"><ele>36.0</ele><time>2026-04-12T16:50:44.325Z</time></trkpt><trkpt lat="45.9880759" lon="12.7467658"><ele>36.0</ele><time>2026-04-12T16:50:45.326Z</time></trkpt><trkpt lat="45.987942" lon="12.7468041"><ele>36.0</ele><time>2026-04-12T16:50:46.325Z</time></trkpt><trkpt lat="45.9878105" lon="12.7468421"><ele>36.0</ele><time>2026-04-12T16:50:47.325Z</time></trkpt><trkpt lat="45.9876858" lon="12.7468729"><ele>36.0</ele><time>2026-04-12T16:50:48.324Z</time></trkpt><trkpt lat="45.9875656" lon="12.7469072"><ele>36.0</ele><time>2026-04-12T16:50:49.324Z</time></trkpt><trkpt lat="45.9874402" lon="12.7469391"><ele>36.0</ele><time>2026-04-12T16:50:50.324Z</time></trkpt><trkpt lat="45.9873134" lon="12.7469633"><ele>36.0</ele><time>2026-04-12T16:50:51.325Z</time></trkpt><trkpt lat="45.9871871" lon="12.7469857"><ele>36.0</ele><time>2026-04-12T16:50:52.325Z</time></trkpt><trkpt lat="45.9870654" lon="12.7470147"><ele>36.0</ele><time>2026-04-12T16:50:53.325Z</time></trkpt><trkpt lat="45.9869484" lon="12.7470492"><ele>36.0</ele><time>2026-04-12T16:50:54.325Z</time></trkpt><trkpt lat="45.9868374" lon="12.7470857"><ele>36.0</ele><time>2026-04-12T16:50:55.325Z</time></trkpt><trkpt lat="45.9867371" lon="12.7471274"><ele>36.0</ele><time>2026-04-12T16:50:56.325Z</time></trkpt><trkpt lat="45.9866412" lon="12.7471803"><ele>36.0</ele><time>2026-04-12T16:50:57.325Z</time></trkpt><trkpt lat="45.986549" lon="12.747247"><ele>36.0</ele><time>2026-04-12T16:50:58.325Z</time></trkpt><trkpt lat="45.9864558" lon="12.7473319"><ele>36.0</ele><time>2026-04-12T16:50:59.325Z</time></trkpt><trkpt lat="45.9863671" lon="12.747432"><ele>36.25</ele><time>2026-04-12T16:51:00.325Z</time></trkpt><trkpt lat="45.9862828" lon="12.7475417"><ele>36.5</ele><time>2026-04-12T16:51:01.325Z</time></trkpt><trkpt lat="45.9861983" lon="12.7476543"><ele>36.75</ele><time>2026-04-12T16:51:02.325Z</time></trkpt><trkpt lat="45.9861129" lon="12.7477628"><ele>37.0</ele><time>2026-04-12T16:51:03.325Z</time></trkpt><trkpt lat="45.9860223" lon="12.7478631"><ele>37.0</ele><time>2026-04-12T16:51:04.325Z</time></trkpt><trkpt lat="45.985926" lon="12.7479575"><ele>37.0</ele><time>2026-04-12T16:51:05.325Z</time></trkpt><trkpt lat="45.9858301" lon="12.7480476"><ele>37.0</ele><time>2026-04-12T16:51:06.325Z</time></trkpt><trkpt lat="45.9857379" lon="12.7481288"><ele>37.0</ele><time>2026-04-12T16:51:07.326Z</time></trkpt><trkpt lat="45.9856411" lon="12.7482043"><ele>37.0</ele><time>2026-04-12T16:51:08.325Z</time></trkpt><trkpt lat="45.9855347" lon="12.7482596"><ele>36.25</ele><time>2026-04-12T16:51:09.325Z</time></trkpt><trkpt lat="45.9854245" lon="12.7483084"><ele>35.5</ele><time>2026-04-12T16:51:10.324Z</time></trkpt><trkpt lat="45.9853095" lon="12.7483573"><ele>34.75</ele><time>2026-04-12T16:51:11.325Z</time></trkpt><trkpt lat="45.9851948" lon="12.7484069"><ele>34.0</ele><time>2026-04-12T16:51:12.325Z</time></trkpt><trkpt lat="45.9850793" lon="12.7484539"><ele>34.0</ele><time>2026-04-12T16:51:13.325Z</time></trkpt><trkpt lat="45.9849631" lon="12.7485062"><ele>34.0</ele><time>2026-04-12T16:51:14.325Z</time></trkpt><trkpt lat="45.9848514" lon="12.7485584"><ele>34.0</ele><time>2026-04-12T16:51:15.325Z</time></trkpt><trkpt lat="45.9847395" lon="12.7486057"><ele>34.0</ele><time>2026-04-12T16:51:16.325Z</time></trkpt><trkpt lat="45.984627" lon="12.7486501"><ele>34.0</ele><time>2026-04-12T16:51:17.325Z</time></trkpt><trkpt lat="45.9845124" lon="12.7486806"><ele>34.0</ele><time>2026-04-12T16:51:18.325Z</time></trkpt><trkpt lat="45.9843949" lon="12.7486929"><ele>34.0</ele><time>2026-04-12T16:51:19.325Z</time></trkpt><trkpt lat="45.9842748" lon="12.7486896"><ele>34.0</ele><time>2026-04-12T16:51:20.325Z</time></trkpt><trkpt lat="45.9841501" lon="12.7486873"><ele>34.0</ele><time>2026-04-12T16:51:21.325Z</time></trkpt><trkpt lat="45.9840251" lon="12.7486791"><ele>34.0</ele><time>2026-04-12T16:51:22.324Z</time></trkpt><trkpt lat="45.9838998" lon="12.7486689"><ele>34.0</ele><time>2026-04-12T16:51:23.324Z</time></trkpt><trkpt lat="45.9837776" lon="12.7486726"><ele>34.0</ele><time>2026-04-12T16:51:24.325Z</time></trkpt><trkpt lat="45.9836602" lon="12.7486723"><ele>34.0</ele><time>2026-04-12T16:51:25.325Z</time></trkpt><trkpt lat="45.9835414" lon="12.7486741"><ele>34.0</ele><time>2026-04-12T16:51:26.325Z</time></trkpt><trkpt lat="45.9834204" lon="12.748677"><ele>34.0</ele><time>2026-04-12T16:51:27.326Z</time></trkpt><trkpt lat="45.9833095" lon="12.748675"><ele>34.0</ele><time>2026-04-12T16:51:28.325Z</time></trkpt><trkpt lat="45.9832055" lon="12.7486768"><ele>34.16666666666667</ele><time>2026-04-12T16:51:29.325Z</time></trkpt><trkpt lat="45.9831144" lon="12.7486673"><ele>34.333333333333336</ele><time>2026-04-12T16:51:30.325Z</time></trkpt><trkpt lat="45.9830349" lon="12.7486515"><ele>34.5</ele><time>2026-04-12T16:51:31.324Z</time></trkpt><trkpt lat="45.9829583" lon="12.7486238"><ele>34.666666666666664</ele><time>2026-04-12T16:51:32.325Z</time></trkpt><trkpt lat="45.9828819" lon="12.7485857"><ele>34.83333333333333</ele><time>2026-04-12T16:51:33.325Z</time></trkpt><trkpt lat="45.9828146" lon="12.7485475"><ele>35.0</ele><time>2026-04-12T16:51:34.325Z</time></trkpt><trkpt lat="45.982694" lon="12.7485226"><ele>35.0</ele><time>2026-04-12T16:51:36.325Z</time></trkpt><trkpt lat="45.9826319" lon="12.7485429"><ele>35.0</ele><time>2026-04-12T16:51:37.325Z</time></trkpt><trkpt lat="45.9825371" lon="12.7486136"><ele>35.0</ele><time>2026-04-12T16:51:39.324Z</time></trkpt><trkpt lat="45.9824573" lon="12.7486277"><ele>35.0</ele><time>2026-04-12T16:51:41.325Z</time></trkpt><trkpt lat="45.9823988" lon="12.7485418"><ele>35.0</ele><time>2026-04-12T16:51:43.325Z</time></trkpt><trkpt lat="45.9823693" lon="12.7484595"><ele>35.0</ele><time>2026-04-12T16:51:44.325Z</time></trkpt><trkpt lat="45.9823409" lon="12.7483419"><ele>34.6</ele><time>2026-04-12T16:51:45.324Z</time></trkpt><trkpt lat="45.9823065" lon="12.7482176"><ele>34.2</ele><time>2026-04-12T16:51:46.324Z</time></trkpt><trkpt lat="45.9822663" lon="12.7481035"><ele>33.8</ele><time>2026-04-12T16:51:47.325Z</time></trkpt><trkpt lat="45.9822188" lon="12.7479836"><ele>33.4</ele><time>2026-04-12T16:51:48.325Z</time></trkpt><trkpt lat="45.9821661" lon="12.747855"><ele>33.0</ele><time>2026-04-12T16:51:49.325Z</time></trkpt><trkpt lat="45.9821106" lon="12.7477114"><ele>32.8</ele><time>2026-04-12T16:51:50.325Z</time></trkpt><trkpt lat="45.9820535" lon="12.7475676"><ele>32.599999999999994</ele><time>2026-04-12T16:51:51.324Z</time></trkpt><trkpt lat="45.9820012" lon="12.7474372"><ele>32.400000000000006</ele><time>2026-04-12T16:51:52.324Z</time></trkpt><trkpt lat="45.9819492" lon="12.7473073"><ele>32.2</ele><time>2026-04-12T16:51:53.325Z</time></trkpt><trkpt lat="45.9818933" lon="12.7471698"><ele>32.0</ele><time>2026-04-12T16:51:54.325Z</time></trkpt><trkpt lat="45.98184" lon="12.7470289"><ele>32.0</ele><time>2026-04-12T16:51:55.325Z</time></trkpt><trkpt lat="45.981786" lon="12.7468877"><ele>32.0</ele><time>2026-04-12T16:51:56.324Z</time></trkpt><trkpt lat="45.9817325" lon="12.7467507"><ele>32.0</ele><time>2026-04-12T16:51:57.324Z</time></trkpt><trkpt lat="45.9816779" lon="12.7466212"><ele>32.0</ele><time>2026-04-12T16:51:58.324Z</time></trkpt><trkpt lat="45.9816267" lon="12.7464875"><ele>32.0</ele><time>2026-04-12T16:51:59.324Z</time></trkpt><trkpt lat="45.9815772" lon="12.7463555"><ele>31.8</ele><time>2026-04-12T16:52:00.325Z</time></trkpt><trkpt lat="45.9815281" lon="12.7462262"><ele>31.6</ele><time>2026-04-12T16:52:01.325Z</time></trkpt><trkpt lat="45.9814781" lon="12.746092"><ele>31.400000000000002</ele><time>2026-04-12T16:52:02.325Z</time></trkpt><trkpt lat="45.9814283" lon="12.7459588"><ele>31.200000000000003</ele><time>2026-04-12T16:52:03.324Z</time></trkpt><trkpt lat="45.9813806" lon="12.7458247"><ele>31.0</ele><time>2026-04-12T16:52:04.325Z</time></trkpt><trkpt lat="45.9813356" lon="12.7456899"><ele>31.200000000000003</ele><time>2026-04-12T16:52:05.325Z</time></trkpt><trkpt lat="45.9812908" lon="12.7455572"><ele>31.400000000000002</ele><time>2026-04-12T16:52:06.325Z</time></trkpt><trkpt lat="45.9812531" lon="12.745434"><ele>31.6</ele><time>2026-04-12T16:52:07.325Z</time></trkpt><trkpt lat="45.9812172" lon="12.745314"><ele>31.8</ele><time>2026-04-12T16:52:08.324Z</time></trkpt><trkpt lat="45.9811743" lon="12.7452041"><ele>32.0</ele><time>2026-04-12T16:52:09.324Z</time></trkpt><trkpt lat="45.9811221" lon="12.745116"><ele>32.0</ele><time>2026-04-12T16:52:10.325Z</time></trkpt><trkpt lat="45.9810665" lon="12.7450522"><ele>31.999999999999996</ele><time>2026-04-12T16:52:11.325Z</time></trkpt><trkpt lat="45.9810107" lon="12.7450058"><ele>32.0</ele><time>2026-04-12T16:52:12.325Z</time></trkpt><trkpt lat="45.9809497" lon="12.7449611"><ele>32.0</ele><time>2026-04-12T16:52:13.325Z</time></trkpt><trkpt lat="45.9808922" lon="12.7449241"><ele>31.999999999999996</ele><time>2026-04-12T16:52:14.325Z</time></trkpt><trkpt lat="45.9808121" lon="12.7448485"><ele>32.0</ele><time>2026-04-12T16:52:16.325Z</time></trkpt><trkpt lat="45.9807386" lon="12.7448481"><ele>32.0</ele><time>2026-04-12T16:52:19.325Z</time></trkpt><trkpt lat="45.9806969" lon="12.7449373"><ele>31.8</ele><time>2026-04-12T16:52:21.325Z</time></trkpt><trkpt lat="45.9806722" lon="12.7450789"><ele>31.6</ele><time>2026-04-12T16:52:23.324Z</time></trkpt><trkpt lat="45.9806713" lon="12.7452552"><ele>31.400000000000002</ele><time>2026-04-12T16:52:25.324Z</time></trkpt><trkpt lat="45.9806723" lon="12.7453499"><ele>31.200000000000003</ele><time>2026-04-12T16:52:26.324Z</time></trkpt><trkpt lat="45.9806398" lon="12.7455352"><ele>31.0</ele><time>2026-04-12T16:52:28.325Z</time></trkpt><trkpt lat="45.9805998" lon="12.7456295"><ele>31.000000000000004</ele><time>2026-04-12T16:52:29.326Z</time></trkpt><trkpt lat="45.9805525" lon="12.7457214"><ele>31.0</ele><time>2026-04-12T16:52:30.325Z</time></trkpt><trkpt lat="45.9805025" lon="12.7458108"><ele>31.0</ele><time>2026-04-12T16:52:31.326Z</time></trkpt><trkpt lat="45.980451" lon="12.7459034"><ele>31.0</ele><time>2026-04-12T16:52:32.324Z</time></trkpt><trkpt lat="45.9804024" lon="12.7459839"><ele>31.000000000000004</ele><time>2026-04-12T16:52:33.324Z</time></trkpt><trkpt lat="45.9803537" lon="12.7460693"><ele>31.0</ele><time>2026-04-12T16:52:34.325Z</time></trkpt><trkpt lat="45.9802989" lon="12.7461634"><ele>31.166666666666668</ele><time>2026-04-12T16:52:35.325Z</time></trkpt><trkpt lat="45.9802419" lon="12.746245"><ele>31.333333333333336</ele><time>2026-04-12T16:52:36.324Z</time></trkpt><trkpt lat="45.9801852" lon="12.7463267"><ele>31.5</ele><time>2026-04-12T16:52:37.324Z</time></trkpt><trkpt lat="45.9801276" lon="12.7464139"><ele>31.666666666666664</ele><time>2026-04-12T16:52:38.325Z</time></trkpt><trkpt lat="45.9800779" lon="12.7464997"><ele>31.833333333333332</ele><time>2026-04-12T16:52:39.325Z</time></trkpt><trkpt lat="45.9800364" lon="12.746581"><ele>32.0</ele><time>2026-04-12T16:52:40.324Z</time></trkpt><trkpt lat="45.9799775" lon="12.7467262"><ele>32.0</ele><time>2026-04-12T16:52:42.325Z</time></trkpt><trkpt lat="45.9799528" lon="12.7469022"><ele>32.0</ele><time>2026-04-12T16:52:44.325Z</time></trkpt><trkpt lat="45.9799745" lon="12.7470767"><ele>32.0</ele><time>2026-04-12T16:52:46.324Z</time></trkpt><trkpt lat="45.9799985" lon="12.7471745"><ele>32.0</ele><time>2026-04-12T16:52:47.324Z</time></trkpt><trkpt lat="45.9800206" lon="12.7472656"><ele>32.0</ele><time>2026-04-12T16:52:48.325Z</time></trkpt><trkpt lat="45.9800502" lon="12.7474349"><ele>32.0</ele><time>2026-04-12T16:52:50.325Z</time></trkpt><trkpt lat="45.9800504" lon="12.7475866"><ele>32.0</ele><time>2026-04-12T16:52:52.324Z</time></trkpt><trkpt lat="45.9800392" lon="12.7477373"><ele>32.0</ele><time>2026-04-12T16:52:54.325Z</time></trkpt><trkpt lat="45.9799833" lon="12.7478528"><ele>32.0</ele><time>2026-04-12T16:52:56.325Z</time></trkpt><trkpt lat="45.9798761" lon="12.7479086"><ele>32.0</ele><time>2026-04-12T16:52:58.325Z</time></trkpt><trkpt lat="45.9798135" lon="12.7479235"><ele>32.2</ele><time>2026-04-12T16:52:59.325Z</time></trkpt><trkpt lat="45.979694" lon="12.7479407"><ele>32.400000000000006</ele><time>2026-04-12T16:53:01.325Z</time></trkpt><trkpt lat="45.9795951" lon="12.747941"><ele>32.599999999999994</ele><time>2026-04-12T16:53:03.325Z</time></trkpt><trkpt lat="45.979513" lon="12.7479345"><ele>32.8</ele><time>2026-04-12T16:53:05.324Z</time></trkpt><trkpt lat="45.9794555" lon="12.7478855"><ele>33.0</ele><time>2026-04-12T16:53:07.325Z</time></trkpt><trkpt lat="45.979434" lon="12.7477655"><ele>32.833333333333336</ele><time>2026-04-12T16:53:10.324Z</time></trkpt><trkpt lat="45.9794313" lon="12.7476402"><ele>32.666666666666664</ele><time>2026-04-12T16:53:31.324Z</time></trkpt><trkpt lat="45.9794351" lon="12.7475384"><ele>32.5</ele><time>2026-04-12T16:53:33.324Z</time></trkpt><trkpt lat="45.9793893" lon="12.747454"><ele>32.33333333333333</ele><time>2026-04-12T16:53:35.325Z</time></trkpt><trkpt lat="45.9793264" lon="12.7473714"><ele>32.166666666666664</ele><time>2026-04-12T16:53:37.325Z</time></trkpt><trkpt lat="45.979319" lon="12.7472404"><ele>32.0</ele><time>2026-04-12T16:53:39.325Z</time></trkpt><trkpt lat="45.9793367" lon="12.7470933"><ele>32.0</ele><time>2026-04-12T16:53:41.325Z</time></trkpt><trkpt lat="45.9793562" lon="12.7469215"><ele>32.0</ele><time>2026-04-12T16:53:43.325Z</time></trkpt><trkpt lat="45.9793862" lon="12.7467603"><ele>32.0</ele><time>2026-04-12T16:53:45.326Z</time></trkpt><trkpt lat="45.9794062" lon="12.7466114"><ele>32.0</ele><time>2026-04-12T16:53:47.325Z</time></trkpt><trkpt lat="45.97941" lon="12.7465041"><ele>32.0</ele><time>2026-04-12T16:53:48.325Z</time></trkpt><trkpt lat="45.979405" lon="12.7464031"><ele>31.666666666666664</ele><time>2026-04-12T16:53:49.325Z</time></trkpt><trkpt lat="45.9793901" lon="12.7462881"><ele>31.333333333333332</ele><time>2026-04-12T16:53:50.324Z</time></trkpt><trkpt lat="45.979388" lon="12.7461793"><ele>31.0</ele><time>2026-04-12T16:53:51.324Z</time></trkpt><trkpt lat="45.9793763" lon="12.74605"><ele>30.666666666666664</ele><time>2026-04-12T16:53:52.325Z</time></trkpt><trkpt lat="45.9793742" lon="12.745924"><ele>30.333333333333332</ele><time>2026-04-12T16:53:53.324Z</time></trkpt><trkpt lat="45.9793715" lon="12.7458007"><ele>30.0</ele><time>2026-04-12T16:53:54.324Z</time></trkpt><trkpt lat="45.9793726" lon="12.7456766"><ele>29.833333333333332</ele><time>2026-04-12T16:53:55.325Z</time></trkpt><trkpt lat="45.9793736" lon="12.7455788"><ele>29.666666666666664</ele><time>2026-04-12T16:53:56.325Z</time></trkpt><trkpt lat="45.9793699" lon="12.7454825"><ele>29.5</ele><time>2026-04-12T16:53:57.324Z</time></trkpt><trkpt lat="45.9793515" lon="12.7453175"><ele>29.333333333333332</ele><time>2026-04-12T16:53:59.325Z</time></trkpt><trkpt lat="45.9793168" lon="12.7451792"><ele>29.166666666666664</ele><time>2026-04-12T16:54:01.325Z</time></trkpt><trkpt lat="45.9792792" lon="12.7450661"><ele>29.0</ele><time>2026-04-12T16:54:03.325Z</time></trkpt><trkpt lat="45.9792141" lon="12.7450321"><ele>29.0</ele><time>2026-04-12T16:54:05.325Z</time></trkpt><trkpt lat="45.9791735" lon="12.7451651"><ele>29.0</ele><time>2026-04-12T16:54:08.325Z</time></trkpt><trkpt lat="45.9791918" lon="12.7453152"><ele>29.0</ele><time>2026-04-12T16:54:10.325Z</time></trkpt><trkpt lat="45.9791996" lon="12.7454619"><ele>29.0</ele><time>2026-04-12T16:54:12.324Z</time></trkpt><trkpt lat="45.9791937" lon="12.7455773"><ele>29.0</ele><time>2026-04-12T16:54:14.325Z</time></trkpt><trkpt lat="45.9791478" lon="12.7456423"><ele>28.999999999999996</ele><time>2026-04-12T16:54:16.324Z</time></trkpt><trkpt lat="45.9790669" lon="12.7456794"><ele>29.0</ele><time>2026-04-12T16:54:18.325Z</time></trkpt><trkpt lat="45.9790035" lon="12.7457327"><ele>29.0</ele><time>2026-04-12T16:54:20.325Z</time></trkpt><trkpt lat="45.9789674" lon="12.7458311"><ele>29.0</ele><time>2026-04-12T16:54:22.325Z</time></trkpt><trkpt lat="45.9789412" lon="12.745957"><ele>28.999999999999996</ele><time>2026-04-12T16:54:24.325Z</time></trkpt><trkpt lat="45.9788934" lon="12.7460883"><ele>29.0</ele><time>2026-04-12T16:54:26.325Z</time></trkpt><trkpt lat="45.9788182" lon="12.7460877"><ele>28.999999999999996</ele><time>2026-04-12T16:54:28.325Z</time></trkpt><trkpt lat="45.9787888" lon="12.7460009"><ele>29.0</ele><time>2026-04-12T16:54:30.325Z</time></trkpt><trkpt lat="45.9788081" lon="12.7458626"><ele>29.0</ele><time>2026-04-12T16:54:32.324Z</time></trkpt><trkpt lat="45.9788215" lon="12.7457464"><ele>29.0</ele><time>2026-04-12T16:54:34.326Z</time></trkpt><trkpt lat="45.9788645" lon="12.7456598"><ele>28.999999999999996</ele><time>2026-04-12T16:54:36.324Z</time></trkpt><trkpt lat="45.9789327" lon="12.7455704"><ele>29.0</ele><time>2026-04-12T16:54:38.325Z</time></trkpt><trkpt lat="45.9789975" lon="12.7454889"><ele>28.999999999999996</ele><time>2026-04-12T16:54:40.325Z</time></trkpt><trkpt lat="45.9790015" lon="12.7453887"><ele>29.0</ele><time>2026-04-12T16:54:42.324Z</time></trkpt><trkpt lat="45.9789133" lon="12.7454193"><ele>29.0</ele><time>2026-04-12T16:54:45.326Z</time></trkpt><trkpt lat="45.9788754" lon="12.7455196"><ele>29.0</ele><time>2026-04-12T16:54:47.325Z</time></trkpt><trkpt lat="45.9788005" lon="12.7455771"><ele>28.999999999999996</ele><time>2026-04-12T16:54:49.326Z</time></trkpt><trkpt lat="45.9787168" lon="12.7455851"><ele>29.0</ele><time>2026-04-12T16:54:51.324Z</time></trkpt><trkpt lat="45.9786376" lon="12.7455665"><ele>29.000000000000004</ele><time>2026-04-12T16:54:53.325Z</time></trkpt><trkpt lat="45.9785689" lon="12.7455599"><ele>29.0</ele><time>2026-04-12T16:54:55.325Z</time></trkpt><trkpt lat="45.978491" lon="12.7455388"><ele>29.000000000000004</ele><time>2026-04-12T16:54:57.325Z</time></trkpt><trkpt lat="45.9784261" lon="12.745493"><ele>29.000000000000004</ele><time>2026-04-12T16:54:59.324Z</time></trkpt><trkpt lat="45.9784067" lon="12.7453821"><ele>29.0</ele><time>2026-04-12T16:55:02.325Z</time></trkpt><trkpt lat="45.978458" lon="12.7453257"><ele>29.000000000000004</ele><time>2026-04-12T16:55:05.324Z</time></trkpt><trkpt lat="45.9785318" lon="12.7453145"><ele>29.000000000000004</ele><time>2026-04-12T16:55:07.325Z</time></trkpt><trkpt lat="45.9786166" lon="12.7452996"><ele>28.999999999999996</ele><time>2026-04-12T16:55:09.325Z</time></trkpt><trkpt lat="45.9787102" lon="12.7452808"><ele>29.0</ele><time>2026-04-12T16:55:11.324Z</time></trkpt><trkpt lat="45.9788068" lon="12.7452724"><ele>29.0</ele><time>2026-04-12T16:55:13.325Z</time></trkpt><trkpt lat="45.9788954" lon="12.7452594"><ele>29.0</ele><time>2026-04-12T16:55:15.325Z</time></trkpt><trkpt lat="45.9789699" lon="12.7452168"><ele>28.999999999999996</ele><time>2026-04-12T16:55:17.325Z</time></trkpt><trkpt lat="45.9790294" lon="12.7451323"><ele>29.0</ele><time>2026-04-12T16:55:19.325Z</time></trkpt><trkpt lat="45.9790442" lon="12.7450169"><ele>28.833333333333332</ele><time>2026-04-12T16:55:21.325Z</time></trkpt><trkpt lat="45.9790173" lon="12.7448824"><ele>28.666666666666664</ele><time>2026-04-12T16:55:23.325Z</time></trkpt><trkpt lat="45.9790492" lon="12.7447708"><ele>28.5</ele><time>2026-04-12T16:55:25.325Z</time></trkpt><trkpt lat="45.9791171" lon="12.7447342"><ele>28.333333333333336</ele><time>2026-04-12T16:55:27.325Z</time></trkpt><trkpt lat="45.9791854" lon="12.7447503"><ele>28.166666666666668</ele><time>2026-04-12T16:55:29.324Z</time></trkpt><trkpt lat="45.9792444" lon="12.7447063"><ele>28.0</ele><time>2026-04-12T16:55:31.325Z</time></trkpt><trkpt lat="45.9792686" lon="12.7446067"><ele>28.000000000000004</ele><time>2026-04-12T16:55:33.326Z</time></trkpt><trkpt lat="45.9792288" lon="12.7445151"><ele>28.0</ele><time>2026-04-12T16:55:34.325Z</time></trkpt><trkpt lat="45.9791606" lon="12.7444353"><ele>28.0</ele><time>2026-04-12T16:55:36.325Z</time></trkpt><trkpt lat="45.9790883" lon="12.7444374"><ele>28.0</ele><time>2026-04-12T16:55:38.325Z</time></trkpt><trkpt lat="45.9790353" lon="12.7445126"><ele>28.000000000000004</ele><time>2026-04-12T16:55:40.325Z</time></trkpt><trkpt lat="45.97897" lon="12.7445869"><ele>28.0</ele><time>2026-04-12T16:55:42.326Z</time></trkpt><trkpt lat="45.9789248" lon="12.7446755"><ele>28.799999999999997</ele><time>2026-04-12T16:55:44.324Z</time></trkpt><trkpt lat="45.9788991" lon="12.7447935"><ele>29.599999999999998</ele><time>2026-04-12T16:55:46.325Z</time></trkpt><trkpt lat="45.9788644" lon="12.744914"><ele>30.400000000000002</ele><time>2026-04-12T16:55:48.325Z</time></trkpt><trkpt lat="45.9788018" lon="12.7450321"><ele>31.200000000000003</ele><time>2026-04-12T16:55:50.324Z</time></trkpt><trkpt lat="45.9787155" lon="12.7450915"><ele>32.0</ele><time>2026-04-12T16:55:52.325Z</time></trkpt><trkpt lat="45.9786045" lon="12.7451336"><ele>32.0</ele><time>2026-04-12T16:55:54.324Z</time></trkpt><trkpt lat="45.9785059" lon="12.7451726"><ele>32.0</ele><time>2026-04-12T16:55:56.325Z</time></trkpt><trkpt lat="45.9784033" lon="12.745227"><ele>32.0</ele><time>2026-04-12T16:55:58.325Z</time></trkpt><trkpt lat="45.978304" lon="12.7452929"><ele>32.0</ele><time>2026-04-12T16:56:00.325Z</time></trkpt><trkpt lat="45.9782486" lon="12.7454005"><ele>32.0</ele><time>2026-04-12T16:56:02.325Z</time></trkpt><trkpt lat="45.9782276" lon="12.7455441"><ele>32.2</ele><time>2026-04-12T16:56:04.324Z</time></trkpt><trkpt lat="45.9782362" lon="12.7456669"><ele>32.400000000000006</ele><time>2026-04-12T16:56:06.325Z</time></trkpt><trkpt lat="45.978264" lon="12.7458125"><ele>32.599999999999994</ele><time>2026-04-12T16:56:08.325Z</time></trkpt><trkpt lat="45.9782713" lon="12.7459507"><ele>32.8</ele><time>2026-04-12T16:56:10.325Z</time></trkpt><trkpt lat="45.9782811" lon="12.7461109"><ele>33.0</ele><time>2026-04-12T16:56:12.324Z</time></trkpt><trkpt lat="45.9783066" lon="12.7462688"><ele>32.6</ele><time>2026-04-12T16:56:14.326Z</time></trkpt><trkpt lat="45.978319" lon="12.7464186"><ele>32.199999999999996</ele><time>2026-04-12T16:56:16.324Z</time></trkpt><trkpt lat="45.9783602" lon="12.7465384"><ele>31.8</ele><time>2026-04-12T16:56:18.325Z</time></trkpt><trkpt lat="45.9784151" lon="12.7466396"><ele>31.4</ele><time>2026-04-12T16:56:20.325Z</time></trkpt><trkpt lat="45.9785061" lon="12.7467415"><ele>31.0</ele><time>2026-04-12T16:56:22.326Z</time></trkpt><trkpt lat="45.9785889" lon="12.7468507"><ele>30.6</ele><time>2026-04-12T16:56:24.326Z</time></trkpt><trkpt lat="45.9786495" lon="12.7469885"><ele>30.200000000000003</ele><time>2026-04-12T16:56:26.324Z</time></trkpt><trkpt lat="45.9787288" lon="12.7470711"><ele>29.799999999999997</ele><time>2026-04-12T16:56:28.325Z</time></trkpt><trkpt lat="45.9788103" lon="12.7471408"><ele>29.4</ele><time>2026-04-12T16:56:30.325Z</time></trkpt><trkpt lat="45.9788823" lon="12.7471429"><ele>29.0</ele><time>2026-04-12T16:56:33.324Z</time></trkpt><trkpt lat="45.978959" lon="12.7470875"><ele>28.999999999999996</ele><time>2026-04-12T16:56:37.326Z</time></trkpt><trkpt lat="45.9790201" lon="12.7470641"><ele>29.0</ele><time>2026-04-12T16:56:39.325Z</time></trkpt><trkpt lat="45.9790879" lon="12.7471185"><ele>29.0</ele><time>2026-04-12T16:56:41.326Z</time></trkpt><trkpt lat="45.9791263" lon="12.7472311"><ele>29.0</ele><time>2026-04-12T16:56:43.324Z</time></trkpt><trkpt lat="45.9791175" lon="12.7473601"><ele>28.999999999999996</ele><time>2026-04-12T16:56:45.325Z</time></trkpt><trkpt lat="45.9791135" lon="12.7474802"><ele>29.0</ele><time>2026-04-12T16:56:47.325Z</time></trkpt><trkpt lat="45.9791596" lon="12.747559"><ele>29.499999999999996</ele><time>2026-04-12T16:56:49.324Z</time></trkpt><trkpt lat="45.9792419" lon="12.7476439"><ele>30.0</ele><time>2026-04-12T16:56:51.324Z</time></trkpt><trkpt lat="45.9793276" lon="12.7476936"><ele>30.5</ele><time>2026-04-12T16:56:53.325Z</time></trkpt><trkpt lat="45.9793997" lon="12.7477165"><ele>31.0</ele><time>2026-04-12T16:56:55.325Z</time></trkpt><trkpt lat="45.9794398" lon="12.7478317"><ele>31.499999999999996</ele><time>2026-04-12T16:56:58.326Z</time></trkpt><trkpt lat="45.979487" lon="12.7479236"><ele>32.0</ele><time>2026-04-12T16:57:00.325Z</time></trkpt><trkpt lat="45.9795856" lon="12.7479526"><ele>32.0</ele><time>2026-04-12T16:57:02.325Z</time></trkpt><trkpt lat="45.9796994" lon="12.7479378"><ele>32.0</ele><time>2026-04-12T16:57:04.324Z</time></trkpt><trkpt lat="45.9797617" lon="12.7479195"><ele>32.0</ele><time>2026-04-12T16:57:05.325Z</time></trkpt><trkpt lat="45.9798761" lon="12.7479057"><ele>32.0</ele><time>2026-04-12T16:57:07.325Z</time></trkpt><trkpt lat="45.9799731" lon="12.7478597"><ele>32.0</ele><time>2026-04-12T16:57:09.325Z</time></trkpt><trkpt lat="45.9800325" lon="12.7477572"><ele>32.2</ele><time>2026-04-12T16:57:11.325Z</time></trkpt><trkpt lat="45.9800521" lon="12.7476098"><ele>32.400000000000006</ele><time>2026-04-12T16:57:13.324Z</time></trkpt><trkpt lat="45.9800588" lon="12.7474796"><ele>32.599999999999994</ele><time>2026-04-12T16:57:15.326Z</time></trkpt><trkpt lat="45.9801182" lon="12.7474066"><ele>32.8</ele><time>2026-04-12T16:57:18.325Z</time></trkpt><trkpt lat="45.9802014" lon="12.7473653"><ele>33.0</ele><time>2026-04-12T16:57:20.324Z</time></trkpt><trkpt lat="45.9802895" lon="12.7473442"><ele>33.0</ele><time>2026-04-12T16:57:22.325Z</time></trkpt><trkpt lat="45.980366" lon="12.7472814"><ele>33.0</ele><time>2026-04-12T16:57:24.325Z</time></trkpt><trkpt lat="45.9804414" lon="12.7472011"><ele>33.0</ele><time>2026-04-12T16:57:26.325Z</time></trkpt><trkpt lat="45.9805192" lon="12.7471826"><ele>33.0</ele><time>2026-04-12T16:57:29.325Z</time></trkpt><trkpt lat="45.980591" lon="12.7472464"><ele>33.0</ele><time>2026-04-12T16:57:31.325Z</time></trkpt><trkpt lat="45.9806644" lon="12.7473085"><ele>33.0</ele><time>2026-04-12T16:57:33.326Z</time></trkpt><trkpt lat="45.9807426" lon="12.7473505"><ele>33.0</ele><time>2026-04-12T16:57:35.324Z</time></trkpt><trkpt lat="45.9808038" lon="12.747377"><ele>33.0</ele><time>2026-04-12T16:57:37.324Z</time></trkpt><trkpt lat="45.9808798" lon="12.7473858"><ele>33.0</ele><time>2026-04-12T16:57:40.325Z</time></trkpt><trkpt lat="45.9809483" lon="12.7473561"><ele>33.0</ele><time>2026-04-12T16:57:42.324Z</time></trkpt><trkpt lat="45.9810137" lon="12.7474149"><ele>33.0</ele><time>2026-04-12T16:57:44.325Z</time></trkpt><trkpt lat="45.9810431" lon="12.7475161"><ele>33.0</ele><time>2026-04-12T16:57:46.325Z</time></trkpt><trkpt lat="45.9810397" lon="12.747612"><ele>33.0</ele><time>2026-04-12T16:57:50.325Z</time></trkpt><trkpt lat="45.9809818" lon="12.747731"><ele>33.0</ele><time>2026-04-12T16:57:53.325Z</time></trkpt><trkpt lat="45.9809329" lon="12.7478471"><ele>33.0</ele><time>2026-04-12T16:57:55.325Z</time></trkpt><trkpt lat="45.9808874" lon="12.7479566"><ele>33.0</ele><time>2026-04-12T16:57:57.325Z</time></trkpt><trkpt lat="45.9808779" lon="12.748055"><ele>33.0</ele><time>2026-04-12T16:57:59.325Z</time></trkpt><trkpt lat="45.9809286" lon="12.7481334"><ele>33.0</ele><time>2026-04-12T16:58:02.326Z</time></trkpt><trkpt lat="45.9809915" lon="12.7481229"><ele>33.0</ele><time>2026-04-12T16:58:04.325Z</time></trkpt><trkpt lat="45.9810553" lon="12.748082"><ele>33.0</ele><time>2026-04-12T16:58:06.325Z</time></trkpt><trkpt lat="45.9811464" lon="12.7480449"><ele>33.0</ele><time>2026-04-12T16:58:08.324Z</time></trkpt><trkpt lat="45.9812083" lon="12.7480816"><ele>33.0</ele><time>2026-04-12T16:58:10.325Z</time></trkpt><trkpt lat="45.9812367" lon="12.7481635"><ele>33.0</ele><time>2026-04-12T16:58:12.325Z</time></trkpt><trkpt lat="45.9812174" lon="12.7482825"><ele>33.0</ele><time>2026-04-12T16:58:14.324Z</time></trkpt><trkpt lat="45.9811581" lon="12.7484023"><ele>33.0</ele><time>2026-04-12T16:58:16.325Z</time></trkpt><trkpt lat="45.9810879" lon="12.7485021"><ele>33.14285714285714</ele><time>2026-04-12T16:58:18.325Z</time></trkpt><trkpt lat="45.9810275" lon="12.7485708"><ele>33.285714285714285</ele><time>2026-04-12T16:58:20.325Z</time></trkpt><trkpt lat="45.9809672" lon="12.7486307"><ele>33.42857142857143</ele><time>2026-04-12T16:58:23.326Z</time></trkpt><trkpt lat="45.9809223" lon="12.7487063"><ele>33.57142857142857</ele><time>2026-04-12T16:58:26.324Z</time></trkpt><trkpt lat="45.980867" lon="12.7487542"><ele>33.714285714285715</ele><time>2026-04-12T16:58:41.325Z</time></trkpt><trkpt lat="45.9807822" lon="12.7487606"><ele>33.857142857142854</ele><time>2026-04-12T16:58:59.324Z</time></trkpt><trkpt lat="45.9807229" lon="12.748707"><ele>34.0</ele><time>2026-04-12T16:59:06.331Z</time></trkpt><trkpt lat="45.9806492" lon="12.7486458"><ele>33.66666666666667</ele><time>2026-04-12T16:59:09.319Z</time></trkpt><trkpt lat="45.9805618" lon="12.748613"><ele>33.333333333333336</ele><time>2026-04-12T16:59:11.326Z</time></trkpt><trkpt lat="45.9804761" lon="12.7485773"><ele>33.0</ele><time>2026-04-12T16:59:13.321Z</time></trkpt><trkpt lat="45.9803891" lon="12.7485325"><ele>32.666666666666664</ele><time>2026-04-12T16:59:15.327Z</time></trkpt><trkpt lat="45.9803104" lon="12.7484917"><ele>32.33333333333333</ele><time>2026-04-12T16:59:18.318Z</time></trkpt><trkpt lat="45.9802342" lon="12.7484507"><ele>32.0</ele><time>2026-04-12T16:59:21.325Z</time></trkpt><trkpt lat="45.9801528" lon="12.7484194"><ele>32.0</ele><time>2026-04-12T16:59:24.323Z</time></trkpt><trkpt lat="45.9800838" lon="12.748382"><ele>31.999999999999996</ele><time>2026-04-12T16:59:32.329Z</time></trkpt><trkpt lat="45.9800151" lon="12.7483738"><ele>32.0</ele><time>2026-04-12T16:59:35.323Z</time></trkpt><trkpt lat="45.9799416" lon="12.7483884"><ele>32.0</ele><time>2026-04-12T16:59:37.326Z</time></trkpt><trkpt lat="45.9798695" lon="12.7484014"><ele>31.999999999999996</ele><time>2026-04-12T16:59:40.325Z</time></trkpt><trkpt lat="45.9797975" lon="12.7483696"><ele>32.0</ele><time>2026-04-12T16:59:43.319Z</time></trkpt><trkpt lat="45.9797421" lon="12.7483239"><ele>32.0</ele><time>2026-04-12T16:59:46.327Z</time></trkpt><trkpt lat="45.9796629" lon="12.7482779"><ele>32.166666666666664</ele><time>2026-04-12T16:59:59.33Z</time></trkpt><trkpt lat="45.9795953" lon="12.7482394"><ele>32.33333333333333</ele><time>2026-04-12T17:00:02.326Z</time></trkpt><trkpt lat="45.9795389" lon="12.7481708"><ele>32.5</ele><time>2026-04-12T17:00:20.328Z</time></trkpt><trkpt lat="45.9795338" lon="12.7480686"><ele>32.666666666666664</ele><time>2026-04-12T17:00:44.318Z</time></trkpt><trkpt lat="45.9795637" lon="12.7479502"><ele>32.833333333333336</ele><time>2026-04-12T17:00:47.319Z</time></trkpt><trkpt lat="45.9794927" lon="12.7478858"><ele>33.0</ele><time>2026-04-12T17:00:50.328Z</time></trkpt><trkpt lat="45.9794429" lon="12.7478257"><ele>33.0</ele><time>2026-04-12T17:00:52.325Z</time></trkpt><trkpt lat="45.9794352" lon="12.7477293"><ele>33.0</ele><time>2026-04-12T17:00:54.326Z</time></trkpt><trkpt lat="45.9794498" lon="12.7475876"><ele>33.0</ele><time>2026-04-12T17:00:57.324Z</time></trkpt><trkpt lat="45.9794283" lon="12.7474869"><ele>33.0</ele><time>2026-04-12T17:00:59.325Z</time></trkpt><trkpt lat="45.9793607" lon="12.7474196"><ele>33.0</ele><time>2026-04-12T17:01:01.33Z</time></trkpt><trkpt lat="45.9793279" lon="12.7473082"><ele>33.0</ele><time>2026-04-12T17:01:03.329Z</time></trkpt><trkpt lat="45.9793408" lon="12.7471457"><ele>32.8</ele><time>2026-04-12T17:01:05.32Z</time></trkpt><trkpt lat="45.9793518" lon="12.747019"><ele>32.599999999999994</ele><time>2026-04-12T17:01:07.33Z</time></trkpt><trkpt lat="45.9793778" lon="12.7468639"><ele>32.400000000000006</ele><time>2026-04-12T17:01:09.323Z</time></trkpt><trkpt lat="45.9793929" lon="12.7467673"><ele>32.2</ele><time>2026-04-12T17:01:10.328Z</time></trkpt><trkpt lat="45.9794174" lon="12.7466046"><ele>32.0</ele><time>2026-04-12T17:01:12.318Z</time></trkpt><trkpt lat="45.9794056" lon="12.7464271"><ele>31.666666666666664</ele><time>2026-04-12T17:01:14.328Z</time></trkpt><trkpt lat="45.9793891" lon="12.7462358"><ele>31.333333333333332</ele><time>2026-04-12T17:01:16.329Z</time></trkpt><trkpt lat="45.9793766" lon="12.7461385"><ele>31.0</ele><time>2026-04-12T17:01:17.325Z</time></trkpt><trkpt lat="45.9793604" lon="12.7460156"><ele>30.666666666666664</ele><time>2026-04-12T17:01:18.33Z</time></trkpt><trkpt lat="45.9793605" lon="12.7459092"><ele>30.333333333333332</ele><time>2026-04-12T17:01:19.326Z</time></trkpt><trkpt lat="45.9793606" lon="12.7457941"><ele>30.0</ele><time>2026-04-12T17:01:20.323Z</time></trkpt><trkpt lat="45.9793657" lon="12.7456854"><ele>29.833333333333332</ele><time>2026-04-12T17:01:21.329Z</time></trkpt><trkpt lat="45.9793674" lon="12.7455742"><ele>29.666666666666664</ele><time>2026-04-12T17:01:22.324Z</time></trkpt><trkpt lat="45.979364" lon="12.7454715"><ele>29.5</ele><time>2026-04-12T17:01:23.32Z</time></trkpt><trkpt lat="45.9793532" lon="12.7453792"><ele>29.333333333333332</ele><time>2026-04-12T17:01:24.324Z</time></trkpt><trkpt lat="45.979319" lon="12.7452118"><ele>29.166666666666664</ele><time>2026-04-12T17:01:26.319Z</time></trkpt><trkpt lat="45.9792866" lon="12.7450757"><ele>29.0</ele><time>2026-04-12T17:01:28.321Z</time></trkpt><trkpt lat="45.979225" lon="12.7450208"><ele>29.0</ele><time>2026-04-12T17:01:30.324Z</time></trkpt><trkpt lat="45.97916" lon="12.7450947"><ele>29.0</ele><time>2026-04-12T17:01:32.327Z</time></trkpt><trkpt lat="45.9791556" lon="12.7452319"><ele>29.0</ele><time>2026-04-12T17:01:34.326Z</time></trkpt><trkpt lat="45.9791706" lon="12.7453872"><ele>29.0</ele><time>2026-04-12T17:01:36.326Z</time></trkpt><trkpt lat="45.9791771" lon="12.7455212"><ele>29.0</ele><time>2026-04-12T17:01:38.323Z</time></trkpt><trkpt lat="45.9791382" lon="12.7456329"><ele>28.999999999999996</ele><time>2026-04-12T17:01:41.323Z</time></trkpt><trkpt lat="45.9790644" lon="12.745674"><ele>29.0</ele><time>2026-04-12T17:01:43.318Z</time></trkpt><trkpt lat="45.9789964" lon="12.7457337"><ele>29.0</ele><time>2026-04-12T17:01:45.322Z</time></trkpt><trkpt lat="45.9789646" lon="12.7458237"><ele>29.0</ele><time>2026-04-12T17:01:47.319Z</time></trkpt><trkpt lat="45.9789415" lon="12.7459351"><ele>28.999999999999996</ele><time>2026-04-12T17:01:49.33Z</time></trkpt><trkpt lat="45.9788884" lon="12.7460629"><ele>29.0</ele><time>2026-04-12T17:01:51.323Z</time></trkpt><trkpt lat="45.978819" lon="12.7460843"><ele>28.999999999999996</ele><time>2026-04-12T17:01:53.32Z</time></trkpt><trkpt lat="45.9787955" lon="12.745999"><ele>29.0</ele><time>2026-04-12T17:01:55.325Z</time></trkpt><trkpt lat="45.9788195" lon="12.7458639"><ele>29.0</ele><time>2026-04-12T17:01:57.32Z</time></trkpt><trkpt lat="45.9788421" lon="12.7457428"><ele>29.0</ele><time>2026-04-12T17:01:59.325Z</time></trkpt><trkpt lat="45.9788957" lon="12.7456415"><ele>28.999999999999996</ele><time>2026-04-12T17:02:01.324Z</time></trkpt><trkpt lat="45.978969" lon="12.7455447"><ele>29.0</ele><time>2026-04-12T17:02:03.329Z</time></trkpt><trkpt lat="45.979011" lon="12.7454426"><ele>28.999999999999996</ele><time>2026-04-12T17:02:05.324Z</time></trkpt><trkpt lat="45.9789646" lon="12.7453707"><ele>29.0</ele><time>2026-04-12T17:02:07.318Z</time></trkpt><trkpt lat="45.97889" lon="12.7454349"><ele>29.0</ele><time>2026-04-12T17:02:10.323Z</time></trkpt><trkpt lat="45.9788051" lon="12.7455684"><ele>29.0</ele><time>2026-04-12T17:02:12.325Z</time></trkpt><trkpt lat="45.9787221" lon="12.7455952"><ele>28.999999999999996</ele><time>2026-04-12T17:02:14.321Z</time></trkpt><trkpt lat="45.978641" lon="12.745574"><ele>29.0</ele><time>2026-04-12T17:02:16.323Z</time></trkpt><trkpt lat="45.9785697" lon="12.7455699"><ele>29.000000000000004</ele><time>2026-04-12T17:02:18.329Z</time></trkpt><trkpt lat="45.9784938" lon="12.7455515"><ele>29.0</ele><time>2026-04-12T17:02:20.319Z</time></trkpt><trkpt lat="45.9784259" lon="12.745502"><ele>29.000000000000004</ele><time>2026-04-12T17:02:22.331Z</time></trkpt><trkpt lat="45.9784091" lon="12.7454114"><ele>29.000000000000004</ele><time>2026-04-12T17:02:24.321Z</time></trkpt><trkpt lat="45.9784556" lon="12.7453293"><ele>29.0</ele><time>2026-04-12T17:02:27.322Z</time></trkpt><trkpt lat="45.9785289" lon="12.7453112"><ele>29.000000000000004</ele><time>2026-04-12T17:02:29.323Z</time></trkpt><trkpt lat="45.9786005" lon="12.7453126"><ele>29.000000000000004</ele><time>2026-04-12T17:02:31.321Z</time></trkpt><trkpt lat="45.9786915" lon="12.7452934"><ele>28.999999999999996</ele><time>2026-04-12T17:02:33.327Z</time></trkpt><trkpt lat="45.9787741" lon="12.7452759"><ele>29.0</ele><time>2026-04-12T17:02:35.32Z</time></trkpt><trkpt lat="45.9788522" lon="12.7452528"><ele>29.0</ele><time>2026-04-12T17:02:37.32Z</time></trkpt><trkpt lat="45.9789294" lon="12.7452082"><ele>29.0</ele><time>2026-04-12T17:02:39.318Z</time></trkpt><trkpt lat="45.9790035" lon="12.7451134"><ele>28.999999999999996</ele><time>2026-04-12T17:02:41.323Z</time></trkpt><trkpt lat="45.9790387" lon="12.7450371"><ele>29.0</ele><time>2026-04-12T17:02:43.326Z</time></trkpt><trkpt lat="45.9790046" lon="12.744907"><ele>28.833333333333332</ele><time>2026-04-12T17:02:45.322Z</time></trkpt><trkpt lat="45.9790094" lon="12.7447859"><ele>28.666666666666664</ele><time>2026-04-12T17:02:47.32Z</time></trkpt><trkpt lat="45.9790672" lon="12.7447159"><ele>28.5</ele><time>2026-04-12T17:02:49.329Z</time></trkpt><trkpt lat="45.9791384" lon="12.7447335"><ele>28.333333333333336</ele><time>2026-04-12T17:02:51.324Z</time></trkpt><trkpt lat="45.9792224" lon="12.7447274"><ele>28.166666666666668</ele><time>2026-04-12T17:02:54.322Z</time></trkpt><trkpt lat="45.9792491" lon="12.7446367"><ele>28.0</ele><time>2026-04-12T17:02:56.326Z</time></trkpt><trkpt lat="45.9792201" lon="12.7445434"><ele>28.666666666666668</ele><time>2026-04-12T17:02:58.329Z</time></trkpt><trkpt lat="45.9791468" lon="12.7444648"><ele>29.333333333333336</ele><time>2026-04-12T17:03:00.329Z</time></trkpt><trkpt lat="45.9790699" lon="12.7444746"><ele>30.0</ele><time>2026-04-12T17:03:02.319Z</time></trkpt><trkpt lat="45.9790127" lon="12.7445339"><ele>30.666666666666664</ele><time>2026-04-12T17:03:04.327Z</time></trkpt><trkpt lat="45.978953" lon="12.7446231"><ele>31.333333333333332</ele><time>2026-04-12T17:03:06.321Z</time></trkpt><trkpt lat="45.9789136" lon="12.7447224"><ele>32.0</ele><time>2026-04-12T17:03:08.322Z</time></trkpt><trkpt lat="45.978887" lon="12.7448433"><ele>32.0</ele><time>2026-04-12T17:03:10.331Z</time></trkpt><trkpt lat="45.9788421" lon="12.7449453"><ele>32.0</ele><time>2026-04-12T17:03:12.324Z</time></trkpt><trkpt lat="45.9787819" lon="12.7450409"><ele>32.0</ele><time>2026-04-12T17:03:14.326Z</time></trkpt><trkpt lat="45.9787006" lon="12.7451056"><ele>32.0</ele><time>2026-04-12T17:03:16.318Z</time></trkpt><trkpt lat="45.9786071" lon="12.7451382"><ele>32.0</ele><time>2026-04-12T17:03:18.327Z</time></trkpt><trkpt lat="45.9785084" lon="12.7451807"><ele>32.2</ele><time>2026-04-12T17:03:20.325Z</time></trkpt><trkpt lat="45.9784099" lon="12.7452324"><ele>32.400000000000006</ele><time>2026-04-12T17:03:22.326Z</time></trkpt><trkpt lat="45.9783107" lon="12.7452832"><ele>32.599999999999994</ele><time>2026-04-12T17:03:24.321Z</time></trkpt><trkpt lat="45.9782517" lon="12.7453903"><ele>32.8</ele><time>2026-04-12T17:03:26.329Z</time></trkpt><trkpt lat="45.9782375" lon="12.7455207"><ele>33.0</ele><time>2026-04-12T17:03:28.327Z</time></trkpt><trkpt lat="45.9782348" lon="12.7456375"><ele>33.0</ele><time>2026-04-12T17:03:30.325Z</time></trkpt><trkpt lat="45.9782523" lon="12.7457474"><ele>33.0</ele><time>2026-04-12T17:03:32.321Z</time></trkpt><trkpt lat="45.9782691" lon="12.7458479"><ele>33.0</ele><time>2026-04-12T17:03:34.325Z</time></trkpt><trkpt lat="45.9782774" lon="12.7459877"><ele>33.0</ele><time>2026-04-12T17:03:36.321Z</time></trkpt><trkpt lat="45.978286" lon="12.7461214"><ele>33.0</ele><time>2026-04-12T17:03:38.329Z</time></trkpt><trkpt lat="45.9783011" lon="12.746271"><ele>33.0</ele><time>2026-04-12T17:03:40.318Z</time></trkpt><trkpt lat="45.9783185" lon="12.7463903"><ele>32.333333333333336</ele><time>2026-04-12T17:03:42.331Z</time></trkpt><trkpt lat="45.9783616" lon="12.746489"><ele>31.666666666666664</ele><time>2026-04-12T17:03:44.332Z</time></trkpt><trkpt lat="45.9784109" lon="12.7466087"><ele>31.0</ele><time>2026-04-12T17:03:46.331Z</time></trkpt><trkpt lat="45.9784544" lon="12.7466797"><ele>30.333333333333332</ele><time>2026-04-12T17:03:47.331Z</time></trkpt><trkpt lat="45.9785006" lon="12.746743"><ele>29.666666666666664</ele><time>2026-04-12T17:03:48.331Z</time></trkpt><trkpt lat="45.9785733" lon="12.7468731"><ele>29.0</ele><time>2026-04-12T17:03:50.331Z</time></trkpt><trkpt lat="45.9786439" lon="12.7470129"><ele>28.999999999999996</ele><time>2026-04-12T17:03:52.331Z</time></trkpt><trkpt lat="45.978724" lon="12.7471068"><ele>29.0</ele><time>2026-04-12T17:03:54.331Z</time></trkpt><trkpt lat="45.9787959" lon="12.7471543"><ele>29.0</ele><time>2026-04-12T17:03:56.331Z</time></trkpt><trkpt lat="45.978874" lon="12.7471603"><ele>29.0</ele><time>2026-04-12T17:03:59.331Z</time></trkpt><trkpt lat="45.9789509" lon="12.7470981"><ele>28.999999999999996</ele><time>2026-04-12T17:04:04.331Z</time></trkpt><trkpt lat="45.9790223" lon="12.7470657"><ele>29.0</ele><time>2026-04-12T17:04:06.331Z</time></trkpt><trkpt lat="45.9790848" lon="12.747077"><ele>28.999999999999996</ele><time>2026-04-12T17:04:07.331Z</time></trkpt><trkpt lat="45.9791286" lon="12.7471812"><ele>29.0</ele><time>2026-04-12T17:04:09.332Z</time></trkpt><trkpt lat="45.9791272" lon="12.7473118"><ele>29.0</ele><time>2026-04-12T17:04:11.331Z</time></trkpt><trkpt lat="45.9791317" lon="12.7474218"><ele>29.0</ele><time>2026-04-12T17:04:13.331Z</time></trkpt><trkpt lat="45.9791573" lon="12.7475158"><ele>28.999999999999996</ele><time>2026-04-12T17:04:15.331Z</time></trkpt><trkpt lat="45.9792052" lon="12.7475747"><ele>29.0</ele><time>2026-04-12T17:04:17.331Z</time></trkpt><trkpt lat="45.9792642" lon="12.7476501"><ele>29.499999999999996</ele><time>2026-04-12T17:04:19.331Z</time></trkpt><trkpt lat="45.9793287" lon="12.7476733"><ele>30.0</ele><time>2026-04-12T17:04:21.331Z</time></trkpt><trkpt lat="45.9793958" lon="12.747696"><ele>30.5</ele><time>2026-04-12T17:04:23.332Z</time></trkpt><trkpt lat="45.9794441" lon="12.7477986"><ele>31.0</ele><time>2026-04-12T17:04:26.332Z</time></trkpt><trkpt lat="45.9794739" lon="12.7479005"><ele>31.499999999999996</ele><time>2026-04-12T17:04:28.331Z</time></trkpt><trkpt lat="45.9795645" lon="12.7479494"><ele>32.0</ele><time>2026-04-12T17:04:30.331Z</time></trkpt><trkpt lat="45.9796722" lon="12.7479523"><ele>31.999999999999996</ele><time>2026-04-12T17:04:32.331Z</time></trkpt><trkpt lat="45.9797346" lon="12.7479352"><ele>32.0</ele><time>2026-04-12T17:04:33.331Z</time></trkpt><trkpt lat="45.9798035" lon="12.7479256"><ele>32.0</ele><time>2026-04-12T17:04:34.331Z</time></trkpt><trkpt lat="45.9798665" lon="12.7479127"><ele>32.0</ele><time>2026-04-12T17:04:35.331Z</time></trkpt><trkpt lat="45.9799766" lon="12.7478712"><ele>31.999999999999996</ele><time>2026-04-12T17:04:37.331Z</time></trkpt><trkpt lat="45.9800403" lon="12.7477719"><ele>32.0</ele><time>2026-04-12T17:04:39.331Z</time></trkpt><trkpt lat="45.9800612" lon="12.7476392"><ele>32.166666666666664</ele><time>2026-04-12T17:04:41.331Z</time></trkpt><trkpt lat="45.9800558" lon="12.7475163"><ele>32.33333333333333</ele><time>2026-04-12T17:04:43.331Z</time></trkpt><trkpt lat="45.9800923" lon="12.7474169"><ele>32.5</ele><time>2026-04-12T17:04:46.331Z</time></trkpt><trkpt lat="45.980171" lon="12.7473908"><ele>32.666666666666664</ele><time>2026-04-12T17:04:48.331Z</time></trkpt><trkpt lat="45.9802525" lon="12.7473618"><ele>32.833333333333336</ele><time>2026-04-12T17:04:50.331Z</time></trkpt><trkpt lat="45.9803307" lon="12.7473241"><ele>33.0</ele><time>2026-04-12T17:04:52.331Z</time></trkpt><trkpt lat="45.9803992" lon="12.7472469"><ele>33.0</ele><time>2026-04-12T17:04:54.331Z</time></trkpt><trkpt lat="45.9804659" lon="12.7471899"><ele>33.0</ele><time>2026-04-12T17:04:56.331Z</time></trkpt><trkpt lat="45.9805484" lon="12.7472051"><ele>33.0</ele><time>2026-04-12T17:04:59.331Z</time></trkpt><trkpt lat="45.9806207" lon="12.7472732"><ele>33.0</ele><time>2026-04-12T17:05:01.331Z</time></trkpt><trkpt lat="45.980703" lon="12.7473305"><ele>33.0</ele><time>2026-04-12T17:05:03.331Z</time></trkpt><trkpt lat="45.9807749" lon="12.747363"><ele>33.0</ele><time>2026-04-12T17:05:05.331Z</time></trkpt><trkpt lat="45.9808374" lon="12.7473879"><ele>33.0</ele><time>2026-04-12T17:05:07.331Z</time></trkpt><trkpt lat="45.9809354" lon="12.7473678"><ele>33.0</ele><time>2026-04-12T17:05:10.331Z</time></trkpt><trkpt lat="45.9809993" lon="12.7473906"><ele>33.0</ele><time>2026-04-12T17:05:12.331Z</time></trkpt><trkpt lat="45.9810462" lon="12.7474818"><ele>33.0</ele><time>2026-04-12T17:05:14.332Z</time></trkpt><trkpt lat="45.9810531" lon="12.7475719"><ele>33.0</ele><time>2026-04-12T17:05:16.331Z</time></trkpt><trkpt lat="45.9810187" lon="12.747672"><ele>33.0</ele><time>2026-04-12T17:05:19.331Z</time></trkpt><trkpt lat="45.9809619" lon="12.7477779"><ele>33.0</ele><time>2026-04-12T17:05:21.331Z</time></trkpt><trkpt lat="45.9809083" lon="12.7478906"><ele>33.0</ele><time>2026-04-12T17:05:23.331Z</time></trkpt><trkpt lat="45.980881" lon="12.7479991"><ele>33.0</ele><time>2026-04-12T17:05:25.331Z</time></trkpt><trkpt lat="45.9809066" lon="12.7481172"><ele>33.0</ele><time>2026-04-12T17:05:28.331Z</time></trkpt><trkpt lat="45.9809772" lon="12.7481413"><ele>33.0</ele><time>2026-04-12T17:05:30.331Z</time></trkpt><trkpt lat="45.9810478" lon="12.7481048"><ele>33.0</ele><time>2026-04-12T17:05:32.331Z</time></trkpt><trkpt lat="45.9811294" lon="12.7480391"><ele>33.0</ele><time>2026-04-12T17:05:34.332Z</time></trkpt><trkpt lat="45.9811936" lon="12.7480606"><ele>33.0</ele><time>2026-04-12T17:05:36.331Z</time></trkpt><trkpt lat="45.981235" lon="12.7481334"><ele>33.0</ele><time>2026-04-12T17:05:38.332Z</time></trkpt><trkpt lat="45.9812332" lon="12.748235"><ele>33.0</ele><time>2026-04-12T17:05:40.332Z</time></trkpt><trkpt lat="45.9811825" lon="12.7483579"><ele>33.0</ele><time>2026-04-12T17:05:42.331Z</time></trkpt><trkpt lat="45.9811183" lon="12.7484565"><ele>33.0</ele><time>2026-04-12T17:05:44.332Z</time></trkpt><trkpt lat="45.9810552" lon="12.7485436"><ele>33.14285714285714</ele><time>2026-04-12T17:05:46.331Z</time></trkpt><trkpt lat="45.9809981" lon="12.7486008"><ele>33.285714285714285</ele><time>2026-04-12T17:05:48.331Z</time></trkpt><trkpt lat="45.9809431" lon="12.7486732"><ele>33.42857142857143</ele><time>2026-04-12T17:05:51.331Z</time></trkpt><trkpt lat="45.9808975" lon="12.7487522"><ele>33.57142857142857</ele><time>2026-04-12T17:05:54.331Z</time></trkpt><trkpt lat="45.9808335" lon="12.7487488"><ele>33.714285714285715</ele><time>2026-04-12T17:05:57.331Z</time></trkpt><trkpt lat="45.9807507" lon="12.7487091"><ele>33.857142857142854</ele><time>2026-04-12T17:06:01.331Z</time></trkpt><trkpt lat="45.9806956" lon="12.748659"><ele>34.0</ele><time>2026-04-12T17:06:03.332Z</time></trkpt><trkpt lat="45.9806179" lon="12.7486145"><ele>33.66666666666667</ele><time>2026-04-12T17:06:05.331Z</time></trkpt><trkpt lat="45.9805355" lon="12.7485881"><ele>33.333333333333336</ele><time>2026-04-12T17:06:07.331Z</time></trkpt><trkpt lat="45.9804536" lon="12.7485506"><ele>33.0</ele><time>2026-04-12T17:06:09.331Z</time></trkpt><trkpt lat="45.9803859" lon="12.7485146"><ele>32.666666666666664</ele><time>2026-04-12T17:06:11.331Z</time></trkpt><trkpt lat="45.9802964" lon="12.7484631"><ele>32.33333333333333</ele><time>2026-04-12T17:06:14.331Z</time></trkpt><trkpt lat="45.980225" lon="12.7484241"><ele>32.0</ele><time>2026-04-12T17:06:16.331Z</time></trkpt><trkpt lat="45.9801621" lon="12.7484006"><ele>32.0</ele><time>2026-04-12T17:06:18.332Z</time></trkpt><trkpt lat="45.9800807" lon="12.7483716"><ele>31.999999999999996</ele><time>2026-04-12T17:06:21.331Z</time></trkpt><trkpt lat="45.9800038" lon="12.7483681"><ele>32.0</ele><time>2026-04-12T17:06:23.331Z</time></trkpt><trkpt lat="45.979942" lon="12.7483875"><ele>32.0</ele><time>2026-04-12T17:06:25.331Z</time></trkpt><trkpt lat="45.9798698" lon="12.7483912"><ele>31.999999999999996</ele><time>2026-04-12T17:06:28.331Z</time></trkpt><trkpt lat="45.9798075" lon="12.7483709"><ele>32.0</ele><time>2026-04-12T17:06:30.331Z</time></trkpt><trkpt lat="45.9797432" lon="12.748325"><ele>32.0</ele><time>2026-04-12T17:06:33.331Z</time></trkpt><trkpt lat="45.9796774" lon="12.7482938"><ele>32.166666666666664</ele><time>2026-04-12T17:06:36.331Z</time></trkpt><trkpt lat="45.9796034" lon="12.7482465"><ele>32.33333333333333</ele><time>2026-04-12T17:06:39.331Z</time></trkpt><trkpt lat="45.9795473" lon="12.7481896"><ele>32.5</ele><time>2026-04-12T17:06:54.331Z</time></trkpt><trkpt lat="45.9795283" lon="12.748085"><ele>32.666666666666664</ele><time>2026-04-12T17:06:59.331Z</time></trkpt><trkpt lat="45.9795616" lon="12.7479751"><ele>32.833333333333336</ele><time>2026-04-12T17:07:02.331Z</time></trkpt><trkpt lat="45.9795213" lon="12.7479015"><ele>33.0</ele><time>2026-04-12T17:07:05.331Z</time></trkpt><trkpt lat="45.9794368" lon="12.7478572"><ele>33.0</ele><time>2026-04-12T17:07:08.331Z</time></trkpt><trkpt lat="45.9794238" lon="12.7477569"><ele>33.0</ele><time>2026-04-12T17:07:10.331Z</time></trkpt><trkpt lat="45.9794403" lon="12.7476193"><ele>33.0</ele><time>2026-04-12T17:07:13.331Z</time></trkpt><trkpt lat="45.9794297" lon="12.7475158"><ele>33.0</ele><time>2026-04-12T17:07:15.331Z</time></trkpt><trkpt lat="45.9793639" lon="12.7474362"><ele>33.0</ele><time>2026-04-12T17:07:17.331Z</time></trkpt><trkpt lat="45.9793173" lon="12.7473169"><ele>33.0</ele><time>2026-04-12T17:07:19.331Z</time></trkpt><trkpt lat="45.9793336" lon="12.747179"><ele>32.833333333333336</ele><time>2026-04-12T17:07:21.331Z</time></trkpt><trkpt lat="45.9793602" lon="12.7470709"><ele>32.666666666666664</ele><time>2026-04-12T17:07:23.331Z</time></trkpt><trkpt lat="45.9793822" lon="12.7469518"><ele>32.5</ele><time>2026-04-12T17:07:25.331Z</time></trkpt><trkpt lat="45.9794004" lon="12.7468325"><ele>32.33333333333333</ele><time>2026-04-12T17:07:27.331Z</time></trkpt><trkpt lat="45.97941" lon="12.7467412"><ele>32.166666666666664</ele><time>2026-04-12T17:07:28.331Z</time></trkpt><trkpt lat="45.9794164" lon="12.7466331"><ele>32.0</ele><time>2026-04-12T17:07:29.332Z</time></trkpt><trkpt lat="45.9794131" lon="12.7464975"><ele>31.6</ele><time>2026-04-12T17:07:30.331Z</time></trkpt><trkpt lat="45.9794078" lon="12.7463872"><ele>31.200000000000003</ele><time>2026-04-12T17:07:31.331Z</time></trkpt><trkpt lat="45.979398" lon="12.746276"><ele>30.8</ele><time>2026-04-12T17:07:32.332Z</time></trkpt><trkpt lat="45.9793797" lon="12.7461332"><ele>30.4</ele><time>2026-04-12T17:07:33.331Z</time></trkpt><trkpt lat="45.9793735" lon="12.7459764"><ele>30.0</ele><time>2026-04-12T17:07:34.331Z</time></trkpt><trkpt lat="45.9793738" lon="12.745806"><ele>29.8</ele><time>2026-04-12T17:07:35.331Z</time></trkpt><trkpt lat="45.9793757" lon="12.7456537"><ele>29.6</ele><time>2026-04-12T17:07:36.331Z</time></trkpt><trkpt lat="45.9793731" lon="12.7455334"><ele>29.4</ele><time>2026-04-12T17:07:37.331Z</time></trkpt><trkpt lat="45.9793698" lon="12.745433"><ele>29.2</ele><time>2026-04-12T17:07:38.331Z</time></trkpt><trkpt lat="45.9793297" lon="12.7452667"><ele>29.0</ele><time>2026-04-12T17:07:40.331Z</time></trkpt><trkpt lat="45.9792994" lon="12.7451221"><ele>29.0</ele><time>2026-04-12T17:07:42.331Z</time></trkpt><trkpt lat="45.9792445" lon="12.745036"><ele>29.0</ele><time>2026-04-12T17:07:44.331Z</time></trkpt><trkpt lat="45.9791754" lon="12.7450591"><ele>29.0</ele><time>2026-04-12T17:07:46.331Z</time></trkpt><trkpt lat="45.9791571" lon="12.7451702"><ele>29.0</ele><time>2026-04-12T17:07:48.331Z</time></trkpt><trkpt lat="45.9791752" lon="12.745345"><ele>29.0</ele><time>2026-04-12T17:07:50.331Z</time></trkpt><trkpt lat="45.9791836" lon="12.7454908"><ele>28.999999999999996</ele><time>2026-04-12T17:07:52.331Z</time></trkpt><trkpt lat="45.9791738" lon="12.7455928"><ele>29.0</ele><time>2026-04-12T17:07:54.331Z</time></trkpt><trkpt lat="45.9790938" lon="12.7456693"><ele>29.0</ele><time>2026-04-12T17:07:57.331Z</time></trkpt><trkpt lat="45.9790147" lon="12.7457147"><ele>29.0</ele><time>2026-04-12T17:07:59.331Z</time></trkpt><trkpt lat="45.9789536" lon="12.7458012"><ele>28.999999999999996</ele><time>2026-04-12T17:08:01.331Z</time></trkpt><trkpt lat="45.978924" lon="12.7459123"><ele>29.0</ele><time>2026-04-12T17:08:03.331Z</time></trkpt><trkpt lat="45.9789009" lon="12.746048"><ele>28.999999999999996</ele><time>2026-04-12T17:08:05.331Z</time></trkpt><trkpt lat="45.9788514" lon="12.7461138"><ele>29.0</ele><time>2026-04-12T17:08:07.331Z</time></trkpt><trkpt lat="45.9788059" lon="12.7460392"><ele>29.0</ele><time>2026-04-12T17:08:09.331Z</time></trkpt><trkpt lat="45.9788185" lon="12.7459053"><ele>29.0</ele><time>2026-04-12T17:08:11.331Z</time></trkpt><trkpt lat="45.9788293" lon="12.7457714"><ele>28.999999999999996</ele><time>2026-04-12T17:08:13.331Z</time></trkpt><trkpt lat="45.9788662" lon="12.7456738"><ele>29.0</ele><time>2026-04-12T17:08:15.331Z</time></trkpt><trkpt lat="45.9789247" lon="12.7455948"><ele>28.999999999999996</ele><time>2026-04-12T17:08:17.331Z</time></trkpt><trkpt lat="45.9789911" lon="12.7455021"><ele>29.0</ele><time>2026-04-12T17:08:19.331Z</time></trkpt><trkpt lat="45.9789955" lon="12.7454001"><ele>29.0</ele><time>2026-04-12T17:08:21.331Z</time></trkpt><trkpt lat="45.9789236" lon="12.7453816"><ele>29.0</ele><time>2026-04-12T17:08:23.331Z</time></trkpt><trkpt lat="45.9788817" lon="12.7454709"><ele>28.999999999999996</ele><time>2026-04-12T17:08:25.331Z</time></trkpt><trkpt lat="45.9788181" lon="12.7455379"><ele>29.0</ele><time>2026-04-12T17:08:27.331Z</time></trkpt><trkpt lat="45.9787311" lon="12.7455719"><ele>28.999999999999996</ele><time>2026-04-12T17:08:29.331Z</time></trkpt><trkpt lat="45.9786566" lon="12.7455574"><ele>29.0</ele><time>2026-04-12T17:08:31.331Z</time></trkpt><trkpt lat="45.9785817" lon="12.7455524"><ele>29.0</ele><time>2026-04-12T17:08:33.331Z</time></trkpt><trkpt lat="45.978515" lon="12.7455378"><ele>29.0</ele><time>2026-04-12T17:08:35.331Z</time></trkpt><trkpt lat="45.9784319" lon="12.7455084"><ele>28.999999999999996</ele><time>2026-04-12T17:08:41.331Z</time></trkpt><trkpt lat="45.9784051" lon="12.7454112"><ele>29.0</ele><time>2026-04-12T17:08:44.332Z</time></trkpt><trkpt lat="45.978462" lon="12.7453224"><ele>28.999999999999996</ele><time>2026-04-12T17:08:48.331Z</time></trkpt><trkpt lat="45.9785253" lon="12.7453122"><ele>29.0</ele><time>2026-04-12T17:08:50.332Z</time></trkpt><trkpt lat="45.9786175" lon="12.7453077"><ele>29.0</ele><time>2026-04-12T17:08:52.331Z</time></trkpt><trkpt lat="45.9787068" lon="12.7452943"><ele>29.0</ele><time>2026-04-12T17:08:54.332Z</time></trkpt><trkpt lat="45.9787907" lon="12.7452782"><ele>28.999999999999996</ele><time>2026-04-12T17:08:56.331Z</time></trkpt><trkpt lat="45.9788702" lon="12.74526"><ele>29.0</ele><time>2026-04-12T17:08:58.331Z</time></trkpt><trkpt lat="45.9789548" lon="12.7452153"><ele>29.499999999999996</ele><time>2026-04-12T17:09:00.331Z</time></trkpt><trkpt lat="45.9790149" lon="12.7451327"><ele>30.0</ele><time>2026-04-12T17:09:02.332Z</time></trkpt><trkpt lat="45.9790476" lon="12.7450315"><ele>30.5</ele><time>2026-04-12T17:09:04.331Z</time></trkpt><trkpt lat="45.9790282" lon="12.7449305"><ele>31.0</ele><time>2026-04-12T17:09:05.331Z</time></trkpt><trkpt lat="45.9789995" lon="12.7448149"><ele>31.499999999999996</ele><time>2026-04-12T17:09:07.331Z</time></trkpt><trkpt lat="45.9790639" lon="12.7447228"><ele>32.0</ele><time>2026-04-12T17:09:09.331Z</time></trkpt><trkpt lat="45.9791352" lon="12.7447174"><ele>31.999999999999996</ele><time>2026-04-12T17:09:11.332Z</time></trkpt><trkpt lat="45.9792012" lon="12.7447437"><ele>32.0</ele><time>2026-04-12T17:09:13.331Z</time></trkpt><trkpt lat="45.9792625" lon="12.74465"><ele>32.0</ele><time>2026-04-12T17:09:16.331Z</time></trkpt><trkpt lat="45.9792406" lon="12.7445446"><ele>32.0</ele><time>2026-04-12T17:09:18.332Z</time></trkpt><trkpt lat="45.9791792" lon="12.7444813"><ele>31.999999999999996</ele><time>2026-04-12T17:09:20.331Z</time></trkpt><trkpt lat="45.9790915" lon="12.7444825"><ele>32.0</ele><time>2026-04-12T17:09:22.332Z</time></trkpt><trkpt lat="45.9790179" lon="12.7445331"><ele>31.999999999999996</ele><time>2026-04-12T17:09:24.331Z</time></trkpt><trkpt lat="45.9789504" lon="12.7446248"><ele>32.0</ele><time>2026-04-12T17:09:26.331Z</time></trkpt><trkpt lat="45.9789167" lon="12.7447099"><ele>32.0</ele><time>2026-04-12T17:09:28.331Z</time></trkpt><trkpt lat="45.9788976" lon="12.7448213"><ele>32.0</ele><time>2026-04-12T17:09:30.331Z</time></trkpt><trkpt lat="45.978869" lon="12.744919"><ele>31.999999999999996</ele><time>2026-04-12T17:09:32.331Z</time></trkpt><trkpt lat="45.9788135" lon="12.7449975"><ele>32.0</ele><time>2026-04-12T17:09:34.331Z</time></trkpt><trkpt lat="45.9787392" lon="12.7450583"><ele>32.0</ele><time>2026-04-12T17:09:36.331Z</time></trkpt><trkpt lat="45.9786452" lon="12.7451137"><ele>32.0</ele><time>2026-04-12T17:09:38.331Z</time></trkpt><trkpt lat="45.9785409" lon="12.7451488"><ele>32.0</ele><time>2026-04-12T17:09:40.331Z</time></trkpt><trkpt lat="45.9784416" lon="12.7452033"><ele>32.0</ele><time>2026-04-12T17:09:42.331Z</time></trkpt><trkpt lat="45.9783486" lon="12.7452629"><ele>32.0</ele><time>2026-04-12T17:09:44.331Z</time></trkpt><trkpt lat="45.9782655" lon="12.7453472"><ele>32.166666666666664</ele><time>2026-04-12T17:09:46.331Z</time></trkpt><trkpt lat="45.9782437" lon="12.7454557"><ele>32.33333333333333</ele><time>2026-04-12T17:09:48.331Z</time></trkpt><trkpt lat="45.9782381" lon="12.7455769"><ele>32.5</ele><time>2026-04-12T17:09:50.331Z</time></trkpt><trkpt lat="45.9782393" lon="12.7456723"><ele>32.666666666666664</ele><time>2026-04-12T17:09:51.331Z</time></trkpt><trkpt lat="45.9782522" lon="12.745804"><ele>32.833333333333336</ele><time>2026-04-12T17:09:53.331Z</time></trkpt><trkpt lat="45.9782715" lon="12.7459321"><ele>33.0</ele><time>2026-04-12T17:09:55.332Z</time></trkpt><trkpt lat="45.9782725" lon="12.7460739"><ele>32.6</ele><time>2026-04-12T17:09:57.331Z</time></trkpt><trkpt lat="45.9782938" lon="12.7462333"><ele>32.199999999999996</ele><time>2026-04-12T17:09:59.331Z</time></trkpt><trkpt lat="45.9783169" lon="12.7463847"><ele>31.8</ele><time>2026-04-12T17:10:01.331Z</time></trkpt><trkpt lat="45.9783603" lon="12.7465131"><ele>31.4</ele><time>2026-04-12T17:10:03.331Z</time></trkpt><trkpt lat="45.9784161" lon="12.7466222"><ele>31.0</ele><time>2026-04-12T17:10:05.331Z</time></trkpt><trkpt lat="45.9784977" lon="12.7467234"><ele>30.6</ele><time>2026-04-12T17:10:07.331Z</time></trkpt><trkpt lat="45.978571" lon="12.7468547"><ele>30.200000000000003</ele><time>2026-04-12T17:10:09.331Z</time></trkpt><trkpt lat="45.9786439" lon="12.7469836"><ele>29.799999999999997</ele><time>2026-04-12T17:10:11.331Z</time></trkpt><trkpt lat="45.9787149" lon="12.7470714"><ele>29.4</ele><time>2026-04-12T17:10:13.331Z</time></trkpt><trkpt lat="45.9787923" lon="12.7471341"><ele>29.0</ele><time>2026-04-12T17:10:15.331Z</time></trkpt><trkpt lat="45.9788772" lon="12.7471656"><ele>28.999999999999996</ele><time>2026-04-12T17:10:18.331Z</time></trkpt><trkpt lat="45.9789444" lon="12.7471276"><ele>29.0</ele><time>2026-04-12T17:10:22.331Z</time></trkpt><trkpt lat="45.9790254" lon="12.7470754"><ele>29.0</ele><time>2026-04-12T17:10:25.331Z</time></trkpt><trkpt lat="45.9790985" lon="12.7470934"><ele>29.0</ele><time>2026-04-12T17:10:27.331Z</time></trkpt><trkpt lat="45.9791383" lon="12.7471944"><ele>28.999999999999996</ele><time>2026-04-12T17:10:29.331Z</time></trkpt><trkpt lat="45.9791236" lon="12.7473521"><ele>29.0</ele><time>2026-04-12T17:10:31.331Z</time></trkpt><trkpt lat="45.9791321" lon="12.747463"><ele>29.499999999999996</ele><time>2026-04-12T17:10:33.331Z</time></trkpt><trkpt lat="45.9791911" lon="12.7475576"><ele>30.0</ele><time>2026-04-12T17:10:36.331Z</time></trkpt><trkpt lat="45.9792511" lon="12.7476596"><ele>30.5</ele><time>2026-04-12T17:10:39.331Z</time></trkpt><trkpt lat="45.9793354" lon="12.7476814"><ele>31.0</ele><time>2026-04-12T17:10:41.331Z</time></trkpt><trkpt lat="45.9794092" lon="12.7476565"><ele>31.499999999999996</ele><time>2026-04-12T17:10:43.331Z</time></trkpt><trkpt lat="45.9794247" lon="12.7475603"><ele>32.0</ele><time>2026-04-12T17:10:45.331Z</time></trkpt><trkpt lat="45.9793839" lon="12.7474782"><ele>31.999999999999996</ele><time>2026-04-12T17:10:47.331Z</time></trkpt><trkpt lat="45.9793288" lon="12.7473759"><ele>32.0</ele><time>2026-04-12T17:10:49.331Z</time></trkpt><trkpt lat="45.9793211" lon="12.7472365"><ele>32.0</ele><time>2026-04-12T17:10:51.331Z</time></trkpt><trkpt lat="45.97934" lon="12.7471025"><ele>32.0</ele><time>2026-04-12T17:10:53.332Z</time></trkpt><trkpt lat="45.9793511" lon="12.7469762"><ele>31.999999999999996</ele><time>2026-04-12T17:10:55.331Z</time></trkpt><trkpt lat="45.9793684" lon="12.7468889"><ele>32.0</ele><time>2026-04-12T17:10:56.331Z</time></trkpt><trkpt lat="45.9794016" lon="12.746736"><ele>31.666666666666664</ele><time>2026-04-12T17:10:58.331Z</time></trkpt><trkpt lat="45.9794038" lon="12.7465654"><ele>31.333333333333332</ele><time>2026-04-12T17:11:00.332Z</time></trkpt><trkpt lat="45.9794082" lon="12.7464613"><ele>31.0</ele><time>2026-04-12T17:11:01.331Z</time></trkpt><trkpt lat="45.9794117" lon="12.746365"><ele>30.666666666666664</ele><time>2026-04-12T17:11:02.332Z</time></trkpt><trkpt lat="45.9793925" lon="12.7462511"><ele>30.333333333333332</ele><time>2026-04-12T17:11:03.331Z</time></trkpt><trkpt lat="45.97938" lon="12.7461274"><ele>30.0</ele><time>2026-04-12T17:11:04.331Z</time></trkpt><trkpt lat="45.9793674" lon="12.7459968"><ele>29.833333333333332</ele><time>2026-04-12T17:11:05.331Z</time></trkpt><trkpt lat="45.9793669" lon="12.7458658"><ele>29.666666666666664</ele><time>2026-04-12T17:11:06.331Z</time></trkpt><trkpt lat="45.9793687" lon="12.7457325"><ele>29.5</ele><time>2026-04-12T17:11:07.331Z</time></trkpt><trkpt lat="45.979371" lon="12.7456118"><ele>29.333333333333332</ele><time>2026-04-12T17:11:08.331Z</time></trkpt><trkpt lat="45.9793703" lon="12.7455066"><ele>29.166666666666664</ele><time>2026-04-12T17:11:09.331Z</time></trkpt><trkpt lat="45.9793636" lon="12.7454062"><ele>29.0</ele><time>2026-04-12T17:11:10.331Z</time></trkpt><trkpt lat="45.9793469" lon="12.7453157"><ele>28.999999999999996</ele><time>2026-04-12T17:11:11.332Z</time></trkpt><trkpt lat="45.9793241" lon="12.7452239"><ele>29.0</ele><time>2026-04-12T17:11:12.331Z</time></trkpt><trkpt lat="45.9792916" lon="12.7450809"><ele>29.0</ele><time>2026-04-12T17:11:14.331Z</time></trkpt><trkpt lat="45.9792306" lon="12.7450193"><ele>29.0</ele><time>2026-04-12T17:11:16.331Z</time></trkpt><trkpt lat="45.9791608" lon="12.7450701"><ele>28.999999999999996</ele><time>2026-04-12T17:11:18.331Z</time></trkpt><trkpt lat="45.9791568" lon="12.7451912"><ele>29.0</ele><time>2026-04-12T17:11:20.331Z</time></trkpt><trkpt lat="45.9791697" lon="12.7452901"><ele>28.999999999999996</ele><time>2026-04-12T17:11:21.331Z</time></trkpt><trkpt lat="45.979183" lon="12.7454291"><ele>29.0</ele><time>2026-04-12T17:11:23.331Z</time></trkpt><trkpt lat="45.9791813" lon="12.745559"><ele>29.0</ele><time>2026-04-12T17:11:25.331Z</time></trkpt><trkpt lat="45.9791375" lon="12.7456432"><ele>29.0</ele><time>2026-04-12T17:11:27.331Z</time></trkpt><trkpt lat="45.9790624" lon="12.7456831"><ele>28.999999999999996</ele><time>2026-04-12T17:11:29.331Z</time></trkpt><trkpt lat="45.9789934" lon="12.7457316"><ele>29.0</ele><time>2026-04-12T17:11:31.331Z</time></trkpt><trkpt lat="45.9789615" lon="12.7458322"><ele>28.999999999999996</ele><time>2026-04-12T17:11:33.331Z</time></trkpt><trkpt lat="45.9789467" lon="12.7459383"><ele>29.0</ele><time>2026-04-12T17:11:35.331Z</time></trkpt><trkpt lat="45.9788969" lon="12.7460725"><ele>29.0</ele><time>2026-04-12T17:11:37.331Z</time></trkpt><trkpt lat="45.9788241" lon="12.7460826"><ele>29.0</ele><time>2026-04-12T17:11:39.331Z</time></trkpt><trkpt lat="45.9787787" lon="12.7459946"><ele>28.999999999999996</ele><time>2026-04-12T17:11:41.331Z</time></trkpt><trkpt lat="45.9788051" lon="12.745842"><ele>29.0</ele><time>2026-04-12T17:11:43.331Z</time></trkpt><trkpt lat="45.9788384" lon="12.7457199"><ele>28.999999999999996</ele><time>2026-04-12T17:11:45.331Z</time></trkpt><trkpt lat="45.9788975" lon="12.7456056"><ele>29.0</ele><time>2026-04-12T17:11:47.331Z</time></trkpt><trkpt lat="45.9789681" lon="12.7455226"><ele>29.0</ele><time>2026-04-12T17:11:49.331Z</time></trkpt><trkpt lat="45.9790004" lon="12.7454226"><ele>29.0</ele><time>2026-04-12T17:11:51.331Z</time></trkpt><trkpt lat="45.9789214" lon="12.7453815"><ele>28.999999999999996</ele><time>2026-04-12T17:11:54.331Z</time></trkpt><trkpt lat="45.9788711" lon="12.7454967"><ele>29.0</ele><time>2026-04-12T17:11:56.331Z</time></trkpt><trkpt lat="45.978792" lon="12.7455628"><ele>28.999999999999996</ele><time>2026-04-12T17:11:58.331Z</time></trkpt><trkpt lat="45.9787068" lon="12.7455695"><ele>29.0</ele><time>2026-04-12T17:12:00.331Z</time></trkpt><trkpt lat="45.9786268" lon="12.7455499"><ele>29.0</ele><time>2026-04-12T17:12:02.331Z</time></trkpt><trkpt lat="45.9785479" lon="12.7455383"><ele>29.0</ele><time>2026-04-12T17:12:04.332Z</time></trkpt><trkpt lat="45.978482" lon="12.7455308"><ele>28.999999999999996</ele><time>2026-04-12T17:12:06.331Z</time></trkpt><trkpt lat="45.9784129" lon="12.7454814"><ele>29.0</ele><time>2026-04-12T17:12:08.331Z</time></trkpt><trkpt lat="45.978409" lon="12.7453708"><ele>28.999999999999996</ele><time>2026-04-12T17:12:11.331Z</time></trkpt><trkpt lat="45.9784667" lon="12.7453007"><ele>29.0</ele><time>2026-04-12T17:12:14.331Z</time></trkpt><trkpt lat="45.9785544" lon="12.7453073"><ele>29.0</ele><time>2026-04-12T17:12:16.331Z</time></trkpt><trkpt lat="45.9786432" lon="12.7453171"><ele>29.0</ele><time>2026-04-12T17:12:18.332Z</time></trkpt><trkpt lat="45.978729" lon="12.7453039"><ele>28.999999999999996</ele><time>2026-04-12T17:12:20.332Z</time></trkpt><trkpt lat="45.9788213" lon="12.7452853"><ele>29.0</ele><time>2026-04-12T17:12:22.331Z</time></trkpt><trkpt lat="45.978905" lon="12.7452602"><ele>28.999999999999996</ele><time>2026-04-12T17:12:24.331Z</time></trkpt><trkpt lat="45.9789837" lon="12.7452125"><ele>29.0</ele><time>2026-04-12T17:12:26.331Z</time></trkpt><trkpt lat="45.979028" lon="12.7451006"><ele>29.0</ele><time>2026-04-12T17:12:28.332Z</time></trkpt><trkpt lat="45.9790302" lon="12.7449449"><ele>29.0</ele><time>2026-04-12T17:12:30.331Z</time></trkpt><trkpt lat="45.9790235" lon="12.7448253"><ele>28.999999999999996</ele><time>2026-04-12T17:12:32.331Z</time></trkpt><trkpt lat="45.9790671" lon="12.7447281"><ele>29.0</ele><time>2026-04-12T17:12:34.331Z</time></trkpt><trkpt lat="45.979138" lon="12.7447257"><ele>28.833333333333332</ele><time>2026-04-12T17:12:36.331Z</time></trkpt><trkpt lat="45.9792095" lon="12.7447371"><ele>28.666666666666664</ele><time>2026-04-12T17:12:38.331Z</time></trkpt><trkpt lat="45.9792705" lon="12.7446538"><ele>28.5</ele><time>2026-04-12T17:12:40.331Z</time></trkpt><trkpt lat="45.9793008" lon="12.7445437"><ele>28.333333333333336</ele><time>2026-04-12T17:12:42.331Z</time></trkpt><trkpt lat="45.9791997" lon="12.74445"><ele>28.166666666666668</ele><time>2026-04-12T17:12:44.331Z</time></trkpt><trkpt lat="45.9791195" lon="12.7444318"><ele>28.0</ele><time>2026-04-12T17:12:46.331Z</time></trkpt><trkpt lat="45.9790327" lon="12.7444867"><ele>28.666666666666668</ele><time>2026-04-12T17:12:48.332Z</time></trkpt><trkpt lat="45.978973" lon="12.7445753"><ele>29.333333333333336</ele><time>2026-04-12T17:12:50.331Z</time></trkpt><trkpt lat="45.9789235" lon="12.7446764"><ele>30.0</ele><time>2026-04-12T17:12:52.331Z</time></trkpt><trkpt lat="45.978902" lon="12.7447889"><ele>30.666666666666664</ele><time>2026-04-12T17:12:54.331Z</time></trkpt><trkpt lat="45.9788681" lon="12.7449135"><ele>31.333333333333332</ele><time>2026-04-12T17:12:56.331Z</time></trkpt><trkpt lat="45.9788071" lon="12.7450144"><ele>32.0</ele><time>2026-04-12T17:12:58.331Z</time></trkpt><trkpt lat="45.9787352" lon="12.7450832"><ele>32.0</ele><time>2026-04-12T17:13:00.331Z</time></trkpt><trkpt lat="45.9786303" lon="12.7451409"><ele>32.0</ele><time>2026-04-12T17:13:02.331Z</time></trkpt><trkpt lat="45.9785213" lon="12.7451776"><ele>32.0</ele><time>2026-04-12T17:13:04.331Z</time></trkpt><trkpt lat="45.9784088" lon="12.7452547"><ele>32.0</ele><time>2026-04-12T17:13:06.331Z</time></trkpt><trkpt lat="45.9783151" lon="12.745306"><ele>32.0</ele><time>2026-04-12T17:13:08.331Z</time></trkpt><trkpt lat="45.978245" lon="12.7453952"><ele>32.2</ele><time>2026-04-12T17:13:10.331Z</time></trkpt><trkpt lat="45.9782295" lon="12.7455116"><ele>32.400000000000006</ele><time>2026-04-12T17:13:12.331Z</time></trkpt><trkpt lat="45.9782262" lon="12.745647"><ele>32.599999999999994</ele><time>2026-04-12T17:13:14.331Z</time></trkpt><trkpt lat="45.9782441" lon="12.7457607"><ele>32.8</ele><time>2026-04-12T17:13:16.331Z</time></trkpt><trkpt lat="45.9782662" lon="12.7458752"><ele>33.0</ele><time>2026-04-12T17:13:18.331Z</time></trkpt><trkpt lat="45.9782741" lon="12.7460393"><ele>32.6</ele><time>2026-04-12T17:13:20.331Z</time></trkpt><trkpt lat="45.9782953" lon="12.7461882"><ele>32.199999999999996</ele><time>2026-04-12T17:13:22.331Z</time></trkpt><trkpt lat="45.9783107" lon="12.7463433"><ele>31.8</ele><time>2026-04-12T17:13:24.332Z</time></trkpt><trkpt lat="45.9783431" lon="12.7464573"><ele>31.4</ele><time>2026-04-12T17:13:26.332Z</time></trkpt><trkpt lat="45.9783958" lon="12.7465904"><ele>31.0</ele><time>2026-04-12T17:13:28.331Z</time></trkpt><trkpt lat="45.9784618" lon="12.7467008"><ele>30.6</ele><time>2026-04-12T17:13:30.331Z</time></trkpt><trkpt lat="45.9785215" lon="12.7467974"><ele>30.200000000000003</ele><time>2026-04-12T17:13:32.331Z</time></trkpt><trkpt lat="45.9785872" lon="12.7469008"><ele>29.799999999999997</ele><time>2026-04-12T17:13:34.331Z</time></trkpt><trkpt lat="45.9786462" lon="12.7470075"><ele>29.4</ele><time>2026-04-12T17:13:36.331Z</time></trkpt><trkpt lat="45.9787204" lon="12.7470829"><ele>29.0</ele><time>2026-04-12T17:13:38.331Z</time></trkpt><trkpt lat="45.9787966" lon="12.7471362"><ele>28.999999999999996</ele><time>2026-04-12T17:13:40.331Z</time></trkpt><trkpt lat="45.9788762" lon="12.7471474"><ele>29.0</ele><time>2026-04-12T17:13:43.331Z</time></trkpt><trkpt lat="45.9789512" lon="12.7470954"><ele>29.0</ele><time>2026-04-12T17:13:46.331Z</time></trkpt><trkpt lat="45.9790155" lon="12.7470702"><ele>29.0</ele><time>2026-04-12T17:13:48.331Z</time></trkpt><trkpt lat="45.9790923" lon="12.7471015"><ele>28.999999999999996</ele><time>2026-04-12T17:13:50.332Z</time></trkpt><trkpt lat="45.979126" lon="12.7472446"><ele>29.0</ele><time>2026-04-12T17:13:52.331Z</time></trkpt><trkpt lat="45.9791257" lon="12.747392"><ele>29.000000000000004</ele><time>2026-04-12T17:13:54.331Z</time></trkpt><trkpt lat="45.9791304" lon="12.7474848"><ele>29.0</ele><time>2026-04-12T17:13:56.331Z</time></trkpt><trkpt lat="45.9791816" lon="12.7475428"><ele>29.000000000000004</ele><time>2026-04-12T17:13:58.331Z</time></trkpt><trkpt lat="45.979225" lon="12.7476145"><ele>29.000000000000004</ele><time>2026-04-12T17:14:00.331Z</time></trkpt><trkpt lat="45.9792915" lon="12.7476476"><ele>29.0</ele><time>2026-04-12T17:14:02.331Z</time></trkpt><trkpt lat="45.9793693" lon="12.7476749"><ele>29.000000000000004</ele><time>2026-04-12T17:14:04.331Z</time></trkpt><trkpt lat="45.9794307" lon="12.7477654"><ele>29.000000000000004</ele><time>2026-04-12T17:14:07.331Z</time></trkpt><trkpt lat="45.9794611" lon="12.7478823"><ele>29.799999999999997</ele><time>2026-04-12T17:14:09.331Z</time></trkpt><trkpt lat="45.9795548" lon="12.7479304"><ele>30.599999999999998</ele><time>2026-04-12T17:14:11.331Z</time></trkpt><trkpt lat="45.9796597" lon="12.7479446"><ele>31.4</ele><time>2026-04-12T17:14:13.331Z</time></trkpt><trkpt lat="45.9797217" lon="12.7479256"><ele>32.199999999999996</ele><time>2026-04-12T17:14:14.331Z</time></trkpt><trkpt lat="45.9798491" lon="12.747902"><ele>33.0</ele><time>2026-04-12T17:14:16.331Z</time></trkpt><trkpt lat="45.9799116" lon="12.7478904"><ele>33.0</ele><time>2026-04-12T17:14:17.331Z</time></trkpt><trkpt lat="45.9800049" lon="12.7478373"><ele>33.0</ele><time>2026-04-12T17:14:19.331Z</time></trkpt><trkpt lat="45.9800509" lon="12.7477414"><ele>33.0</ele><time>2026-04-12T17:14:21.331Z</time></trkpt><trkpt lat="45.9800562" lon="12.7476056"><ele>33.0</ele><time>2026-04-12T17:14:23.331Z</time></trkpt><trkpt lat="45.9800544" lon="12.7474931"><ele>33.0</ele><time>2026-04-12T17:14:25.331Z</time></trkpt><trkpt lat="45.9801104" lon="12.7474121"><ele>33.0</ele><time>2026-04-12T17:14:28.331Z</time></trkpt><trkpt lat="45.9802048" lon="12.7473748"><ele>33.0</ele><time>2026-04-12T17:14:30.331Z</time></trkpt><trkpt lat="45.9802857" lon="12.7473577"><ele>33.0</ele><time>2026-04-12T17:14:32.331Z</time></trkpt><trkpt lat="45.9803637" lon="12.7472979"><ele>33.0</ele><time>2026-04-12T17:14:34.332Z</time></trkpt><trkpt lat="45.9804426" lon="12.7472172"><ele>33.0</ele><time>2026-04-12T17:14:36.331Z</time></trkpt><trkpt lat="45.980505" lon="12.7471838"><ele>33.0</ele><time>2026-04-12T17:14:38.332Z</time></trkpt><trkpt lat="45.9805761" lon="12.7472304"><ele>33.0</ele><time>2026-04-12T17:14:40.332Z</time></trkpt><trkpt lat="45.9806529" lon="12.7472922"><ele>33.0</ele><time>2026-04-12T17:14:42.331Z</time></trkpt><trkpt lat="45.9807326" lon="12.7473396"><ele>33.0</ele><time>2026-04-12T17:14:44.331Z</time></trkpt><trkpt lat="45.9807947" lon="12.7473662"><ele>33.0</ele><time>2026-04-12T17:14:46.331Z</time></trkpt><trkpt lat="45.9808604" lon="12.7473936"><ele>33.0</ele><time>2026-04-12T17:14:48.331Z</time></trkpt><trkpt lat="45.9809354" lon="12.7473787"><ele>33.0</ele><time>2026-04-12T17:14:50.332Z</time></trkpt><trkpt lat="45.9810002" lon="12.7473925"><ele>33.0</ele><time>2026-04-12T17:14:52.331Z</time></trkpt><trkpt lat="45.9810509" lon="12.7474801"><ele>33.0</ele><time>2026-04-12T17:14:54.331Z</time></trkpt><trkpt lat="45.9810597" lon="12.7475745"><ele>33.0</ele><time>2026-04-12T17:14:56.331Z</time></trkpt><trkpt lat="45.9810147" lon="12.747685"><ele>33.0</ele><time>2026-04-12T17:14:59.332Z</time></trkpt><trkpt lat="45.9809586" lon="12.7477873"><ele>33.0</ele><time>2026-04-12T17:15:01.331Z</time></trkpt><trkpt lat="45.9809069" lon="12.7479082"><ele>33.0</ele><time>2026-04-12T17:15:03.331Z</time></trkpt><trkpt lat="45.9808851" lon="12.7480006"><ele>33.0</ele><time>2026-04-12T17:15:05.331Z</time></trkpt><trkpt lat="45.9808968" lon="12.7480914"><ele>33.0</ele><time>2026-04-12T17:15:07.331Z</time></trkpt><trkpt lat="45.9809904" lon="12.748138"><ele>33.0</ele><time>2026-04-12T17:15:10.331Z</time></trkpt><trkpt lat="45.981066" lon="12.7480792"><ele>33.0</ele><time>2026-04-12T17:15:12.332Z</time></trkpt><trkpt lat="45.9811443" lon="12.7480391"><ele>33.0</ele><time>2026-04-12T17:15:14.331Z</time></trkpt><trkpt lat="45.9812071" lon="12.7480686"><ele>33.0</ele><time>2026-04-12T17:15:16.331Z</time></trkpt><trkpt lat="45.9812403" lon="12.7481506"><ele>33.0</ele><time>2026-04-12T17:15:18.331Z</time></trkpt><trkpt lat="45.9812211" lon="12.7482688"><ele>33.0</ele><time>2026-04-12T17:15:20.331Z</time></trkpt><trkpt lat="45.9811587" lon="12.7483951"><ele>33.0</ele><time>2026-04-12T17:15:22.331Z</time></trkpt><trkpt lat="45.9810878" lon="12.7484969"><ele>33.0</ele><time>2026-04-12T17:15:24.331Z</time></trkpt><trkpt lat="45.9810272" lon="12.7485619"><ele>33.0</ele><time>2026-04-12T17:15:26.331Z</time></trkpt><trkpt lat="45.9809691" lon="12.7486212"><ele>33.0</ele><time>2026-04-12T17:15:29.331Z</time></trkpt><trkpt lat="45.9809223" lon="12.7487017"><ele>33.0</ele><time>2026-04-12T17:15:32.331Z</time></trkpt><trkpt lat="45.9808642" lon="12.7487451"><ele>33.0</ele><time>2026-04-12T17:15:40.331Z</time></trkpt><trkpt lat="45.9807871" lon="12.7487458"><ele>32.833333333333336</ele><time>2026-04-12T17:15:44.331Z</time></trkpt><trkpt lat="45.980729" lon="12.7486996"><ele>32.666666666666664</ele><time>2026-04-12T17:15:51.331Z</time></trkpt><trkpt lat="45.9806682" lon="12.7486505"><ele>32.5</ele><time>2026-04-12T17:15:53.331Z</time></trkpt><trkpt lat="45.9805895" lon="12.7486144"><ele>32.33333333333333</ele><time>2026-04-12T17:15:55.331Z</time></trkpt><trkpt lat="45.9805143" lon="12.7485857"><ele>32.166666666666664</ele><time>2026-04-12T17:15:57.331Z</time></trkpt><trkpt lat="45.9804432" lon="12.7485497"><ele>32.0</ele><time>2026-04-12T17:15:59.331Z</time></trkpt><trkpt lat="45.9803681" lon="12.7485092"><ele>32.0</ele><time>2026-04-12T17:16:02.331Z</time></trkpt><trkpt lat="45.9803079" lon="12.7484726"><ele>31.999999999999996</ele><time>2026-04-12T17:16:04.331Z</time></trkpt><trkpt lat="45.9802428" lon="12.7484381"><ele>32.0</ele><time>2026-04-12T17:16:06.331Z</time></trkpt><trkpt lat="45.9801789" lon="12.7484133"><ele>32.0</ele><time>2026-04-12T17:16:09.331Z</time></trkpt><trkpt lat="45.9801065" lon="12.7483877"><ele>31.999999999999996</ele><time>2026-04-12T17:16:13.331Z</time></trkpt><trkpt lat="45.980037" lon="12.7483636"><ele>32.0</ele><time>2026-04-12T17:16:16.331Z</time></trkpt><trkpt lat="45.9799657" lon="12.7483722"><ele>32.0</ele><time>2026-04-12T17:16:18.331Z</time></trkpt><trkpt lat="45.9798983" lon="12.7484"><ele>32.166666666666664</ele><time>2026-04-12T17:16:21.332Z</time></trkpt><trkpt lat="45.9798156" lon="12.7483851"><ele>32.33333333333333</ele><time>2026-04-12T17:16:24.332Z</time></trkpt><trkpt lat="45.979745" lon="12.7483365"><ele>32.5</ele><time>2026-04-12T17:16:27.331Z</time></trkpt><trkpt lat="45.9796742" lon="12.7482862"><ele>32.666666666666664</ele><time>2026-04-12T17:17:34.331Z</time></trkpt><trkpt lat="45.9796018" lon="12.7482368"><ele>32.833333333333336</ele><time>2026-04-12T17:17:38.331Z</time></trkpt><trkpt lat="45.9795387" lon="12.7481716"><ele>33.0</ele><time>2026-04-12T17:17:43.332Z</time></trkpt><trkpt lat="45.9795308" lon="12.7480745"><ele>33.0</ele><time>2026-04-12T17:18:07.331Z</time></trkpt><trkpt lat="45.9795585" lon="12.7479738"><ele>33.0</ele><time>2026-04-12T17:18:20.331Z</time></trkpt><trkpt lat="45.9796341" lon="12.7479252"><ele>33.0</ele><time>2026-04-12T17:19:51.331Z</time></trkpt><trkpt lat="45.9796823" lon="12.7478623"><ele>33.0</ele><time>2026-04-12T17:19:56.351Z</time></trkpt><trkpt lat="45.9797529" lon="12.7478337"><ele>33.0</ele><time>2026-04-12T17:19:59.331Z</time></trkpt><trkpt lat="45.9798229" lon="12.7478334"><ele>33.0</ele><time>2026-04-12T17:20:02.332Z</time></trkpt><trkpt lat="45.9798916" lon="12.7478369"><ele>33.0</ele><time>2026-04-12T17:20:06.352Z</time></trkpt><trkpt lat="45.9799558" lon="12.7478372"><ele>33.0</ele><time>2026-04-12T17:20:10.331Z</time></trkpt><trkpt lat="45.9800227" lon="12.7477946"><ele>33.0</ele><time>2026-04-12T17:20:15.331Z</time></trkpt><trkpt lat="45.9800552" lon="12.7477079"><ele>33.0</ele><time>2026-04-12T17:20:20.331Z</time></trkpt><trkpt lat="45.9800625" lon="12.7476134"><ele>33.0</ele><time>2026-04-12T17:20:25.331Z</time></trkpt><trkpt lat="45.9800639" lon="12.7475173"><ele>33.0</ele><time>2026-04-12T17:20:30.331Z</time></trkpt><trkpt lat="45.9800597" lon="12.7474175"><ele>33.0</ele><time>2026-04-12T17:20:35.331Z</time></trkpt><trkpt lat="45.980051" lon="12.7473195"><ele>33.0</ele><time>2026-04-12T17:20:40.331Z</time></trkpt><trkpt lat="45.9800297" lon="12.7472197"><ele>32.857142857142854</ele><time>2026-04-12T17:20:45.331Z</time></trkpt><trkpt lat="45.9800033" lon="12.747137"><ele>32.714285714285715</ele><time>2026-04-12T17:20:50.331Z</time></trkpt><trkpt lat="45.9799935" lon="12.7470439"><ele>32.57142857142857</ele><time>2026-04-12T17:20:56.331Z</time></trkpt><trkpt lat="45.9799674" lon="12.746949"><ele>32.42857142857143</ele><time>2026-04-12T17:22:14.332Z</time></trkpt><trkpt lat="45.9799366" lon="12.7468551"><ele>32.285714285714285</ele><time>2026-04-12T17:23:00.332Z</time></trkpt><trkpt lat="45.9799483" lon="12.7467648"><ele>32.14285714285714</ele><time>2026-04-12T17:23:04.331Z</time></trkpt><trkpt lat="45.9799833" lon="12.7466694"><ele>32.0</ele><time>2026-04-12T17:23:10.312Z</time></trkpt><trkpt lat="45.9800276" lon="12.7465887"><ele>32.0</ele><time>2026-04-12T17:23:16.347Z</time></trkpt><trkpt lat="45.98007" lon="12.7465165"><ele>31.999999999999996</ele><time>2026-04-12T17:23:21.331Z</time></trkpt><trkpt lat="45.9801174" lon="12.7464338"><ele>32.0</ele><time>2026-04-12T17:23:27.331Z</time></trkpt><trkpt lat="45.9801679" lon="12.7463592"><ele>32.0</ele><time>2026-04-12T17:23:33.331Z</time></trkpt><trkpt lat="45.9802205" lon="12.7462877"><ele>31.999999999999996</ele><time>2026-04-12T17:23:39.331Z</time></trkpt><trkpt lat="45.9802699" lon="12.7462095"><ele>32.0</ele><time>2026-04-12T17:23:45.331Z</time></trkpt><trkpt lat="45.9803115" lon="12.7461382"><ele>32.0</ele><time>2026-04-12T17:23:50.332Z</time></trkpt><trkpt lat="45.9803615" lon="12.7460781"><ele>31.857142857142854</ele><time>2026-04-12T17:25:05.331Z</time></trkpt><trkpt lat="45.9804027" lon="12.746004"><ele>31.71428571428571</ele><time>2026-04-12T17:25:11.264Z</time></trkpt><trkpt lat="45.9804501" lon="12.7459258"><ele>31.57142857142857</ele><time>2026-04-12T17:25:18.331Z</time></trkpt><trkpt lat="45.9804911" lon="12.7458419"><ele>31.42857142857143</ele><time>2026-04-12T17:25:25.346Z</time></trkpt><trkpt lat="45.9805359" lon="12.7457682"><ele>31.28571428571429</ele><time>2026-04-12T17:25:31.28Z</time></trkpt><trkpt lat="45.9805798" lon="12.7456896"><ele>31.142857142857146</ele><time>2026-04-12T17:25:37.331Z</time></trkpt><trkpt lat="45.9806216" lon="12.7456191"><ele>31.0</ele><time>2026-04-12T17:25:42.331Z</time></trkpt><trkpt lat="45.9806575" lon="12.7455288"><ele>31.0</ele><time>2026-04-12T17:25:48.331Z</time></trkpt><trkpt lat="45.980676" lon="12.7454301"><ele>31.000000000000004</ele><time>2026-04-12T17:25:54.332Z</time></trkpt><trkpt lat="45.9806817" lon="12.7453397"><ele>31.0</ele><time>2026-04-12T17:25:59.331Z</time></trkpt><trkpt lat="45.9806803" lon="12.7452346"><ele>31.0</ele><time>2026-04-12T17:26:05.332Z</time></trkpt><trkpt lat="45.9806772" lon="12.7451329"><ele>31.000000000000004</ele><time>2026-04-12T17:26:11.331Z</time></trkpt><trkpt lat="45.9806871" lon="12.745031"><ele>31.0</ele><time>2026-04-12T17:26:17.331Z</time></trkpt><trkpt lat="45.9807056" lon="12.7449335"><ele>31.0</ele><time>2026-04-12T17:26:23.272Z</time></trkpt><trkpt lat="45.9807516" lon="12.7448571"><ele>30.857142857142858</ele><time>2026-04-12T17:26:29.331Z</time></trkpt><trkpt lat="45.9808164" lon="12.7448824"><ele>30.714285714285715</ele><time>2026-04-12T17:26:35.331Z</time></trkpt><trkpt lat="45.9808758" lon="12.7449434"><ele>30.571428571428573</ele><time>2026-04-12T17:26:41.325Z</time></trkpt><trkpt lat="45.9809325" lon="12.7449996"><ele>30.42857142857143</ele><time>2026-04-12T17:26:47.331Z</time></trkpt><trkpt lat="45.9809915" lon="12.7450383"><ele>30.285714285714285</ele><time>2026-04-12T17:26:53.331Z</time></trkpt><trkpt lat="45.9810572" lon="12.7450692"><ele>30.142857142857146</ele><time>2026-04-12T17:26:59.331Z</time></trkpt><trkpt lat="45.9811155" lon="12.7451134"><ele>30.0</ele><time>2026-04-12T17:27:05.307Z</time></trkpt><trkpt lat="45.9811619" lon="12.7451754"><ele>30.42857142857143</ele><time>2026-04-12T17:27:10.265Z</time></trkpt><trkpt lat="45.9812009" lon="12.7452523"><ele>30.857142857142854</ele><time>2026-04-12T17:27:16.232Z</time></trkpt><trkpt lat="45.9812246" lon="12.7453424"><ele>31.285714285714285</ele><time>2026-04-12T17:27:22.331Z</time></trkpt><trkpt lat="45.9812489" lon="12.7454262"><ele>31.714285714285715</ele><time>2026-04-12T17:27:27.327Z</time></trkpt><trkpt lat="45.9812654" lon="12.7455246"><ele>32.142857142857146</ele><time>2026-04-12T17:27:33.331Z</time></trkpt><trkpt lat="45.981294" lon="12.7456175"><ele>32.57142857142857</ele><time>2026-04-12T17:27:39.349Z</time></trkpt><trkpt lat="45.9813256" lon="12.7457006"><ele>33.0</ele><time>2026-04-12T17:27:45.331Z</time></trkpt><trkpt lat="45.9813569" lon="12.7457813"><ele>33.0</ele><time>2026-04-12T17:27:51.331Z</time></trkpt><trkpt lat="45.981385" lon="12.7458645"><ele>33.0</ele><time>2026-04-12T17:27:57.331Z</time></trkpt><trkpt lat="45.9814122" lon="12.7459568"><ele>33.0</ele><time>2026-04-12T17:28:03.331Z</time></trkpt><trkpt lat="45.9814421" lon="12.7460438"><ele>33.0</ele><time>2026-04-12T17:28:09.331Z</time></trkpt><trkpt lat="45.9814726" lon="12.7461241"><ele>33.0</ele><time>2026-04-12T17:28:15.331Z</time></trkpt><trkpt lat="45.9815048" lon="12.7462071"><ele>33.0</ele><time>2026-04-12T17:28:21.332Z</time></trkpt><trkpt lat="45.9815411" lon="12.7462922"><ele>33.0</ele><time>2026-04-12T17:28:27.331Z</time></trkpt><trkpt lat="45.9815782" lon="12.7463746"><ele>32.857142857142854</ele><time>2026-04-12T17:28:33.332Z</time></trkpt><trkpt lat="45.9816138" lon="12.7464665"><ele>32.714285714285715</ele><time>2026-04-12T17:28:39.331Z</time></trkpt><trkpt lat="45.9816501" lon="12.7465443"><ele>32.57142857142857</ele><time>2026-04-12T17:28:45.295Z</time></trkpt><trkpt lat="45.9816806" lon="12.7466305"><ele>32.42857142857143</ele><time>2026-04-12T17:28:51.331Z</time></trkpt><trkpt lat="45.9817059" lon="12.7467183"><ele>32.285714285714285</ele><time>2026-04-12T17:28:57.331Z</time></trkpt><trkpt lat="45.9817412" lon="12.7468003"><ele>32.14285714285714</ele><time>2026-04-12T17:29:03.331Z</time></trkpt><trkpt lat="45.9817734" lon="12.7468823"><ele>32.0</ele><time>2026-04-12T17:29:09.331Z</time></trkpt><trkpt lat="45.9818153" lon="12.7469679"><ele>32.0</ele><time>2026-04-12T17:29:16.327Z</time></trkpt><trkpt lat="45.9818492" lon="12.7470507"><ele>31.999999999999996</ele><time>2026-04-12T17:29:22.331Z</time></trkpt><trkpt lat="45.9818834" lon="12.7471379"><ele>32.0</ele><time>2026-04-12T17:29:28.308Z</time></trkpt><trkpt lat="45.9819212" lon="12.7472163"><ele>32.0</ele><time>2026-04-12T17:29:34.264Z</time></trkpt><trkpt lat="45.981952" lon="12.7472982"><ele>31.999999999999996</ele><time>2026-04-12T17:29:40.29Z</time></trkpt><trkpt lat="45.9819818" lon="12.7473791"><ele>32.0</ele><time>2026-04-12T17:29:46.331Z</time></trkpt><trkpt lat="45.9820185" lon="12.7474648"><ele>32.0</ele><time>2026-04-12T17:29:52.331Z</time></trkpt><trkpt lat="45.9820586" lon="12.7475577"><ele>32.0</ele><time>2026-04-12T17:29:59.331Z</time></trkpt><trkpt lat="45.9820886" lon="12.747642"><ele>31.999999999999996</ele><time>2026-04-12T17:30:05.331Z</time></trkpt><trkpt lat="45.9821239" lon="12.7477351"><ele>32.0</ele><time>2026-04-12T17:30:12.331Z</time></trkpt><trkpt lat="45.982156" lon="12.7478167"><ele>32.0</ele><time>2026-04-12T17:30:19.331Z</time></trkpt><trkpt lat="45.9821987" lon="12.7479021"><ele>31.999999999999996</ele><time>2026-04-12T17:30:25.331Z</time></trkpt><trkpt lat="45.9822252" lon="12.7479846"><ele>32.0</ele><time>2026-04-12T17:30:31.331Z</time></trkpt><trkpt lat="45.9822554" lon="12.7480659"><ele>32.0</ele><time>2026-04-12T17:30:37.331Z</time></trkpt><trkpt lat="45.9822911" lon="12.7481425"><ele>32.14285714285714</ele><time>2026-04-12T17:30:43.331Z</time></trkpt><trkpt lat="45.9823229" lon="12.7482309"><ele>32.285714285714285</ele><time>2026-04-12T17:30:49.331Z</time></trkpt><trkpt lat="45.982348" lon="12.7483208"><ele>32.42857142857143</ele><time>2026-04-12T17:30:55.332Z</time></trkpt><trkpt lat="45.9823667" lon="12.748414"><ele>32.57142857142857</ele><time>2026-04-12T17:31:01.332Z</time></trkpt><trkpt lat="45.9823866" lon="12.7485003"><ele>32.714285714285715</ele><time>2026-04-12T17:31:07.331Z</time></trkpt><trkpt lat="45.9824151" lon="12.7485828"><ele>32.857142857142854</ele><time>2026-04-12T17:31:13.331Z</time></trkpt><trkpt lat="45.9824615" lon="12.7486638"><ele>33.0</ele><time>2026-04-12T17:31:20.331Z</time></trkpt><trkpt lat="45.9825274" lon="12.7486807"><ele>33.0</ele><time>2026-04-12T17:31:27.331Z</time></trkpt><trkpt lat="45.9825386" lon="12.7485902"><ele>33.0</ele><time>2026-04-12T17:33:26.331Z</time></trkpt><trkpt lat="45.9825904" lon="12.7485371"><ele>33.0</ele><time>2026-04-12T17:33:32.331Z</time></trkpt><trkpt lat="45.9826441" lon="12.7484716"><ele>33.0</ele><time>2026-04-12T17:34:02.331Z</time></trkpt><trkpt lat="45.9827186" lon="12.7484627"><ele>33.0</ele><time>2026-04-12T17:34:05.331Z</time></trkpt><trkpt lat="45.9828569" lon="12.7485675"><ele>33.0</ele><time>2026-04-12T17:34:07.331Z</time></trkpt><trkpt lat="45.9829602" lon="12.7486388"><ele>33.14285714285714</ele><time>2026-04-12T17:34:08.331Z</time></trkpt><trkpt lat="45.9830347" lon="12.7486695"><ele>33.285714285714285</ele><time>2026-04-12T17:34:09.331Z</time></trkpt><trkpt lat="45.9831011" lon="12.7486829"><ele>33.42857142857143</ele><time>2026-04-12T17:34:10.331Z</time></trkpt><trkpt lat="45.9831736" lon="12.7486881"><ele>33.57142857142857</ele><time>2026-04-12T17:34:11.331Z</time></trkpt><trkpt lat="45.9832436" lon="12.7486919"><ele>33.714285714285715</ele><time>2026-04-12T17:34:12.331Z</time></trkpt><trkpt lat="45.9833193" lon="12.7486927"><ele>33.857142857142854</ele><time>2026-04-12T17:34:13.332Z</time></trkpt><trkpt lat="45.9833956" lon="12.7486964"><ele>34.0</ele><time>2026-04-12T17:34:14.331Z</time></trkpt><trkpt lat="45.9834708" lon="12.7486981"><ele>33.99999999999999</ele><time>2026-04-12T17:34:15.331Z</time></trkpt><trkpt lat="45.9835501" lon="12.7486912"><ele>34.0</ele><time>2026-04-12T17:34:16.331Z</time></trkpt><trkpt lat="45.9836233" lon="12.7486843"><ele>34.0</ele><time>2026-04-12T17:34:17.331Z</time></trkpt><trkpt lat="45.9836963" lon="12.7486836"><ele>34.0</ele><time>2026-04-12T17:34:18.331Z</time></trkpt><trkpt lat="45.9837669" lon="12.7486835"><ele>34.0</ele><time>2026-04-12T17:34:19.331Z</time></trkpt><trkpt lat="45.9838375" lon="12.7486866"><ele>33.99999999999999</ele><time>2026-04-12T17:34:20.331Z</time></trkpt><trkpt lat="45.9839093" lon="12.7486894"><ele>34.0</ele><time>2026-04-12T17:34:21.331Z</time></trkpt><trkpt lat="45.9839836" lon="12.7486954"><ele>34.0</ele><time>2026-04-12T17:34:22.331Z</time></trkpt><trkpt lat="45.9840577" lon="12.7487008"><ele>34.0</ele><time>2026-04-12T17:34:23.331Z</time></trkpt><trkpt lat="45.9841393" lon="12.7487029"><ele>34.0</ele><time>2026-04-12T17:34:24.331Z</time></trkpt><trkpt lat="45.9842131" lon="12.7487014"><ele>34.0</ele><time>2026-04-12T17:34:25.331Z</time></trkpt><trkpt lat="45.9842928" lon="12.7486984"><ele>34.0</ele><time>2026-04-12T17:34:26.331Z</time></trkpt><trkpt lat="45.9843658" lon="12.7487058"><ele>34.0</ele><time>2026-04-12T17:34:27.332Z</time></trkpt><trkpt lat="45.9844434" lon="12.7487024"><ele>33.833333333333336</ele><time>2026-04-12T17:34:28.331Z</time></trkpt><trkpt lat="45.9845204" lon="12.7486949"><ele>33.66666666666667</ele><time>2026-04-12T17:34:29.331Z</time></trkpt><trkpt lat="45.9845947" lon="12.7486752"><ele>33.5</ele><time>2026-04-12T17:34:30.331Z</time></trkpt><trkpt lat="45.9846701" lon="12.7486533"><ele>33.333333333333336</ele><time>2026-04-12T17:34:31.331Z</time></trkpt><trkpt lat="45.9847435" lon="12.7486232"><ele>33.166666666666664</ele><time>2026-04-12T17:34:32.331Z</time></trkpt><trkpt lat="45.9848144" lon="12.748592"><ele>33.0</ele><time>2026-04-12T17:34:33.331Z</time></trkpt><trkpt lat="45.9848874" lon="12.7485587"><ele>33.166666666666664</ele><time>2026-04-12T17:34:34.331Z</time></trkpt><trkpt lat="45.984959" lon="12.748528"><ele>33.333333333333336</ele><time>2026-04-12T17:34:35.331Z</time></trkpt><trkpt lat="45.9850336" lon="12.7484949"><ele>33.5</ele><time>2026-04-12T17:34:36.331Z</time></trkpt><trkpt lat="45.9851136" lon="12.7484555"><ele>33.66666666666667</ele><time>2026-04-12T17:34:37.331Z</time></trkpt><trkpt lat="45.9851945" lon="12.7484185"><ele>33.833333333333336</ele><time>2026-04-12T17:34:38.331Z</time></trkpt><trkpt lat="45.9852698" lon="12.7483797"><ele>34.0</ele><time>2026-04-12T17:34:39.331Z</time></trkpt><trkpt lat="45.9853494" lon="12.7483455"><ele>34.0</ele><time>2026-04-12T17:34:40.331Z</time></trkpt><trkpt lat="45.9854278" lon="12.7483098"><ele>34.0</ele><time>2026-04-12T17:34:41.332Z</time></trkpt><trkpt lat="45.9855075" lon="12.7482796"><ele>34.0</ele><time>2026-04-12T17:34:42.331Z</time></trkpt><trkpt lat="45.9855869" lon="12.7482427"><ele>34.0</ele><time>2026-04-12T17:34:43.331Z</time></trkpt><trkpt lat="45.9856642" lon="12.7481966"><ele>34.0</ele><time>2026-04-12T17:34:44.332Z</time></trkpt><trkpt lat="45.9857395" lon="12.7481409"><ele>34.0</ele><time>2026-04-12T17:34:45.331Z</time></trkpt><trkpt lat="45.9858133" lon="12.7480799"><ele>34.5</ele><time>2026-04-12T17:34:46.331Z</time></trkpt><trkpt lat="45.9858886" lon="12.7480104"><ele>35.0</ele><time>2026-04-12T17:34:47.331Z</time></trkpt><trkpt lat="45.9859565" lon="12.7479412"><ele>35.5</ele><time>2026-04-12T17:34:48.331Z</time></trkpt><trkpt lat="45.9860276" lon="12.7478724"><ele>36.0</ele><time>2026-04-12T17:34:49.331Z</time></trkpt><trkpt lat="45.9860969" lon="12.7477986"><ele>36.5</ele><time>2026-04-12T17:34:50.331Z</time></trkpt><trkpt lat="45.9861605" lon="12.7477168"><ele>37.0</ele><time>2026-04-12T17:34:51.332Z</time></trkpt><trkpt lat="45.9862255" lon="12.7476319"><ele>37.0</ele><time>2026-04-12T17:34:52.331Z</time></trkpt><trkpt lat="45.9862901" lon="12.7475414"><ele>37.0</ele><time>2026-04-12T17:34:53.331Z</time></trkpt><trkpt lat="45.9863579" lon="12.7474566"><ele>37.0</ele><time>2026-04-12T17:34:54.331Z</time></trkpt><trkpt lat="45.9864261" lon="12.7473781"><ele>37.0</ele><time>2026-04-12T17:34:55.332Z</time></trkpt><trkpt lat="45.9864953" lon="12.7473066"><ele>37.0</ele><time>2026-04-12T17:34:56.331Z</time></trkpt><trkpt lat="45.9865644" lon="12.7472416"><ele>37.0</ele><time>2026-04-12T17:34:57.331Z</time></trkpt><trkpt lat="45.9866376" lon="12.7471944"><ele>36.833333333333336</ele><time>2026-04-12T17:34:58.331Z</time></trkpt><trkpt lat="45.9867117" lon="12.7471538"><ele>36.66666666666667</ele><time>2026-04-12T17:34:59.331Z</time></trkpt><trkpt lat="45.9867869" lon="12.7471153"><ele>36.5</ele><time>2026-04-12T17:35:00.331Z</time></trkpt><trkpt lat="45.9868674" lon="12.7470873"><ele>36.333333333333336</ele><time>2026-04-12T17:35:01.331Z</time></trkpt><trkpt lat="45.9869546" lon="12.7470666"><ele>36.166666666666664</ele><time>2026-04-12T17:35:02.331Z</time></trkpt><trkpt lat="45.9870441" lon="12.7470506"><ele>36.0</ele><time>2026-04-12T17:35:03.331Z</time></trkpt><trkpt lat="45.9871336" lon="12.7470257"><ele>36.0</ele><time>2026-04-12T17:35:04.331Z</time></trkpt><trkpt lat="45.9872277" lon="12.7470034"><ele>36.0</ele><time>2026-04-12T17:35:05.331Z</time></trkpt><trkpt lat="45.987321" lon="12.7469862"><ele>36.0</ele><time>2026-04-12T17:35:06.331Z</time></trkpt><trkpt lat="45.9874167" lon="12.7469695"><ele>36.0</ele><time>2026-04-12T17:35:07.331Z</time></trkpt><trkpt lat="45.987512" lon="12.7469447"><ele>36.0</ele><time>2026-04-12T17:35:08.331Z</time></trkpt><trkpt lat="45.9876015" lon="12.7469199"><ele>36.0</ele><time>2026-04-12T17:35:09.331Z</time></trkpt><trkpt lat="45.9876969" lon="12.7468868"><ele>36.0</ele><time>2026-04-12T17:35:10.331Z</time></trkpt><trkpt lat="45.9877924" lon="12.7468616"><ele>36.0</ele><time>2026-04-12T17:35:11.331Z</time></trkpt><trkpt lat="45.9878895" lon="12.746835"><ele>36.0</ele><time>2026-04-12T17:35:12.331Z</time></trkpt><trkpt lat="45.9879878" lon="12.7468014"><ele>36.0</ele><time>2026-04-12T17:35:13.331Z</time></trkpt><trkpt lat="45.9880866" lon="12.7467731"><ele>36.0</ele><time>2026-04-12T17:35:14.331Z</time></trkpt><trkpt lat="45.9881861" lon="12.7467488"><ele>36.0</ele><time>2026-04-12T17:35:15.332Z</time></trkpt><trkpt lat="45.9882844" lon="12.7467191"><ele>36.0</ele><time>2026-04-12T17:35:16.331Z</time></trkpt><trkpt lat="45.9883822" lon="12.7466986"><ele>36.0</ele><time>2026-04-12T17:35:17.331Z</time></trkpt><trkpt lat="45.988483" lon="12.7466697"><ele>36.0</ele><time>2026-04-12T17:35:18.331Z</time></trkpt><trkpt lat="45.9885839" lon="12.7466373"><ele>36.0</ele><time>2026-04-12T17:35:19.331Z</time></trkpt><trkpt lat="45.9886849" lon="12.7466116"><ele>36.0</ele><time>2026-04-12T17:35:20.331Z</time></trkpt><trkpt lat="45.9887797" lon="12.7465841"><ele>36.0</ele><time>2026-04-12T17:35:21.331Z</time></trkpt><trkpt lat="45.9888798" lon="12.7465566"><ele>36.0</ele><time>2026-04-12T17:35:22.331Z</time></trkpt><trkpt lat="45.9889777" lon="12.7465317"><ele>36.0</ele><time>2026-04-12T17:35:23.331Z</time></trkpt><trkpt lat="45.9890773" lon="12.7465053"><ele>36.0</ele><time>2026-04-12T17:35:24.332Z</time></trkpt><trkpt lat="45.9891757" lon="12.746479"><ele>36.0</ele><time>2026-04-12T17:35:25.331Z</time></trkpt><trkpt lat="45.9892745" lon="12.7464558"><ele>36.0</ele><time>2026-04-12T17:35:26.331Z</time></trkpt><trkpt lat="45.9893722" lon="12.7464303"><ele>36.0</ele><time>2026-04-12T17:35:27.331Z</time></trkpt><trkpt lat="45.9894699" lon="12.7464066"><ele>36.0</ele><time>2026-04-12T17:35:28.331Z</time></trkpt><trkpt lat="45.9895692" lon="12.7463831"><ele>36.8</ele><time>2026-04-12T17:35:29.331Z</time></trkpt><trkpt lat="45.9896683" lon="12.746356"><ele>37.6</ele><time>2026-04-12T17:35:30.331Z</time></trkpt><trkpt lat="45.9897652" lon="12.7463292"><ele>38.4</ele><time>2026-04-12T17:35:31.331Z</time></trkpt><trkpt lat="45.9898628" lon="12.7463062"><ele>39.2</ele><time>2026-04-12T17:35:32.332Z</time></trkpt><trkpt lat="45.9899614" lon="12.7462831"><ele>40.0</ele><time>2026-04-12T17:35:33.331Z</time></trkpt><trkpt lat="45.9900596" lon="12.746258"><ele>40.2</ele><time>2026-04-12T17:35:34.332Z</time></trkpt><trkpt lat="45.990159" lon="12.7462356"><ele>40.4</ele><time>2026-04-12T17:35:35.331Z</time></trkpt><trkpt lat="45.9902584" lon="12.746209"><ele>40.599999999999994</ele><time>2026-04-12T17:35:36.331Z</time></trkpt><trkpt lat="45.9903566" lon="12.7461814"><ele>40.8</ele><time>2026-04-12T17:35:37.331Z</time></trkpt><trkpt lat="45.9904537" lon="12.7461578"><ele>41.0</ele><time>2026-04-12T17:35:38.331Z</time></trkpt><trkpt lat="45.9905496" lon="12.746127"><ele>41.0</ele><time>2026-04-12T17:35:39.332Z</time></trkpt><trkpt lat="45.9906497" lon="12.7460978"><ele>41.0</ele><time>2026-04-12T17:35:40.331Z</time></trkpt><trkpt lat="45.9907494" lon="12.7460685"><ele>41.0</ele><time>2026-04-12T17:35:41.331Z</time></trkpt><trkpt lat="45.990851" lon="12.7460399"><ele>41.0</ele><time>2026-04-12T17:35:42.332Z</time></trkpt><trkpt lat="45.9909506" lon="12.7460148"><ele>41.0</ele><time>2026-04-12T17:35:43.331Z</time></trkpt><trkpt lat="45.9910456" lon="12.7459889"><ele>40.8</ele><time>2026-04-12T17:35:44.332Z</time></trkpt><trkpt lat="45.9911462" lon="12.7459677"><ele>40.599999999999994</ele><time>2026-04-12T17:35:45.331Z</time></trkpt><trkpt lat="45.9912445" lon="12.7459454"><ele>40.4</ele><time>2026-04-12T17:35:46.331Z</time></trkpt><trkpt lat="45.9913404" lon="12.7459231"><ele>40.2</ele><time>2026-04-12T17:35:47.331Z</time></trkpt><trkpt lat="45.9914381" lon="12.7459028"><ele>40.0</ele><time>2026-04-12T17:35:48.331Z</time></trkpt><trkpt lat="45.9915357" lon="12.7458757"><ele>40.0</ele><time>2026-04-12T17:35:49.331Z</time></trkpt><trkpt lat="45.9916341" lon="12.7458532"><ele>40.0</ele><time>2026-04-12T17:35:50.331Z</time></trkpt><trkpt lat="45.9917345" lon="12.7458285"><ele>40.0</ele><time>2026-04-12T17:35:51.331Z</time></trkpt><trkpt lat="45.9918318" lon="12.7458001"><ele>40.0</ele><time>2026-04-12T17:35:52.331Z</time></trkpt><trkpt lat="45.9919331" lon="12.7457741"><ele>40.0</ele><time>2026-04-12T17:35:53.332Z</time></trkpt><trkpt lat="45.9920353" lon="12.7457467"><ele>39.8</ele><time>2026-04-12T17:35:54.331Z</time></trkpt><trkpt lat="45.9921364" lon="12.7457198"><ele>39.6</ele><time>2026-04-12T17:35:55.331Z</time></trkpt><trkpt lat="45.9922399" lon="12.7456973"><ele>39.4</ele><time>2026-04-12T17:35:56.332Z</time></trkpt><trkpt lat="45.9923428" lon="12.7456708"><ele>39.2</ele><time>2026-04-12T17:35:57.331Z</time></trkpt><trkpt lat="45.9924437" lon="12.7456445"><ele>39.0</ele><time>2026-04-12T17:35:58.331Z</time></trkpt><trkpt lat="45.9925451" lon="12.7456185"><ele>39.0</ele><time>2026-04-12T17:35:59.331Z</time></trkpt><trkpt lat="45.992648" lon="12.7455874"><ele>39.0</ele><time>2026-04-12T17:36:00.332Z</time></trkpt><trkpt lat="45.9927494" lon="12.7455607"><ele>39.0</ele><time>2026-04-12T17:36:01.331Z</time></trkpt><trkpt lat="45.992849" lon="12.7455359"><ele>39.0</ele><time>2026-04-12T17:36:02.331Z</time></trkpt><trkpt lat="45.9929504" lon="12.7455115"><ele>39.0</ele><time>2026-04-12T17:36:03.331Z</time></trkpt><trkpt lat="45.9930499" lon="12.7454829"><ele>39.0</ele><time>2026-04-12T17:36:04.331Z</time></trkpt><trkpt lat="45.9931535" lon="12.7454594"><ele>39.0</ele><time>2026-04-12T17:36:05.331Z</time></trkpt><trkpt lat="45.9932536" lon="12.7454336"><ele>39.0</ele><time>2026-04-12T17:36:06.331Z</time></trkpt><trkpt lat="45.993352" lon="12.7454015"><ele>39.0</ele><time>2026-04-12T17:36:07.332Z</time></trkpt><trkpt lat="45.9934525" lon="12.7453737"><ele>39.0</ele><time>2026-04-12T17:36:08.331Z</time></trkpt><trkpt lat="45.9935555" lon="12.7453476"><ele>39.5</ele><time>2026-04-12T17:36:09.331Z</time></trkpt><trkpt lat="45.9936504" lon="12.7453187"><ele>40.0</ele><time>2026-04-12T17:36:10.331Z</time></trkpt><trkpt lat="45.9937375" lon="12.7453"><ele>40.5</ele><time>2026-04-12T17:36:11.331Z</time></trkpt><trkpt lat="45.9938194" lon="12.7452862"><ele>41.0</ele><time>2026-04-12T17:36:12.331Z</time></trkpt><trkpt lat="45.9938847" lon="12.7452678"><ele>41.5</ele><time>2026-04-12T17:36:13.331Z</time></trkpt><trkpt lat="45.9939947" lon="12.7452494"><ele>42.0</ele><time>2026-04-12T17:36:15.331Z</time></trkpt><trkpt lat="45.9940739" lon="12.7452175"><ele>42.0</ele><time>2026-04-12T17:36:17.331Z</time></trkpt><trkpt lat="45.9941312" lon="12.745156"><ele>42.0</ele><time>2026-04-12T17:36:19.331Z</time></trkpt><trkpt lat="45.9941699" lon="12.745041"><ele>42.0</ele><time>2026-04-12T17:36:21.331Z</time></trkpt><trkpt lat="45.9941775" lon="12.7448798"><ele>42.0</ele><time>2026-04-12T17:36:23.332Z</time></trkpt><trkpt lat="45.9941708" lon="12.7447015"><ele>42.0</ele><time>2026-04-12T17:36:25.331Z</time></trkpt><trkpt lat="45.994169" lon="12.7445986"><ele>42.0</ele><time>2026-04-12T17:36:26.332Z</time></trkpt><trkpt lat="45.9941665" lon="12.7444844"><ele>42.0</ele><time>2026-04-12T17:36:27.331Z</time></trkpt><trkpt lat="45.9941646" lon="12.7443766"><ele>42.0</ele><time>2026-04-12T17:36:28.331Z</time></trkpt><trkpt lat="45.9941619" lon="12.7442629"><ele>42.0</ele><time>2026-04-12T17:36:29.331Z</time></trkpt><trkpt lat="45.9941606" lon="12.7441426"><ele>42.0</ele><time>2026-04-12T17:36:30.331Z</time></trkpt><trkpt lat="45.9941622" lon="12.7440155"><ele>42.0</ele><time>2026-04-12T17:36:31.331Z</time></trkpt><trkpt lat="45.9941617" lon="12.7438812"><ele>42.0</ele><time>2026-04-12T17:36:32.331Z</time></trkpt><trkpt lat="45.9941559" lon="12.7437428"><ele>42.0</ele><time>2026-04-12T17:36:33.331Z</time></trkpt><trkpt lat="45.9941601" lon="12.743614"><ele>42.0</ele><time>2026-04-12T17:36:34.331Z</time></trkpt><trkpt lat="45.9941669" lon="12.7434861"><ele>42.0</ele><time>2026-04-12T17:36:35.331Z</time></trkpt><trkpt lat="45.9941773" lon="12.7433561"><ele>42.0</ele><time>2026-04-12T17:36:36.331Z</time></trkpt><trkpt lat="45.9941883" lon="12.743225"><ele>42.2</ele><time>2026-04-12T17:36:37.332Z</time></trkpt><trkpt lat="45.9941951" lon="12.7430726"><ele>42.400000000000006</ele><time>2026-04-12T17:36:38.332Z</time></trkpt><trkpt lat="45.9942101" lon="12.7429287"><ele>42.599999999999994</ele><time>2026-04-12T17:36:39.331Z</time></trkpt><trkpt lat="45.9942216" lon="12.7427862"><ele>42.8</ele><time>2026-04-12T17:36:40.331Z</time></trkpt><trkpt lat="45.9942288" lon="12.7426426"><ele>43.0</ele><time>2026-04-12T17:36:41.331Z</time></trkpt><trkpt lat="45.9942418" lon="12.7425043"><ele>43.0</ele><time>2026-04-12T17:36:42.331Z</time></trkpt><trkpt lat="45.9942534" lon="12.7423704"><ele>43.0</ele><time>2026-04-12T17:36:43.331Z</time></trkpt><trkpt lat="45.9942578" lon="12.7422278"><ele>43.0</ele><time>2026-04-12T17:36:44.331Z</time></trkpt><trkpt lat="45.9942709" lon="12.7420868"><ele>43.0</ele><time>2026-04-12T17:36:45.331Z</time></trkpt><trkpt lat="45.9942792" lon="12.7419458"><ele>43.0</ele><time>2026-04-12T17:36:46.332Z</time></trkpt><trkpt lat="45.9942846" lon="12.7418074"><ele>42.8</ele><time>2026-04-12T17:36:47.331Z</time></trkpt><trkpt lat="45.9942944" lon="12.7416607"><ele>42.599999999999994</ele><time>2026-04-12T17:36:48.332Z</time></trkpt><trkpt lat="45.9943059" lon="12.7415252"><ele>42.400000000000006</ele><time>2026-04-12T17:36:49.331Z</time></trkpt><trkpt lat="45.9943197" lon="12.7413822"><ele>42.2</ele><time>2026-04-12T17:36:50.331Z</time></trkpt><trkpt lat="45.9943294" lon="12.7412525"><ele>42.0</ele><time>2026-04-12T17:36:51.331Z</time></trkpt><trkpt lat="45.9943387" lon="12.7411265"><ele>41.8</ele><time>2026-04-12T17:36:52.331Z</time></trkpt><trkpt lat="45.9943521" lon="12.7410084"><ele>41.6</ele><time>2026-04-12T17:36:53.331Z</time></trkpt><trkpt lat="45.9943652" lon="12.7408719"><ele>41.4</ele><time>2026-04-12T17:36:54.331Z</time></trkpt><trkpt lat="45.9943739" lon="12.7407313"><ele>41.199999999999996</ele><time>2026-04-12T17:36:55.331Z</time></trkpt><trkpt lat="45.994392" lon="12.7405853"><ele>41.0</ele><time>2026-04-12T17:36:56.331Z</time></trkpt><trkpt lat="45.9944087" lon="12.7404367"><ele>41.0</ele><time>2026-04-12T17:36:57.331Z</time></trkpt><trkpt lat="45.9944267" lon="12.7402966"><ele>41.0</ele><time>2026-04-12T17:36:58.331Z</time></trkpt><trkpt lat="45.9944385" lon="12.7401544"><ele>41.0</ele><time>2026-04-12T17:36:59.331Z</time></trkpt><trkpt lat="45.9944539" lon="12.7400111"><ele>41.0</ele><time>2026-04-12T17:37:00.331Z</time></trkpt><trkpt lat="45.9944649" lon="12.7398642"><ele>41.0</ele><time>2026-04-12T17:37:01.332Z</time></trkpt><trkpt lat="45.9944752" lon="12.7397166"><ele>41.0</ele><time>2026-04-12T17:37:02.331Z</time></trkpt><trkpt lat="45.9944891" lon="12.739566"><ele>41.0</ele><time>2026-04-12T17:37:03.331Z</time></trkpt><trkpt lat="45.9945018" lon="12.7394122"><ele>41.0</ele><time>2026-04-12T17:37:04.331Z</time></trkpt><trkpt lat="45.9945174" lon="12.7392677"><ele>41.0</ele><time>2026-04-12T17:37:05.331Z</time></trkpt><trkpt lat="45.9945347" lon="12.7391274"><ele>41.0</ele><time>2026-04-12T17:37:06.331Z</time></trkpt><trkpt lat="45.9945442" lon="12.7389976"><ele>41.0</ele><time>2026-04-12T17:37:07.331Z</time></trkpt><trkpt lat="45.9945499" lon="12.7388747"><ele>41.0</ele><time>2026-04-12T17:37:08.331Z</time></trkpt><trkpt lat="45.9945492" lon="12.738749"><ele>41.0</ele><time>2026-04-12T17:37:09.331Z</time></trkpt><trkpt lat="45.9945326" lon="12.7386256"><ele>41.0</ele><time>2026-04-12T17:37:10.331Z</time></trkpt><trkpt lat="45.9945084" lon="12.7384964"><ele>41.0</ele><time>2026-04-12T17:37:11.331Z</time></trkpt><trkpt lat="45.9944771" lon="12.7383652"><ele>41.0</ele><time>2026-04-12T17:37:12.331Z</time></trkpt><trkpt lat="45.9944448" lon="12.7382343"><ele>41.0</ele><time>2026-04-12T17:37:13.332Z</time></trkpt><trkpt lat="45.9944108" lon="12.7381054"><ele>41.0</ele><time>2026-04-12T17:37:14.331Z</time></trkpt><trkpt lat="45.9943741" lon="12.7379742"><ele>41.0</ele><time>2026-04-12T17:37:15.332Z</time></trkpt><trkpt lat="45.9943355" lon="12.7378405"><ele>41.0</ele><time>2026-04-12T17:37:16.331Z</time></trkpt><trkpt lat="45.994294" lon="12.7377139"><ele>41.199999999999996</ele><time>2026-04-12T17:37:17.331Z</time></trkpt><trkpt lat="45.9942534" lon="12.7375826"><ele>41.4</ele><time>2026-04-12T17:37:18.332Z</time></trkpt><trkpt lat="45.9942119" lon="12.7374606"><ele>41.6</ele><time>2026-04-12T17:37:19.331Z</time></trkpt><trkpt lat="45.9941765" lon="12.7373442"><ele>41.8</ele><time>2026-04-12T17:37:20.331Z</time></trkpt><trkpt lat="45.9941489" lon="12.7372269"><ele>42.0</ele><time>2026-04-12T17:37:21.332Z</time></trkpt><trkpt lat="45.994132" lon="12.7371118"><ele>42.0</ele><time>2026-04-12T17:37:22.331Z</time></trkpt><trkpt lat="45.9941233" lon="12.7369922"><ele>42.0</ele><time>2026-04-12T17:37:23.331Z</time></trkpt><trkpt lat="45.9941174" lon="12.7368666"><ele>42.0</ele><time>2026-04-12T17:37:24.331Z</time></trkpt><trkpt lat="45.9941215" lon="12.7367412"><ele>42.0</ele><time>2026-04-12T17:37:25.331Z</time></trkpt><trkpt lat="45.9941356" lon="12.7366146"><ele>42.0</ele><time>2026-04-12T17:37:26.331Z</time></trkpt><trkpt lat="45.9941616" lon="12.7364942"><ele>42.0</ele><time>2026-04-12T17:37:27.331Z</time></trkpt><trkpt lat="45.9941814" lon="12.7363622"><ele>42.166666666666664</ele><time>2026-04-12T17:37:28.331Z</time></trkpt><trkpt lat="45.9942041" lon="12.7362354"><ele>42.333333333333336</ele><time>2026-04-12T17:37:29.331Z</time></trkpt><trkpt lat="45.9942282" lon="12.7361085"><ele>42.5</ele><time>2026-04-12T17:37:30.331Z</time></trkpt><trkpt lat="45.9942428" lon="12.735986"><ele>42.66666666666667</ele><time>2026-04-12T17:37:31.332Z</time></trkpt><trkpt lat="45.9942586" lon="12.7358627"><ele>42.833333333333336</ele><time>2026-04-12T17:37:32.331Z</time></trkpt><trkpt lat="45.9942745" lon="12.735741"><ele>43.0</ele><time>2026-04-12T17:37:33.331Z</time></trkpt><trkpt lat="45.9942893" lon="12.7356112"><ele>42.599999999999994</ele><time>2026-04-12T17:37:34.331Z</time></trkpt><trkpt lat="45.9943015" lon="12.7354807"><ele>42.199999999999996</ele><time>2026-04-12T17:37:35.331Z</time></trkpt><trkpt lat="45.9943161" lon="12.7353456"><ele>41.8</ele><time>2026-04-12T17:37:36.331Z</time></trkpt><trkpt lat="45.994333" lon="12.7352071"><ele>41.4</ele><time>2026-04-12T17:37:37.331Z</time></trkpt><trkpt lat="45.9943515" lon="12.7350702"><ele>41.0</ele><time>2026-04-12T17:37:38.331Z</time></trkpt><trkpt lat="45.9943774" lon="12.7349343"><ele>41.0</ele><time>2026-04-12T17:37:39.331Z</time></trkpt><trkpt lat="45.9944023" lon="12.7348031"><ele>41.0</ele><time>2026-04-12T17:37:40.331Z</time></trkpt><trkpt lat="45.9944292" lon="12.7346705"><ele>41.0</ele><time>2026-04-12T17:37:41.331Z</time></trkpt><trkpt lat="45.9944604" lon="12.7345449"><ele>41.0</ele><time>2026-04-12T17:37:42.331Z</time></trkpt><trkpt lat="45.9944968" lon="12.7344188"><ele>41.0</ele><time>2026-04-12T17:37:43.331Z</time></trkpt><trkpt lat="45.9945389" lon="12.7342934"><ele>41.4</ele><time>2026-04-12T17:37:44.331Z</time></trkpt><trkpt lat="45.9945781" lon="12.7341636"><ele>41.8</ele><time>2026-04-12T17:37:45.331Z</time></trkpt><trkpt lat="45.9946205" lon="12.7340352"><ele>42.199999999999996</ele><time>2026-04-12T17:37:46.331Z</time></trkpt><trkpt lat="45.9946635" lon="12.7339085"><ele>42.599999999999994</ele><time>2026-04-12T17:37:47.331Z</time></trkpt><trkpt lat="45.994705" lon="12.7337781"><ele>43.0</ele><time>2026-04-12T17:37:48.331Z</time></trkpt><trkpt lat="45.9947372" lon="12.7336436"><ele>43.2</ele><time>2026-04-12T17:37:49.331Z</time></trkpt><trkpt lat="45.9947633" lon="12.7335083"><ele>43.4</ele><time>2026-04-12T17:37:50.331Z</time></trkpt><trkpt lat="45.9947844" lon="12.7333777"><ele>43.6</ele><time>2026-04-12T17:37:51.331Z</time></trkpt><trkpt lat="45.9947961" lon="12.7332381"><ele>43.800000000000004</ele><time>2026-04-12T17:37:52.331Z</time></trkpt><trkpt lat="45.9948011" lon="12.7330975"><ele>44.0</ele><time>2026-04-12T17:37:53.331Z</time></trkpt><trkpt lat="45.9948065" lon="12.7329571"><ele>44.0</ele><time>2026-04-12T17:37:54.332Z</time></trkpt><trkpt lat="45.9948071" lon="12.7328118"><ele>44.0</ele><time>2026-04-12T17:37:55.331Z</time></trkpt><trkpt lat="45.9948072" lon="12.7326752"><ele>44.0</ele><time>2026-04-12T17:37:56.331Z</time></trkpt><trkpt lat="45.9948093" lon="12.732532"><ele>44.0</ele><time>2026-04-12T17:37:57.331Z</time></trkpt><trkpt lat="45.9948126" lon="12.7323906"><ele>44.0</ele><time>2026-04-12T17:37:58.331Z</time></trkpt><trkpt lat="45.9948132" lon="12.7322535"><ele>44.0</ele><time>2026-04-12T17:37:59.332Z</time></trkpt><trkpt lat="45.9948158" lon="12.7321131"><ele>44.0</ele><time>2026-04-12T17:38:00.331Z</time></trkpt><trkpt lat="45.9948156" lon="12.731965"><ele>44.0</ele><time>2026-04-12T17:38:01.331Z</time></trkpt><trkpt lat="45.9948134" lon="12.7318182"><ele>44.0</ele><time>2026-04-12T17:38:02.331Z</time></trkpt><trkpt lat="45.9948094" lon="12.731677"><ele>44.0</ele><time>2026-04-12T17:38:03.331Z</time></trkpt><trkpt lat="45.9948024" lon="12.7315302"><ele>44.2</ele><time>2026-04-12T17:38:04.331Z</time></trkpt><trkpt lat="45.9947882" lon="12.7313759"><ele>44.400000000000006</ele><time>2026-04-12T17:38:05.331Z</time></trkpt><trkpt lat="45.9947708" lon="12.7312183"><ele>44.6</ele><time>2026-04-12T17:38:06.331Z</time></trkpt><trkpt lat="45.9947472" lon="12.7310573"><ele>44.8</ele><time>2026-04-12T17:38:07.331Z</time></trkpt><trkpt lat="45.9947253" lon="12.730908"><ele>45.0</ele><time>2026-04-12T17:38:08.331Z</time></trkpt><trkpt lat="45.9947035" lon="12.7307604"><ele>45.0</ele><time>2026-04-12T17:38:09.332Z</time></trkpt><trkpt lat="45.9946831" lon="12.7306124"><ele>45.0</ele><time>2026-04-12T17:38:10.331Z</time></trkpt><trkpt lat="45.9946538" lon="12.7304645"><ele>45.0</ele><time>2026-04-12T17:38:11.331Z</time></trkpt><trkpt lat="45.9946248" lon="12.7303076"><ele>45.0</ele><time>2026-04-12T17:38:12.331Z</time></trkpt><trkpt lat="45.9945957" lon="12.7301526"><ele>45.0</ele><time>2026-04-12T17:38:13.331Z</time></trkpt><trkpt lat="45.9945678" lon="12.7299942"><ele>45.0</ele><time>2026-04-12T17:38:14.331Z</time></trkpt><trkpt lat="45.9945422" lon="12.72984"><ele>45.0</ele><time>2026-04-12T17:38:15.331Z</time></trkpt><trkpt lat="45.9945152" lon="12.7296865"><ele>45.0</ele><time>2026-04-12T17:38:16.331Z</time></trkpt><trkpt lat="45.9944872" lon="12.7295306"><ele>45.0</ele><time>2026-04-12T17:38:17.331Z</time></trkpt><trkpt lat="45.9944586" lon="12.7293774"><ele>45.0</ele><time>2026-04-12T17:38:18.331Z</time></trkpt><trkpt lat="45.994431" lon="12.7292249"><ele>44.8</ele><time>2026-04-12T17:38:19.331Z</time></trkpt><trkpt lat="45.9944027" lon="12.7290774"><ele>44.6</ele><time>2026-04-12T17:38:20.331Z</time></trkpt><trkpt lat="45.994375" lon="12.7289314"><ele>44.400000000000006</ele><time>2026-04-12T17:38:21.331Z</time></trkpt><trkpt lat="45.994346" lon="12.7287856"><ele>44.2</ele><time>2026-04-12T17:38:22.331Z</time></trkpt><trkpt lat="45.9943206" lon="12.728637"><ele>44.0</ele><time>2026-04-12T17:38:23.331Z</time></trkpt><trkpt lat="45.9942957" lon="12.7284982"><ele>43.800000000000004</ele><time>2026-04-12T17:38:24.332Z</time></trkpt><trkpt lat="45.994281" lon="12.7283633"><ele>43.6</ele><time>2026-04-12T17:38:25.331Z</time></trkpt><trkpt lat="45.9942751" lon="12.7282249"><ele>43.4</ele><time>2026-04-12T17:38:26.331Z</time></trkpt><trkpt lat="45.9942781" lon="12.728085"><ele>43.2</ele><time>2026-04-12T17:38:27.331Z</time></trkpt><trkpt lat="45.9942891" lon="12.7279436"><ele>43.0</ele><time>2026-04-12T17:38:28.331Z</time></trkpt><trkpt lat="45.9943083" lon="12.7277993"><ele>42.8</ele><time>2026-04-12T17:38:29.331Z</time></trkpt><trkpt lat="45.994333" lon="12.7276552"><ele>42.599999999999994</ele><time>2026-04-12T17:38:30.331Z</time></trkpt><trkpt lat="45.9943628" lon="12.7275099"><ele>42.400000000000006</ele><time>2026-04-12T17:38:31.331Z</time></trkpt><trkpt lat="45.9943958" lon="12.7273769"><ele>42.2</ele><time>2026-04-12T17:38:32.331Z</time></trkpt><trkpt lat="45.9944327" lon="12.7272439"><ele>42.0</ele><time>2026-04-12T17:38:33.331Z</time></trkpt><trkpt lat="45.9944677" lon="12.7271125"><ele>42.0</ele><time>2026-04-12T17:38:34.331Z</time></trkpt><trkpt lat="45.9944942" lon="12.726978"><ele>42.0</ele><time>2026-04-12T17:38:35.331Z</time></trkpt><trkpt lat="45.9945128" lon="12.7268507"><ele>42.0</ele><time>2026-04-12T17:38:36.331Z</time></trkpt><trkpt lat="45.9945211" lon="12.7267215"><ele>42.0</ele><time>2026-04-12T17:38:37.332Z</time></trkpt><trkpt lat="45.9945268" lon="12.7266003"><ele>42.0</ele><time>2026-04-12T17:38:38.332Z</time></trkpt><trkpt lat="45.9945163" lon="12.7264601"><ele>42.400000000000006</ele><time>2026-04-12T17:38:39.331Z</time></trkpt><trkpt lat="45.9944979" lon="12.7263183"><ele>42.800000000000004</ele><time>2026-04-12T17:38:40.331Z</time></trkpt><trkpt lat="45.9944783" lon="12.726177"><ele>43.2</ele><time>2026-04-12T17:38:41.331Z</time></trkpt><trkpt lat="45.9944579" lon="12.726032"><ele>43.6</ele><time>2026-04-12T17:38:42.331Z</time></trkpt><trkpt lat="45.9944366" lon="12.72588"><ele>44.0</ele><time>2026-04-12T17:38:43.331Z</time></trkpt><trkpt lat="45.994417" lon="12.7257234"><ele>44.2</ele><time>2026-04-12T17:38:44.331Z</time></trkpt><trkpt lat="45.9943897" lon="12.7255665"><ele>44.400000000000006</ele><time>2026-04-12T17:38:45.331Z</time></trkpt><trkpt lat="45.9943631" lon="12.7254085"><ele>44.6</ele><time>2026-04-12T17:38:46.332Z</time></trkpt><trkpt lat="45.9943379" lon="12.7252631"><ele>44.8</ele><time>2026-04-12T17:38:47.331Z</time></trkpt><trkpt lat="45.9943177" lon="12.7251154"><ele>45.0</ele><time>2026-04-12T17:38:48.332Z</time></trkpt><trkpt lat="45.9943043" lon="12.7249829"><ele>44.333333333333336</ele><time>2026-04-12T17:38:49.331Z</time></trkpt><trkpt lat="45.994289" lon="12.7248593"><ele>43.666666666666664</ele><time>2026-04-12T17:38:50.332Z</time></trkpt><trkpt lat="45.9942774" lon="12.7247441"><ele>43.0</ele><time>2026-04-12T17:38:51.331Z</time></trkpt><trkpt lat="45.9942648" lon="12.7246342"><ele>42.33333333333333</ele><time>2026-04-12T17:38:52.331Z</time></trkpt><trkpt lat="45.9942502" lon="12.7244792"><ele>41.666666666666664</ele><time>2026-04-12T17:38:54.331Z</time></trkpt><trkpt lat="45.994254" lon="12.7243777"><ele>41.0</ele><time>2026-04-12T17:38:56.331Z</time></trkpt><trkpt lat="45.9942481" lon="12.7242459"><ele>41.0</ele><time>2026-04-12T17:38:58.331Z</time></trkpt><trkpt lat="45.9942253" lon="12.7241556"><ele>41.0</ele><time>2026-04-12T17:38:59.331Z</time></trkpt><trkpt lat="45.9941903" lon="12.7240576"><ele>41.0</ele><time>2026-04-12T17:39:00.331Z</time></trkpt><trkpt lat="45.9941558" lon="12.7239532"><ele>41.0</ele><time>2026-04-12T17:39:01.332Z</time></trkpt><trkpt lat="45.9941229" lon="12.7238394"><ele>41.0</ele><time>2026-04-12T17:39:02.332Z</time></trkpt><trkpt lat="45.9940911" lon="12.7237139"><ele>41.0</ele><time>2026-04-12T17:39:03.331Z</time></trkpt><trkpt lat="45.9940583" lon="12.7235837"><ele>41.4</ele><time>2026-04-12T17:39:04.331Z</time></trkpt><trkpt lat="45.9940262" lon="12.7234521"><ele>41.8</ele><time>2026-04-12T17:39:05.331Z</time></trkpt><trkpt lat="45.9939951" lon="12.7233218"><ele>42.199999999999996</ele><time>2026-04-12T17:39:06.331Z</time></trkpt><trkpt lat="45.9939684" lon="12.7231851"><ele>42.599999999999994</ele><time>2026-04-12T17:39:07.331Z</time></trkpt><trkpt lat="45.993939" lon="12.7230414"><ele>43.0</ele><time>2026-04-12T17:39:08.332Z</time></trkpt><trkpt lat="45.9939085" lon="12.722902"><ele>43.0</ele><time>2026-04-12T17:39:09.331Z</time></trkpt><trkpt lat="45.9938793" lon="12.7227572"><ele>43.0</ele><time>2026-04-12T17:39:10.331Z</time></trkpt><trkpt lat="45.9938514" lon="12.722605"><ele>43.0</ele><time>2026-04-12T17:39:11.331Z</time></trkpt><trkpt lat="45.9938159" lon="12.7224439"><ele>43.0</ele><time>2026-04-12T17:39:12.331Z</time></trkpt><trkpt lat="45.9937783" lon="12.7222831"><ele>43.0</ele><time>2026-04-12T17:39:13.331Z</time></trkpt><trkpt lat="45.993736" lon="12.7221242"><ele>43.25</ele><time>2026-04-12T17:39:14.331Z</time></trkpt><trkpt lat="45.9936943" lon="12.7219672"><ele>43.5</ele><time>2026-04-12T17:39:15.331Z</time></trkpt><trkpt lat="45.9936524" lon="12.7218125"><ele>43.75</ele><time>2026-04-12T17:39:16.331Z</time></trkpt><trkpt lat="45.993609" lon="12.7216579"><ele>44.0</ele><time>2026-04-12T17:39:17.331Z</time></trkpt><trkpt lat="45.9935679" lon="12.7215077"><ele>44.0</ele><time>2026-04-12T17:39:18.331Z</time></trkpt><trkpt lat="45.9935261" lon="12.7213568"><ele>44.0</ele><time>2026-04-12T17:39:19.331Z</time></trkpt><trkpt lat="45.9934828" lon="12.7212077"><ele>44.0</ele><time>2026-04-12T17:39:20.331Z</time></trkpt><trkpt lat="45.9934389" lon="12.7210553"><ele>44.0</ele><time>2026-04-12T17:39:21.331Z</time></trkpt><trkpt lat="45.993395" lon="12.7209012"><ele>44.0</ele><time>2026-04-12T17:39:22.331Z</time></trkpt><trkpt lat="45.9933537" lon="12.7207463"><ele>44.0</ele><time>2026-04-12T17:39:23.331Z</time></trkpt><trkpt lat="45.9933053" lon="12.7205917"><ele>44.0</ele><time>2026-04-12T17:39:24.332Z</time></trkpt><trkpt lat="45.993263" lon="12.7204431"><ele>44.0</ele><time>2026-04-12T17:39:25.331Z</time></trkpt><trkpt lat="45.9932197" lon="12.7202808"><ele>44.0</ele><time>2026-04-12T17:39:26.331Z</time></trkpt><trkpt lat="45.9931771" lon="12.7201188"><ele>44.0</ele><time>2026-04-12T17:39:27.331Z</time></trkpt><trkpt lat="45.9931352" lon="12.719956"><ele>44.0</ele><time>2026-04-12T17:39:28.332Z</time></trkpt><trkpt lat="45.9930894" lon="12.7197896"><ele>44.0</ele><time>2026-04-12T17:39:29.332Z</time></trkpt><trkpt lat="45.9930461" lon="12.7196281"><ele>44.0</ele><time>2026-04-12T17:39:30.331Z</time></trkpt><trkpt lat="45.9930036" lon="12.7194639"><ele>44.0</ele><time>2026-04-12T17:39:31.331Z</time></trkpt><trkpt lat="45.9929599" lon="12.7193024"><ele>44.0</ele><time>2026-04-12T17:39:32.331Z</time></trkpt><trkpt lat="45.9929112" lon="12.719132"><ele>44.0</ele><time>2026-04-12T17:39:33.331Z</time></trkpt><trkpt lat="45.992865" lon="12.7189649"><ele>44.25</ele><time>2026-04-12T17:39:34.331Z</time></trkpt><trkpt lat="45.9928216" lon="12.7188074"><ele>44.5</ele><time>2026-04-12T17:39:35.331Z</time></trkpt><trkpt lat="45.9927777" lon="12.7186533"><ele>44.75</ele><time>2026-04-12T17:39:36.331Z</time></trkpt><trkpt lat="45.9927344" lon="12.7184967"><ele>45.0</ele><time>2026-04-12T17:39:37.331Z</time></trkpt><trkpt lat="45.9926894" lon="12.7183403"><ele>45.0</ele><time>2026-04-12T17:39:38.331Z</time></trkpt><trkpt lat="45.9926449" lon="12.718182"><ele>45.0</ele><time>2026-04-12T17:39:39.331Z</time></trkpt><trkpt lat="45.9925994" lon="12.718018"><ele>45.0</ele><time>2026-04-12T17:39:40.332Z</time></trkpt><trkpt lat="45.9925492" lon="12.7178468"><ele>45.0</ele><time>2026-04-12T17:39:41.331Z</time></trkpt><trkpt lat="45.9924989" lon="12.7176701"><ele>44.5</ele><time>2026-04-12T17:39:42.331Z</time></trkpt><trkpt lat="45.9924497" lon="12.7174933"><ele>44.0</ele><time>2026-04-12T17:39:43.331Z</time></trkpt><trkpt lat="45.9924027" lon="12.7173213"><ele>43.5</ele><time>2026-04-12T17:39:44.331Z</time></trkpt><trkpt lat="45.9923602" lon="12.7171497"><ele>43.0</ele><time>2026-04-12T17:39:45.331Z</time></trkpt><trkpt lat="45.9923127" lon="12.7169826"><ele>43.2</ele><time>2026-04-12T17:39:46.332Z</time></trkpt><trkpt lat="45.9922679" lon="12.7168302"><ele>43.4</ele><time>2026-04-12T17:39:47.331Z</time></trkpt><trkpt lat="45.9922257" lon="12.7166908"><ele>43.6</ele><time>2026-04-12T17:39:48.331Z</time></trkpt><trkpt lat="45.9921903" lon="12.7165749"><ele>43.800000000000004</ele><time>2026-04-12T17:39:49.332Z</time></trkpt><trkpt lat="45.9921597" lon="12.7164756"><ele>44.0</ele><time>2026-04-12T17:39:50.331Z</time></trkpt><trkpt lat="45.9921548" lon="12.7163136"><ele>44.0</ele><time>2026-04-12T17:39:52.331Z</time></trkpt><trkpt lat="45.9922097" lon="12.7161821"><ele>44.0</ele><time>2026-04-12T17:39:54.331Z</time></trkpt><trkpt lat="45.9922721" lon="12.7161366"><ele>44.0</ele><time>2026-04-12T17:39:55.331Z</time></trkpt><trkpt lat="45.992348" lon="12.7160866"><ele>44.0</ele><time>2026-04-12T17:39:56.331Z</time></trkpt><trkpt lat="45.9924374" lon="12.716034"><ele>44.0</ele><time>2026-04-12T17:39:57.331Z</time></trkpt><trkpt lat="45.9925269" lon="12.7159847"><ele>44.2</ele><time>2026-04-12T17:39:58.332Z</time></trkpt><trkpt lat="45.9926154" lon="12.715937"><ele>44.400000000000006</ele><time>2026-04-12T17:39:59.331Z</time></trkpt><trkpt lat="45.9927102" lon="12.7158876"><ele>44.6</ele><time>2026-04-12T17:40:00.331Z</time></trkpt><trkpt lat="45.9928129" lon="12.7158408"><ele>44.8</ele><time>2026-04-12T17:40:01.332Z</time></trkpt><trkpt lat="45.9929085" lon="12.7157826"><ele>45.0</ele><time>2026-04-12T17:40:02.331Z</time></trkpt><trkpt lat="45.9930116" lon="12.7157325"><ele>45.0</ele><time>2026-04-12T17:40:03.331Z</time></trkpt><trkpt lat="45.9931142" lon="12.7156716"><ele>45.0</ele><time>2026-04-12T17:40:04.331Z</time></trkpt><trkpt lat="45.9932213" lon="12.7156137"><ele>45.0</ele><time>2026-04-12T17:40:05.332Z</time></trkpt><trkpt lat="45.9933317" lon="12.7155499"><ele>45.0</ele><time>2026-04-12T17:40:06.331Z</time></trkpt><trkpt lat="45.9934414" lon="12.7154863"><ele>45.0</ele><time>2026-04-12T17:40:07.331Z</time></trkpt><trkpt lat="45.9935467" lon="12.7154281"><ele>45.0</ele><time>2026-04-12T17:40:08.331Z</time></trkpt><trkpt lat="45.9936512" lon="12.7153587"><ele>45.0</ele><time>2026-04-12T17:40:09.331Z</time></trkpt><trkpt lat="45.9937615" lon="12.7152885"><ele>45.0</ele><time>2026-04-12T17:40:10.332Z</time></trkpt><trkpt lat="45.9938753" lon="12.7152158"><ele>45.75</ele><time>2026-04-12T17:40:11.331Z</time></trkpt><trkpt lat="45.9939861" lon="12.7151411"><ele>46.5</ele><time>2026-04-12T17:40:12.331Z</time></trkpt><trkpt lat="45.9940992" lon="12.7150603"><ele>47.25</ele><time>2026-04-12T17:40:13.331Z</time></trkpt><trkpt lat="45.9942113" lon="12.7149889"><ele>48.0</ele><time>2026-04-12T17:40:14.331Z</time></trkpt><trkpt lat="45.9943141" lon="12.7149074"><ele>48.2</ele><time>2026-04-12T17:40:15.331Z</time></trkpt><trkpt lat="45.9944144" lon="12.7148281"><ele>48.4</ele><time>2026-04-12T17:40:16.331Z</time></trkpt><trkpt lat="45.9945073" lon="12.7147495"><ele>48.6</ele><time>2026-04-12T17:40:17.331Z</time></trkpt><trkpt lat="45.994602" lon="12.7146759"><ele>48.800000000000004</ele><time>2026-04-12T17:40:18.331Z</time></trkpt><trkpt lat="45.9946988" lon="12.7146059"><ele>49.0</ele><time>2026-04-12T17:40:19.331Z</time></trkpt><trkpt lat="45.9947945" lon="12.7145345"><ele>49.0</ele><time>2026-04-12T17:40:20.331Z</time></trkpt><trkpt lat="45.9948887" lon="12.7144606"><ele>49.0</ele><time>2026-04-12T17:40:21.331Z</time></trkpt><trkpt lat="45.9949856" lon="12.7143794"><ele>49.0</ele><time>2026-04-12T17:40:22.332Z</time></trkpt><trkpt lat="45.9950827" lon="12.7142998"><ele>49.0</ele><time>2026-04-12T17:40:23.331Z</time></trkpt><trkpt lat="45.9951796" lon="12.7142275"><ele>49.0</ele><time>2026-04-12T17:40:24.332Z</time></trkpt><trkpt lat="45.9952802" lon="12.714149"><ele>49.25</ele><time>2026-04-12T17:40:25.331Z</time></trkpt><trkpt lat="45.995386" lon="12.7140593"><ele>49.5</ele><time>2026-04-12T17:40:26.331Z</time></trkpt><trkpt lat="45.9954977" lon="12.7139691"><ele>49.75</ele><time>2026-04-12T17:40:27.331Z</time></trkpt><trkpt lat="45.9956076" lon="12.7138766"><ele>50.0</ele><time>2026-04-12T17:40:28.331Z</time></trkpt><trkpt lat="45.9957239" lon="12.7137896"><ele>50.0</ele><time>2026-04-12T17:40:29.331Z</time></trkpt><trkpt lat="45.9958359" lon="12.7136961"><ele>50.0</ele><time>2026-04-12T17:40:30.331Z</time></trkpt><trkpt lat="45.9959489" lon="12.7136067"><ele>50.0</ele><time>2026-04-12T17:40:31.331Z</time></trkpt><trkpt lat="45.9960588" lon="12.7135173"><ele>50.0</ele><time>2026-04-12T17:40:32.331Z</time></trkpt><trkpt lat="45.9961689" lon="12.7134325"><ele>50.0</ele><time>2026-04-12T17:40:33.331Z</time></trkpt><trkpt lat="45.9962737" lon="12.7133622"><ele>50.0</ele><time>2026-04-12T17:40:34.331Z</time></trkpt><trkpt lat="45.9963646" lon="12.713292"><ele>50.0</ele><time>2026-04-12T17:40:35.332Z</time></trkpt><trkpt lat="45.9964509" lon="12.7132195"><ele>50.0</ele><time>2026-04-12T17:40:36.331Z</time></trkpt><trkpt lat="45.9965343" lon="12.7131634"><ele>50.0</ele><time>2026-04-12T17:40:37.331Z</time></trkpt><trkpt lat="45.9966058" lon="12.7131042"><ele>50.00000000000001</ele><time>2026-04-12T17:40:38.332Z</time></trkpt><trkpt lat="45.9966727" lon="12.7130462"><ele>50.0</ele><time>2026-04-12T17:40:39.331Z</time></trkpt><trkpt lat="45.9967359" lon="12.7129927"><ele>50.0</ele><time>2026-04-12T17:40:40.331Z</time></trkpt><trkpt lat="45.9968136" lon="12.7128992"><ele>50.0</ele><time>2026-04-12T17:40:42.331Z</time></trkpt><trkpt lat="45.9968416" lon="12.712808"><ele>50.00000000000001</ele><time>2026-04-12T17:40:50.331Z</time></trkpt><trkpt lat="45.9967891" lon="12.7127431"><ele>50.0</ele><time>2026-04-12T17:40:52.331Z</time></trkpt><trkpt lat="45.9966881" lon="12.712657"><ele>50.333333333333336</ele><time>2026-04-12T17:40:54.332Z</time></trkpt><trkpt lat="45.9966331" lon="12.7126084"><ele>50.66666666666667</ele><time>2026-04-12T17:40:55.331Z</time></trkpt><trkpt lat="45.9965717" lon="12.7125554"><ele>51.0</ele><time>2026-04-12T17:40:56.331Z</time></trkpt><trkpt lat="45.9965036" lon="12.7124954"><ele>51.33333333333333</ele><time>2026-04-12T17:40:57.331Z</time></trkpt><trkpt lat="45.9964387" lon="12.7124319"><ele>51.666666666666664</ele><time>2026-04-12T17:40:58.331Z</time></trkpt><trkpt lat="45.9963679" lon="12.7123653"><ele>52.0</ele><time>2026-04-12T17:40:59.331Z</time></trkpt><trkpt lat="45.9962877" lon="12.7122971"><ele>52.0</ele><time>2026-04-12T17:41:00.331Z</time></trkpt><trkpt lat="45.996212" lon="12.7122297"><ele>52.0</ele><time>2026-04-12T17:41:01.332Z</time></trkpt><trkpt lat="45.996131" lon="12.7121569"><ele>52.0</ele><time>2026-04-12T17:41:02.331Z</time></trkpt><trkpt lat="45.9960453" lon="12.7120835"><ele>52.0</ele><time>2026-04-12T17:41:03.331Z</time></trkpt><trkpt lat="45.995958" lon="12.7119992"><ele>52.0</ele><time>2026-04-12T17:41:04.331Z</time></trkpt><trkpt lat="45.995865" lon="12.7119173"><ele>51.6</ele><time>2026-04-12T17:41:05.331Z</time></trkpt><trkpt lat="45.9957772" lon="12.7118363"><ele>51.2</ele><time>2026-04-12T17:41:06.331Z</time></trkpt><trkpt lat="45.9956949" lon="12.7117537"><ele>50.8</ele><time>2026-04-12T17:41:07.331Z</time></trkpt><trkpt lat="45.9956125" lon="12.7116728"><ele>50.4</ele><time>2026-04-12T17:41:08.331Z</time></trkpt><trkpt lat="45.9955356" lon="12.7115939"><ele>50.0</ele><time>2026-04-12T17:41:09.332Z</time></trkpt><trkpt lat="45.9954636" lon="12.7115071"><ele>50.00000000000001</ele><time>2026-04-12T17:41:10.332Z</time></trkpt><trkpt lat="45.9953885" lon="12.7114314"><ele>50.0</ele><time>2026-04-12T17:41:11.331Z</time></trkpt><trkpt lat="45.9953138" lon="12.7113612"><ele>50.0</ele><time>2026-04-12T17:41:12.331Z</time></trkpt><trkpt lat="45.9952462" lon="12.7112814"><ele>50.0</ele><time>2026-04-12T17:41:13.331Z</time></trkpt><trkpt lat="45.9951828" lon="12.7112019"><ele>50.00000000000001</ele><time>2026-04-12T17:41:14.331Z</time></trkpt><trkpt lat="45.9951245" lon="12.711119"><ele>50.0</ele><time>2026-04-12T17:41:15.331Z</time></trkpt><trkpt lat="45.9950756" lon="12.7110439"><ele>49.833333333333336</ele><time>2026-04-12T17:41:16.332Z</time></trkpt><trkpt lat="45.9950373" lon="12.710962"><ele>49.66666666666667</ele><time>2026-04-12T17:41:17.331Z</time></trkpt><trkpt lat="45.9950119" lon="12.7108752"><ele>49.5</ele><time>2026-04-12T17:41:18.331Z</time></trkpt><trkpt lat="45.9949919" lon="12.7107647"><ele>49.33333333333333</ele><time>2026-04-12T17:41:19.332Z</time></trkpt><trkpt lat="45.9949651" lon="12.7106492"><ele>49.166666666666664</ele><time>2026-04-12T17:41:20.331Z</time></trkpt><trkpt lat="45.9949337" lon="12.7105255"><ele>49.0</ele><time>2026-04-12T17:41:21.331Z</time></trkpt><trkpt lat="45.9949019" lon="12.7103935"><ele>48.6</ele><time>2026-04-12T17:41:22.331Z</time></trkpt><trkpt lat="45.9948681" lon="12.7102519"><ele>48.2</ele><time>2026-04-12T17:41:23.331Z</time></trkpt><trkpt lat="45.9948358" lon="12.7101084"><ele>47.800000000000004</ele><time>2026-04-12T17:41:24.331Z</time></trkpt><trkpt lat="45.9948028" lon="12.70997"><ele>47.400000000000006</ele><time>2026-04-12T17:41:25.331Z</time></trkpt><trkpt lat="45.9947762" lon="12.7098394"><ele>47.0</ele><time>2026-04-12T17:41:26.331Z</time></trkpt><trkpt lat="45.9947451" lon="12.7096992"><ele>47.0</ele><time>2026-04-12T17:41:27.331Z</time></trkpt><trkpt lat="45.9947117" lon="12.7095558"><ele>47.0</ele><time>2026-04-12T17:41:28.331Z</time></trkpt><trkpt lat="45.9946775" lon="12.7094079"><ele>47.0</ele><time>2026-04-12T17:41:29.331Z</time></trkpt><trkpt lat="45.9946467" lon="12.7092637"><ele>47.0</ele><time>2026-04-12T17:41:30.331Z</time></trkpt><trkpt lat="45.9946151" lon="12.7091297"><ele>47.0</ele><time>2026-04-12T17:41:31.331Z</time></trkpt><trkpt lat="45.9945834" lon="12.7090009"><ele>47.166666666666664</ele><time>2026-04-12T17:41:32.332Z</time></trkpt><trkpt lat="45.9945562" lon="12.7088874"><ele>47.33333333333333</ele><time>2026-04-12T17:41:33.331Z</time></trkpt><trkpt lat="45.9945375" lon="12.7087993"><ele>47.5</ele><time>2026-04-12T17:41:34.331Z</time></trkpt><trkpt lat="45.9945322" lon="12.7086635"><ele>47.666666666666664</ele><time>2026-04-12T17:41:36.331Z</time></trkpt><trkpt lat="45.9945497" lon="12.7085408"><ele>47.833333333333336</ele><time>2026-04-12T17:41:38.331Z</time></trkpt><trkpt lat="45.9945265" lon="12.708405"><ele>48.0</ele><time>2026-04-12T17:41:40.331Z</time></trkpt><trkpt lat="45.9944594" lon="12.7082437"><ele>48.0</ele><time>2026-04-12T17:41:42.332Z</time></trkpt><trkpt lat="45.9944328" lon="12.7081528"><ele>48.0</ele><time>2026-04-12T17:41:43.331Z</time></trkpt><trkpt lat="45.9944078" lon="12.7080605"><ele>48.0</ele><time>2026-04-12T17:41:44.331Z</time></trkpt><trkpt lat="45.9943805" lon="12.7079593"><ele>48.0</ele><time>2026-04-12T17:41:45.331Z</time></trkpt><trkpt lat="45.9943532" lon="12.7078456"><ele>48.0</ele><time>2026-04-12T17:41:46.331Z</time></trkpt><trkpt lat="45.9943244" lon="12.7077335"><ele>48.0</ele><time>2026-04-12T17:41:47.332Z</time></trkpt><trkpt lat="45.9942974" lon="12.7076169"><ele>48.0</ele><time>2026-04-12T17:41:48.331Z</time></trkpt><trkpt lat="45.9942675" lon="12.7074915"><ele>48.0</ele><time>2026-04-12T17:41:49.331Z</time></trkpt><trkpt lat="45.9942367" lon="12.7073624"><ele>48.0</ele><time>2026-04-12T17:41:50.331Z</time></trkpt><trkpt lat="45.9941964" lon="12.707239"><ele>48.0</ele><time>2026-04-12T17:41:51.331Z</time></trkpt><trkpt lat="45.9941586" lon="12.7071199"><ele>48.0</ele><time>2026-04-12T17:41:52.331Z</time></trkpt><trkpt lat="45.9941185" lon="12.7069991"><ele>47.666666666666664</ele><time>2026-04-12T17:41:53.332Z</time></trkpt><trkpt lat="45.994082" lon="12.7068793"><ele>47.333333333333336</ele><time>2026-04-12T17:41:54.331Z</time></trkpt><trkpt lat="45.9940461" lon="12.7067626"><ele>47.0</ele><time>2026-04-12T17:41:55.332Z</time></trkpt><trkpt lat="45.9940096" lon="12.7066542"><ele>46.66666666666667</ele><time>2026-04-12T17:41:56.331Z</time></trkpt><trkpt lat="45.9939739" lon="12.7065541"><ele>46.333333333333336</ele><time>2026-04-12T17:41:57.331Z</time></trkpt><trkpt lat="45.9939377" lon="12.7064518"><ele>46.0</ele><time>2026-04-12T17:41:58.331Z</time></trkpt><trkpt lat="45.9939048" lon="12.7063542"><ele>46.0</ele><time>2026-04-12T17:41:59.331Z</time></trkpt><trkpt lat="45.993875" lon="12.7062541"><ele>46.0</ele><time>2026-04-12T17:42:00.331Z</time></trkpt><trkpt lat="45.9938393" lon="12.7061579"><ele>46.0</ele><time>2026-04-12T17:42:01.331Z</time></trkpt><trkpt lat="45.9938014" lon="12.7060521"><ele>46.0</ele><time>2026-04-12T17:42:02.331Z</time></trkpt><trkpt lat="45.9937596" lon="12.7059611"><ele>46.0</ele><time>2026-04-12T17:42:03.331Z</time></trkpt><trkpt lat="45.993713" lon="12.7058699"><ele>46.0</ele><time>2026-04-12T17:42:04.332Z</time></trkpt><trkpt lat="45.9936511" lon="12.7057864"><ele>46.199999999999996</ele><time>2026-04-12T17:42:05.331Z</time></trkpt><trkpt lat="45.9935838" lon="12.7057047"><ele>46.4</ele><time>2026-04-12T17:42:06.331Z</time></trkpt><trkpt lat="45.9935094" lon="12.7056168"><ele>46.6</ele><time>2026-04-12T17:42:07.331Z</time></trkpt><trkpt lat="45.9934287" lon="12.7055257"><ele>46.8</ele><time>2026-04-12T17:42:08.331Z</time></trkpt><trkpt lat="45.9933457" lon="12.7054308"><ele>47.0</ele><time>2026-04-12T17:42:09.331Z</time></trkpt><trkpt lat="45.9932588" lon="12.7053404"><ele>47.0</ele><time>2026-04-12T17:42:10.331Z</time></trkpt><trkpt lat="45.9931741" lon="12.7052522"><ele>47.0</ele><time>2026-04-12T17:42:11.331Z</time></trkpt><trkpt lat="45.9930937" lon="12.7051592"><ele>47.0</ele><time>2026-04-12T17:42:12.332Z</time></trkpt><trkpt lat="45.9930086" lon="12.7050635"><ele>47.0</ele><time>2026-04-12T17:42:13.332Z</time></trkpt><trkpt lat="45.9929239" lon="12.7049701"><ele>47.0</ele><time>2026-04-12T17:42:14.331Z</time></trkpt><trkpt lat="45.9927386" lon="12.7047802"><ele>46.75</ele><time>2026-04-12T17:42:16.332Z</time></trkpt><trkpt lat="45.9926418" lon="12.7046853"><ele>46.5</ele><time>2026-04-12T17:42:17.331Z</time></trkpt><trkpt lat="45.9925503" lon="12.7045839"><ele>46.25</ele><time>2026-04-12T17:42:18.331Z</time></trkpt><trkpt lat="45.9924622" lon="12.704482"><ele>46.0</ele><time>2026-04-12T17:42:19.331Z</time></trkpt><trkpt lat="45.9923781" lon="12.7043801"><ele>45.75</ele><time>2026-04-12T17:42:20.331Z</time></trkpt><trkpt lat="45.9922976" lon="12.7042725"><ele>45.5</ele><time>2026-04-12T17:42:21.331Z</time></trkpt><trkpt lat="45.9922164" lon="12.7041541"><ele>45.25</ele><time>2026-04-12T17:42:22.331Z</time></trkpt><trkpt lat="45.9921358" lon="12.7040337"><ele>45.0</ele><time>2026-04-12T17:42:23.331Z</time></trkpt><trkpt lat="45.9920535" lon="12.7039153"><ele>45.0</ele><time>2026-04-12T17:42:24.331Z</time></trkpt><trkpt lat="45.9919798" lon="12.7037844"><ele>45.0</ele><time>2026-04-12T17:42:25.331Z</time></trkpt><trkpt lat="45.9919072" lon="12.7036501"><ele>45.0</ele><time>2026-04-12T17:42:26.332Z</time></trkpt><trkpt lat="45.9918341" lon="12.7035098"><ele>45.0</ele><time>2026-04-12T17:42:27.331Z</time></trkpt><trkpt lat="45.991766" lon="12.7033612"><ele>44.75</ele><time>2026-04-12T17:42:28.331Z</time></trkpt><trkpt lat="45.9917048" lon="12.7032076"><ele>44.5</ele><time>2026-04-12T17:42:29.331Z</time></trkpt><trkpt lat="45.991646" lon="12.7030533"><ele>44.25</ele><time>2026-04-12T17:42:30.331Z</time></trkpt><trkpt lat="45.991587" lon="12.7028971"><ele>44.0</ele><time>2026-04-12T17:42:31.331Z</time></trkpt><trkpt lat="45.9915283" lon="12.702743"><ele>44.5</ele><time>2026-04-12T17:42:32.331Z</time></trkpt><trkpt lat="45.9914653" lon="12.702588"><ele>45.0</ele><time>2026-04-12T17:42:33.331Z</time></trkpt><trkpt lat="45.9914012" lon="12.7024327"><ele>45.5</ele><time>2026-04-12T17:42:34.332Z</time></trkpt><trkpt lat="45.9913415" lon="12.7022811"><ele>46.0</ele><time>2026-04-12T17:42:35.331Z</time></trkpt><trkpt lat="45.9912785" lon="12.7021351"><ele>46.0</ele><time>2026-04-12T17:42:36.331Z</time></trkpt><trkpt lat="45.9912175" lon="12.7019931"><ele>46.0</ele><time>2026-04-12T17:42:37.331Z</time></trkpt><trkpt lat="45.991156" lon="12.7018548"><ele>46.0</ele><time>2026-04-12T17:42:38.331Z</time></trkpt><trkpt lat="45.9911" lon="12.7017315"><ele>46.0</ele><time>2026-04-12T17:42:39.331Z</time></trkpt><trkpt lat="45.9910506" lon="12.7016117"><ele>46.0</ele><time>2026-04-12T17:42:40.331Z</time></trkpt><trkpt lat="45.991" lon="12.7014888"><ele>46.0</ele><time>2026-04-12T17:42:41.332Z</time></trkpt><trkpt lat="45.990947" lon="12.7013575"><ele>46.0</ele><time>2026-04-12T17:42:42.331Z</time></trkpt><trkpt lat="45.9908936" lon="12.7012124"><ele>46.0</ele><time>2026-04-12T17:42:43.331Z</time></trkpt><trkpt lat="45.9908406" lon="12.7010639"><ele>46.0</ele><time>2026-04-12T17:42:44.332Z</time></trkpt><trkpt lat="45.9907953" lon="12.7009037"><ele>46.0</ele><time>2026-04-12T17:42:45.331Z</time></trkpt><trkpt lat="45.9907617" lon="12.700737"><ele>46.0</ele><time>2026-04-12T17:42:46.331Z</time></trkpt><trkpt lat="45.9907389" lon="12.7005621"><ele>46.0</ele><time>2026-04-12T17:42:47.331Z</time></trkpt><trkpt lat="45.9907164" lon="12.7003847"><ele>46.0</ele><time>2026-04-12T17:42:48.331Z</time></trkpt><trkpt lat="45.9906989" lon="12.700217"><ele>46.0</ele><time>2026-04-12T17:42:49.332Z</time></trkpt><trkpt lat="45.9906824" lon="12.7000594"><ele>46.0</ele><time>2026-04-12T17:42:50.332Z</time></trkpt><trkpt lat="45.9906646" lon="12.6999122"><ele>46.0</ele><time>2026-04-12T17:42:51.332Z</time></trkpt><trkpt lat="45.9906495" lon="12.6997673"><ele>46.0</ele><time>2026-04-12T17:42:52.331Z</time></trkpt><trkpt lat="45.990633" lon="12.6996316"><ele>46.0</ele><time>2026-04-12T17:42:53.331Z</time></trkpt><trkpt lat="45.9906051" lon="12.6995026"><ele>46.199999999999996</ele><time>2026-04-12T17:42:54.331Z</time></trkpt><trkpt lat="45.9905673" lon="12.6993741"><ele>46.4</ele><time>2026-04-12T17:42:55.331Z</time></trkpt><trkpt lat="45.9905267" lon="12.6992523"><ele>46.6</ele><time>2026-04-12T17:42:56.331Z</time></trkpt><trkpt lat="45.9904857" lon="12.6991332"><ele>46.8</ele><time>2026-04-12T17:42:57.331Z</time></trkpt><trkpt lat="45.9904455" lon="12.6990207"><ele>47.0</ele><time>2026-04-12T17:42:58.331Z</time></trkpt><trkpt lat="45.9904068" lon="12.6989121"><ele>47.0</ele><time>2026-04-12T17:42:59.331Z</time></trkpt><trkpt lat="45.9903692" lon="12.6988027"><ele>47.0</ele><time>2026-04-12T17:43:00.331Z</time></trkpt><trkpt lat="45.9903276" lon="12.6986877"><ele>47.0</ele><time>2026-04-12T17:43:01.331Z</time></trkpt><trkpt lat="45.9902874" lon="12.698559"><ele>47.0</ele><time>2026-04-12T17:43:02.331Z</time></trkpt><trkpt lat="45.9902516" lon="12.6984349"><ele>47.0</ele><time>2026-04-12T17:43:03.331Z</time></trkpt><trkpt lat="45.9902151" lon="12.6983047"><ele>46.83333333333333</ele><time>2026-04-12T17:43:04.331Z</time></trkpt><trkpt lat="45.9901834" lon="12.6981724"><ele>46.666666666666664</ele><time>2026-04-12T17:43:05.331Z</time></trkpt><trkpt lat="45.9901558" lon="12.6980494"><ele>46.5</ele><time>2026-04-12T17:43:06.331Z</time></trkpt><trkpt lat="45.990126" lon="12.6979291"><ele>46.333333333333336</ele><time>2026-04-12T17:43:07.331Z</time></trkpt><trkpt lat="45.9900989" lon="12.6978177"><ele>46.16666666666667</ele><time>2026-04-12T17:43:08.331Z</time></trkpt><trkpt lat="45.9900712" lon="12.6977123"><ele>46.0</ele><time>2026-04-12T17:43:09.331Z</time></trkpt><trkpt lat="45.9900546" lon="12.697604"><ele>46.0</ele><time>2026-04-12T17:43:10.331Z</time></trkpt><trkpt lat="45.9900265" lon="12.6974822"><ele>46.0</ele><time>2026-04-12T17:43:11.331Z</time></trkpt><trkpt lat="45.9900033" lon="12.6973486"><ele>46.0</ele><time>2026-04-12T17:43:12.331Z</time></trkpt><trkpt lat="45.9899807" lon="12.6972049"><ele>46.0</ele><time>2026-04-12T17:43:13.332Z</time></trkpt><trkpt lat="45.9899632" lon="12.6970728"><ele>46.0</ele><time>2026-04-12T17:43:14.332Z</time></trkpt><trkpt lat="45.9899464" lon="12.6969425"><ele>46.0</ele><time>2026-04-12T17:43:15.331Z</time></trkpt><trkpt lat="45.9899261" lon="12.6968036"><ele>46.0</ele><time>2026-04-12T17:43:16.331Z</time></trkpt><trkpt lat="45.9899047" lon="12.6966661"><ele>46.0</ele><time>2026-04-12T17:43:17.331Z</time></trkpt><trkpt lat="45.9898882" lon="12.6965282"><ele>46.0</ele><time>2026-04-12T17:43:18.331Z</time></trkpt><trkpt lat="45.9898733" lon="12.6963997"><ele>46.0</ele><time>2026-04-12T17:43:19.331Z</time></trkpt><trkpt lat="45.9898595" lon="12.6962735"><ele>46.0</ele><time>2026-04-12T17:43:20.331Z</time></trkpt><trkpt lat="45.9898445" lon="12.6961442"><ele>46.0</ele><time>2026-04-12T17:43:21.331Z</time></trkpt><trkpt lat="45.989832" lon="12.6960142"><ele>46.0</ele><time>2026-04-12T17:43:22.331Z</time></trkpt><trkpt lat="45.9898194" lon="12.6958779"><ele>46.0</ele><time>2026-04-12T17:43:23.332Z</time></trkpt><trkpt lat="45.9898091" lon="12.6957558"><ele>46.0</ele><time>2026-04-12T17:43:24.331Z</time></trkpt><trkpt lat="45.9897952" lon="12.6956344"><ele>46.0</ele><time>2026-04-12T17:43:25.331Z</time></trkpt><trkpt lat="45.9897768" lon="12.6955143"><ele>46.4</ele><time>2026-04-12T17:43:26.331Z</time></trkpt><trkpt lat="45.9897541" lon="12.6953914"><ele>46.8</ele><time>2026-04-12T17:43:27.331Z</time></trkpt><trkpt lat="45.9897227" lon="12.6952735"><ele>47.199999999999996</ele><time>2026-04-12T17:43:28.331Z</time></trkpt><trkpt lat="45.9896864" lon="12.6951529"><ele>47.599999999999994</ele><time>2026-04-12T17:43:29.332Z</time></trkpt><trkpt lat="45.9896463" lon="12.6950291"><ele>48.0</ele><time>2026-04-12T17:43:30.331Z</time></trkpt><trkpt lat="45.9895992" lon="12.6949081"><ele>48.2</ele><time>2026-04-12T17:43:31.331Z</time></trkpt><trkpt lat="45.9895546" lon="12.6947867"><ele>48.4</ele><time>2026-04-12T17:43:32.332Z</time></trkpt><trkpt lat="45.9895091" lon="12.69467"><ele>48.6</ele><time>2026-04-12T17:43:33.332Z</time></trkpt><trkpt lat="45.9894651" lon="12.6945553"><ele>48.800000000000004</ele><time>2026-04-12T17:43:34.331Z</time></trkpt><trkpt lat="45.9894221" lon="12.6944411"><ele>49.0</ele><time>2026-04-12T17:43:35.331Z</time></trkpt><trkpt lat="45.9893768" lon="12.6943248"><ele>49.0</ele><time>2026-04-12T17:43:36.331Z</time></trkpt><trkpt lat="45.9893306" lon="12.694211"><ele>49.0</ele><time>2026-04-12T17:43:37.331Z</time></trkpt><trkpt lat="45.989287" lon="12.6941075"><ele>49.0</ele><time>2026-04-12T17:43:38.331Z</time></trkpt><trkpt lat="45.9892445" lon="12.6939967"><ele>49.0</ele><time>2026-04-12T17:43:39.331Z</time></trkpt><trkpt lat="45.9892011" lon="12.6938758"><ele>49.0</ele><time>2026-04-12T17:43:40.331Z</time></trkpt><trkpt lat="45.9891573" lon="12.6937554"><ele>49.0</ele><time>2026-04-12T17:43:41.331Z</time></trkpt><trkpt lat="45.9891178" lon="12.6936409"><ele>49.0</ele><time>2026-04-12T17:43:42.331Z</time></trkpt><trkpt lat="45.9890755" lon="12.6935322"><ele>49.0</ele><time>2026-04-12T17:43:43.332Z</time></trkpt><trkpt lat="45.9890308" lon="12.6934203"><ele>49.0</ele><time>2026-04-12T17:43:44.331Z</time></trkpt><trkpt lat="45.9889813" lon="12.6933015"><ele>49.0</ele><time>2026-04-12T17:43:45.331Z</time></trkpt><trkpt lat="45.9889348" lon="12.6931836"><ele>48.6</ele><time>2026-04-12T17:43:46.332Z</time></trkpt><trkpt lat="45.9888888" lon="12.6930635"><ele>48.2</ele><time>2026-04-12T17:43:47.331Z</time></trkpt><trkpt lat="45.9888456" lon="12.6929542"><ele>47.800000000000004</ele><time>2026-04-12T17:43:48.331Z</time></trkpt><trkpt lat="45.9888008" lon="12.6928411"><ele>47.400000000000006</ele><time>2026-04-12T17:43:49.332Z</time></trkpt><trkpt lat="45.9887562" lon="12.6927279"><ele>47.0</ele><time>2026-04-12T17:43:50.331Z</time></trkpt><trkpt lat="45.9887116" lon="12.692616"><ele>47.0</ele><time>2026-04-12T17:43:51.331Z</time></trkpt><trkpt lat="45.988669" lon="12.6925067"><ele>47.0</ele><time>2026-04-12T17:43:52.331Z</time></trkpt><trkpt lat="45.9886222" lon="12.6923948"><ele>47.0</ele><time>2026-04-12T17:43:53.331Z</time></trkpt><trkpt lat="45.988576" lon="12.6922766"><ele>47.0</ele><time>2026-04-12T17:43:54.332Z</time></trkpt><trkpt lat="45.988529" lon="12.6921624"><ele>47.0</ele><time>2026-04-12T17:43:55.331Z</time></trkpt><trkpt lat="45.9884825" lon="12.6920444"><ele>47.0</ele><time>2026-04-12T17:43:56.331Z</time></trkpt><trkpt lat="45.9884365" lon="12.6919262"><ele>47.0</ele><time>2026-04-12T17:43:57.331Z</time></trkpt><trkpt lat="45.9883855" lon="12.6918015"><ele>47.0</ele><time>2026-04-12T17:43:58.332Z</time></trkpt><trkpt lat="45.9883148" lon="12.691664"><ele>47.0</ele><time>2026-04-12T17:43:59.331Z</time></trkpt><trkpt lat="45.9882473" lon="12.6915021"><ele>47.0</ele><time>2026-04-12T17:44:00.331Z</time></trkpt><trkpt lat="45.9881823" lon="12.6913144"><ele>47.0</ele><time>2026-04-12T17:44:01.331Z</time></trkpt><trkpt lat="45.9881219" lon="12.6911314"><ele>47.0</ele><time>2026-04-12T17:44:02.331Z</time></trkpt><trkpt lat="45.9880545" lon="12.6909479"><ele>47.0</ele><time>2026-04-12T17:44:03.331Z</time></trkpt><trkpt lat="45.9879899" lon="12.6907788"><ele>47.0</ele><time>2026-04-12T17:44:04.331Z</time></trkpt><trkpt lat="45.9879254" lon="12.6906207"><ele>47.0</ele><time>2026-04-12T17:44:05.331Z</time></trkpt><trkpt lat="45.9878595" lon="12.6904659"><ele>47.0</ele><time>2026-04-12T17:44:06.332Z</time></trkpt><trkpt lat="45.9877942" lon="12.6903058"><ele>47.0</ele><time>2026-04-12T17:44:07.331Z</time></trkpt><trkpt lat="45.987729" lon="12.6901491"><ele>47.0</ele><time>2026-04-12T17:44:08.331Z</time></trkpt><trkpt lat="45.9876644" lon="12.6899919"><ele>47.25</ele><time>2026-04-12T17:44:09.331Z</time></trkpt><trkpt lat="45.9875979" lon="12.6898437"><ele>47.5</ele><time>2026-04-12T17:44:10.331Z</time></trkpt><trkpt lat="45.9875299" lon="12.6896921"><ele>47.75</ele><time>2026-04-12T17:44:11.331Z</time></trkpt><trkpt lat="45.9874595" lon="12.689548"><ele>48.0</ele><time>2026-04-12T17:44:12.332Z</time></trkpt><trkpt lat="45.9873931" lon="12.6894133"><ele>48.0</ele><time>2026-04-12T17:44:13.332Z</time></trkpt><trkpt lat="45.987332" lon="12.6892817"><ele>48.0</ele><time>2026-04-12T17:44:14.331Z</time></trkpt><trkpt lat="45.9872728" lon="12.689158"><ele>48.0</ele><time>2026-04-12T17:44:15.331Z</time></trkpt><trkpt lat="45.9872146" lon="12.6890274"><ele>48.0</ele><time>2026-04-12T17:44:16.331Z</time></trkpt><trkpt lat="45.9871579" lon="12.6888973"><ele>48.0</ele><time>2026-04-12T17:44:17.331Z</time></trkpt><trkpt lat="45.9870981" lon="12.6887656"><ele>48.0</ele><time>2026-04-12T17:44:18.332Z</time></trkpt><trkpt lat="45.9870384" lon="12.6886338"><ele>48.0</ele><time>2026-04-12T17:44:19.331Z</time></trkpt><trkpt lat="45.9869756" lon="12.6884998"><ele>48.0</ele><time>2026-04-12T17:44:20.331Z</time></trkpt><trkpt lat="45.9869131" lon="12.6883801"><ele>48.0</ele><time>2026-04-12T17:44:21.331Z</time></trkpt><trkpt lat="45.9868505" lon="12.6882667"><ele>48.0</ele><time>2026-04-12T17:44:22.331Z</time></trkpt><trkpt lat="45.9867875" lon="12.6881611"><ele>47.8</ele><time>2026-04-12T17:44:23.331Z</time></trkpt><trkpt lat="45.9867214" lon="12.6880597"><ele>47.599999999999994</ele><time>2026-04-12T17:44:24.331Z</time></trkpt><trkpt lat="45.9866553" lon="12.6879551"><ele>47.400000000000006</ele><time>2026-04-12T17:44:25.331Z</time></trkpt><trkpt lat="45.9865908" lon="12.687852"><ele>47.2</ele><time>2026-04-12T17:44:26.331Z</time></trkpt><trkpt lat="45.986523" lon="12.6877485"><ele>47.0</ele><time>2026-04-12T17:44:27.331Z</time></trkpt><trkpt lat="45.9864549" lon="12.6876354"><ele>47.0</ele><time>2026-04-12T17:44:28.331Z</time></trkpt><trkpt lat="45.9863901" lon="12.6875175"><ele>47.0</ele><time>2026-04-12T17:44:29.332Z</time></trkpt><trkpt lat="45.9863265" lon="12.6873951"><ele>47.0</ele><time>2026-04-12T17:44:30.331Z</time></trkpt><trkpt lat="45.9862628" lon="12.6872672"><ele>47.0</ele><time>2026-04-12T17:44:31.331Z</time></trkpt><trkpt lat="45.9861993" lon="12.6871408"><ele>47.0</ele><time>2026-04-12T17:44:32.331Z</time></trkpt><trkpt lat="45.9861341" lon="12.6870105"><ele>47.0</ele><time>2026-04-12T17:44:33.331Z</time></trkpt><trkpt lat="45.9860738" lon="12.6868921"><ele>47.0</ele><time>2026-04-12T17:44:34.332Z</time></trkpt><trkpt lat="45.9860246" lon="12.6867986"><ele>47.0</ele><time>2026-04-12T17:44:35.331Z</time></trkpt><trkpt lat="45.9859691" lon="12.6866826"><ele>47.0</ele><time>2026-04-12T17:44:37.331Z</time></trkpt><trkpt lat="45.9859311" lon="12.6865955"><ele>47.0</ele><time>2026-04-12T17:44:40.332Z</time></trkpt><trkpt lat="45.9858517" lon="12.6864847"><ele>47.166666666666664</ele><time>2026-04-12T17:45:03.331Z</time></trkpt><trkpt lat="45.9857972" lon="12.6863675"><ele>47.33333333333333</ele><time>2026-04-12T17:45:05.332Z</time></trkpt><trkpt lat="45.9857622" lon="12.6862919"><ele>47.5</ele><time>2026-04-12T17:45:06.332Z</time></trkpt><trkpt lat="45.9857212" lon="12.6862158"><ele>47.666666666666664</ele><time>2026-04-12T17:45:07.331Z</time></trkpt><trkpt lat="45.9856682" lon="12.6861302"><ele>47.833333333333336</ele><time>2026-04-12T17:45:08.331Z</time></trkpt><trkpt lat="45.9856136" lon="12.6860442"><ele>48.0</ele><time>2026-04-12T17:45:09.332Z</time></trkpt><trkpt lat="45.985557" lon="12.6859523"><ele>48.0</ele><time>2026-04-12T17:45:10.331Z</time></trkpt><trkpt lat="45.9854973" lon="12.6858534"><ele>48.0</ele><time>2026-04-12T17:45:11.331Z</time></trkpt><trkpt lat="45.9854318" lon="12.685743"><ele>48.0</ele><time>2026-04-12T17:45:12.332Z</time></trkpt><trkpt lat="45.9853627" lon="12.685624"><ele>48.0</ele><time>2026-04-12T17:45:13.331Z</time></trkpt><trkpt lat="45.9852925" lon="12.6855076"><ele>48.0</ele><time>2026-04-12T17:45:14.331Z</time></trkpt><trkpt lat="45.98522" lon="12.6853857"><ele>48.0</ele><time>2026-04-12T17:45:15.331Z</time></trkpt><trkpt lat="45.9851437" lon="12.6852643"><ele>48.0</ele><time>2026-04-12T17:45:16.331Z</time></trkpt><trkpt lat="45.9850688" lon="12.6851392"><ele>48.0</ele><time>2026-04-12T17:45:17.331Z</time></trkpt><trkpt lat="45.9849932" lon="12.6850079"><ele>48.0</ele><time>2026-04-12T17:45:18.331Z</time></trkpt><trkpt lat="45.9849198" lon="12.684877"><ele>47.5</ele><time>2026-04-12T17:45:19.332Z</time></trkpt><trkpt lat="45.9848416" lon="12.6847386"><ele>47.0</ele><time>2026-04-12T17:45:20.331Z</time></trkpt><trkpt lat="45.9847603" lon="12.6845959"><ele>46.5</ele><time>2026-04-12T17:45:21.332Z</time></trkpt><trkpt lat="45.9846783" lon="12.684446"><ele>46.0</ele><time>2026-04-12T17:45:22.331Z</time></trkpt><trkpt lat="45.9845928" lon="12.6842924"><ele>44.75</ele><time>2026-04-12T17:45:23.331Z</time></trkpt><trkpt lat="45.9845055" lon="12.6841355"><ele>43.5</ele><time>2026-04-12T17:45:24.331Z</time></trkpt><trkpt lat="45.9844172" lon="12.6839785"><ele>42.25</ele><time>2026-04-12T17:45:25.331Z</time></trkpt><trkpt lat="45.9843324" lon="12.683821"><ele>41.0</ele><time>2026-04-12T17:45:26.331Z</time></trkpt><trkpt lat="45.9842449" lon="12.6836612"><ele>41.25</ele><time>2026-04-12T17:45:27.331Z</time></trkpt><trkpt lat="45.9841576" lon="12.683502"><ele>41.5</ele><time>2026-04-12T17:45:28.331Z</time></trkpt><trkpt lat="45.9840677" lon="12.6833385"><ele>41.75</ele><time>2026-04-12T17:45:29.331Z</time></trkpt><trkpt lat="45.983981" lon="12.683178"><ele>42.0</ele><time>2026-04-12T17:45:30.331Z</time></trkpt><trkpt lat="45.9838913" lon="12.6830167"><ele>42.0</ele><time>2026-04-12T17:45:31.331Z</time></trkpt><trkpt lat="45.9838024" lon="12.6828554"><ele>42.0</ele><time>2026-04-12T17:45:32.331Z</time></trkpt><trkpt lat="45.9837133" lon="12.6826956"><ele>42.0</ele><time>2026-04-12T17:45:33.332Z</time></trkpt><trkpt lat="45.9836227" lon="12.6825352"><ele>42.0</ele><time>2026-04-12T17:45:34.331Z</time></trkpt><trkpt lat="45.9835357" lon="12.6823758"><ele>42.25</ele><time>2026-04-12T17:45:35.331Z</time></trkpt><trkpt lat="45.9834406" lon="12.6822246"><ele>42.5</ele><time>2026-04-12T17:45:36.331Z</time></trkpt><trkpt lat="45.9833447" lon="12.6820715"><ele>42.75</ele><time>2026-04-12T17:45:37.331Z</time></trkpt><trkpt lat="45.983245" lon="12.6819236"><ele>43.0</ele><time>2026-04-12T17:45:38.331Z</time></trkpt><trkpt lat="45.983149" lon="12.6817755"><ele>43.75</ele><time>2026-04-12T17:45:39.331Z</time></trkpt><trkpt lat="45.9830526" lon="12.6816286"><ele>44.5</ele><time>2026-04-12T17:45:40.331Z</time></trkpt><trkpt lat="45.982957" lon="12.6814807"><ele>45.25</ele><time>2026-04-12T17:45:41.331Z</time></trkpt><trkpt lat="45.9828593" lon="12.6813354"><ele>46.0</ele><time>2026-04-12T17:45:42.331Z</time></trkpt><trkpt lat="45.9827609" lon="12.6811934"><ele>46.0</ele><time>2026-04-12T17:45:43.331Z</time></trkpt><trkpt lat="45.9826594" lon="12.6810469"><ele>46.0</ele><time>2026-04-12T17:45:44.331Z</time></trkpt><trkpt lat="45.9825639" lon="12.6808994"><ele>46.0</ele><time>2026-04-12T17:45:45.331Z</time></trkpt><trkpt lat="45.9824634" lon="12.680749"><ele>46.0</ele><time>2026-04-12T17:45:46.331Z</time></trkpt><trkpt lat="45.9823685" lon="12.6806007"><ele>45.75</ele><time>2026-04-12T17:45:47.331Z</time></trkpt><trkpt lat="45.982275" lon="12.6804555"><ele>45.5</ele><time>2026-04-12T17:45:48.331Z</time></trkpt><trkpt lat="45.9821827" lon="12.6803125"><ele>45.25</ele><time>2026-04-12T17:45:49.331Z</time></trkpt><trkpt lat="45.9820876" lon="12.6801629"><ele>45.0</ele><time>2026-04-12T17:45:50.331Z</time></trkpt><trkpt lat="45.9819875" lon="12.6800098"><ele>45.0</ele><time>2026-04-12T17:45:51.331Z</time></trkpt><trkpt lat="45.9818859" lon="12.6798545"><ele>45.0</ele><time>2026-04-12T17:45:52.331Z</time></trkpt><trkpt lat="45.9817832" lon="12.6797006"><ele>45.0</ele><time>2026-04-12T17:45:53.331Z</time></trkpt><trkpt lat="45.9816823" lon="12.6795484"><ele>45.0</ele><time>2026-04-12T17:45:54.331Z</time></trkpt><trkpt lat="45.9815885" lon="12.679403"><ele>44.75</ele><time>2026-04-12T17:45:55.331Z</time></trkpt><trkpt lat="45.9814896" lon="12.6792508"><ele>44.5</ele><time>2026-04-12T17:45:56.331Z</time></trkpt><trkpt lat="45.9813923" lon="12.6790965"><ele>44.25</ele><time>2026-04-12T17:45:57.331Z</time></trkpt><trkpt lat="45.9813005" lon="12.6789402"><ele>44.0</ele><time>2026-04-12T17:45:58.331Z</time></trkpt><trkpt lat="45.981217" lon="12.6787784"><ele>44.0</ele><time>2026-04-12T17:45:59.331Z</time></trkpt><trkpt lat="45.9811402" lon="12.6786125"><ele>44.0</ele><time>2026-04-12T17:46:00.331Z</time></trkpt><trkpt lat="45.9810678" lon="12.6784408"><ele>44.0</ele><time>2026-04-12T17:46:01.332Z</time></trkpt><trkpt lat="45.9809951" lon="12.6782696"><ele>44.0</ele><time>2026-04-12T17:46:02.331Z</time></trkpt><trkpt lat="45.9809239" lon="12.6780911"><ele>44.0</ele><time>2026-04-12T17:46:03.331Z</time></trkpt><trkpt lat="45.9808602" lon="12.6779092"><ele>44.0</ele><time>2026-04-12T17:46:04.331Z</time></trkpt><trkpt lat="45.9807977" lon="12.6777224"><ele>44.0</ele><time>2026-04-12T17:46:05.331Z</time></trkpt><trkpt lat="45.98074" lon="12.6775299"><ele>44.0</ele><time>2026-04-12T17:46:06.332Z</time></trkpt><trkpt lat="45.9806852" lon="12.6773372"><ele>44.0</ele><time>2026-04-12T17:46:07.331Z</time></trkpt><trkpt lat="45.9806344" lon="12.6771449"><ele>44.0</ele><time>2026-04-12T17:46:08.331Z</time></trkpt><trkpt lat="45.9805843" lon="12.6769556"><ele>44.0</ele><time>2026-04-12T17:46:09.331Z</time></trkpt><trkpt lat="45.9805314" lon="12.6767618"><ele>44.0</ele><time>2026-04-12T17:46:10.331Z</time></trkpt><trkpt lat="45.9804793" lon="12.6765675"><ele>44.25</ele><time>2026-04-12T17:46:11.331Z</time></trkpt><trkpt lat="45.9804288" lon="12.676373"><ele>44.5</ele><time>2026-04-12T17:46:12.331Z</time></trkpt><trkpt lat="45.9803771" lon="12.6761812"><ele>44.75</ele><time>2026-04-12T17:46:13.331Z</time></trkpt><trkpt lat="45.9803275" lon="12.6759883"><ele>45.0</ele><time>2026-04-12T17:46:14.332Z</time></trkpt><trkpt lat="45.98028" lon="12.6757979"><ele>45.5</ele><time>2026-04-12T17:46:15.331Z</time></trkpt><trkpt lat="45.9802334" lon="12.6756078"><ele>46.0</ele><time>2026-04-12T17:46:16.331Z</time></trkpt><trkpt lat="45.9801856" lon="12.6754213"><ele>46.5</ele><time>2026-04-12T17:46:17.332Z</time></trkpt><trkpt lat="45.9801385" lon="12.6752418"><ele>47.0</ele><time>2026-04-12T17:46:18.331Z</time></trkpt><trkpt lat="45.9800951" lon="12.6750686"><ele>47.0</ele><time>2026-04-12T17:46:19.331Z</time></trkpt><trkpt lat="45.9800579" lon="12.6749165"><ele>47.0</ele><time>2026-04-12T17:46:20.331Z</time></trkpt><trkpt lat="45.9800254" lon="12.674796"><ele>47.0</ele><time>2026-04-12T17:46:21.331Z</time></trkpt><trkpt lat="45.9799655" lon="12.6746674"><ele>47.0</ele><time>2026-04-12T17:46:23.331Z</time></trkpt><trkpt lat="45.9798663" lon="12.6746699"><ele>47.0</ele><time>2026-04-12T17:46:25.331Z</time></trkpt><trkpt lat="45.9798032" lon="12.6747143"><ele>46.0</ele><time>2026-04-12T17:46:26.331Z</time></trkpt><trkpt lat="45.9797338" lon="12.6747598"><ele>45.0</ele><time>2026-04-12T17:46:27.332Z</time></trkpt><trkpt lat="45.9796632" lon="12.6748107"><ele>44.0</ele><time>2026-04-12T17:46:28.331Z</time></trkpt><trkpt lat="45.9795869" lon="12.674879"><ele>43.0</ele><time>2026-04-12T17:46:29.331Z</time></trkpt><trkpt lat="45.9795125" lon="12.6749471"><ele>42.0</ele><time>2026-04-12T17:46:30.331Z</time></trkpt><trkpt lat="45.9794412" lon="12.6750217"><ele>41.0</ele><time>2026-04-12T17:46:31.331Z</time></trkpt><trkpt lat="45.9793677" lon="12.6751055"><ele>41.0</ele><time>2026-04-12T17:46:32.331Z</time></trkpt><trkpt lat="45.9792902" lon="12.6751956"><ele>41.0</ele><time>2026-04-12T17:46:33.331Z</time></trkpt><trkpt lat="45.9792142" lon="12.6752885"><ele>41.0</ele><time>2026-04-12T17:46:34.331Z</time></trkpt><trkpt lat="45.9791359" lon="12.6753956"><ele>41.0</ele><time>2026-04-12T17:46:35.331Z</time></trkpt><trkpt lat="45.9790551" lon="12.6754963"><ele>41.0</ele><time>2026-04-12T17:46:36.331Z</time></trkpt><trkpt lat="45.9789759" lon="12.6755913"><ele>40.75</ele><time>2026-04-12T17:46:37.331Z</time></trkpt><trkpt lat="45.9788904" lon="12.6756888"><ele>40.5</ele><time>2026-04-12T17:46:38.331Z</time></trkpt><trkpt lat="45.9788016" lon="12.6757904"><ele>40.25</ele><time>2026-04-12T17:46:39.331Z</time></trkpt><trkpt lat="45.9787116" lon="12.6758956"><ele>40.0</ele><time>2026-04-12T17:46:40.331Z</time></trkpt><trkpt lat="45.9786216" lon="12.6759985"><ele>40.0</ele><time>2026-04-12T17:46:41.331Z</time></trkpt><trkpt lat="45.9785343" lon="12.6761007"><ele>40.0</ele><time>2026-04-12T17:46:42.332Z</time></trkpt><trkpt lat="45.9784457" lon="12.6761952"><ele>40.0</ele><time>2026-04-12T17:46:43.331Z</time></trkpt><trkpt lat="45.9783579" lon="12.6762912"><ele>40.0</ele><time>2026-04-12T17:46:44.331Z</time></trkpt><trkpt lat="45.9782759" lon="12.6763822"><ele>40.0</ele><time>2026-04-12T17:46:45.331Z</time></trkpt><trkpt lat="45.9781951" lon="12.6764651"><ele>39.75</ele><time>2026-04-12T17:46:46.331Z</time></trkpt><trkpt lat="45.9781083" lon="12.6765549"><ele>39.5</ele><time>2026-04-12T17:46:47.331Z</time></trkpt><trkpt lat="45.9780211" lon="12.6766511"><ele>39.25</ele><time>2026-04-12T17:46:48.331Z</time></trkpt><trkpt lat="45.9779287" lon="12.676764"><ele>39.0</ele><time>2026-04-12T17:46:49.331Z</time></trkpt><trkpt lat="45.9778382" lon="12.676881"><ele>38.75</ele><time>2026-04-12T17:46:50.331Z</time></trkpt><trkpt lat="45.9777513" lon="12.67699"><ele>38.5</ele><time>2026-04-12T17:46:51.332Z</time></trkpt><trkpt lat="45.9776612" lon="12.6770969"><ele>38.25</ele><time>2026-04-12T17:46:52.331Z</time></trkpt><trkpt lat="45.9775735" lon="12.6771975"><ele>38.0</ele><time>2026-04-12T17:46:53.331Z</time></trkpt><trkpt lat="45.9774882" lon="12.6773008"><ele>38.0</ele><time>2026-04-12T17:46:54.331Z</time></trkpt><trkpt lat="45.9774081" lon="12.6773974"><ele>38.0</ele><time>2026-04-12T17:46:55.331Z</time></trkpt><trkpt lat="45.9773267" lon="12.6774986"><ele>38.0</ele><time>2026-04-12T17:46:56.331Z</time></trkpt><trkpt lat="45.9772407" lon="12.6776077"><ele>38.0</ele><time>2026-04-12T17:46:57.331Z</time></trkpt><trkpt lat="45.9771521" lon="12.6777146"><ele>38.0</ele><time>2026-04-12T17:46:58.332Z</time></trkpt><trkpt lat="45.9770629" lon="12.6778197"><ele>38.0</ele><time>2026-04-12T17:46:59.331Z</time></trkpt><trkpt lat="45.976975" lon="12.677921"><ele>38.0</ele><time>2026-04-12T17:47:00.331Z</time></trkpt><trkpt lat="45.976888" lon="12.6780111"><ele>38.0</ele><time>2026-04-12T17:47:01.331Z</time></trkpt><trkpt lat="45.9768055" lon="12.6781066"><ele>38.0</ele><time>2026-04-12T17:47:02.331Z</time></trkpt><trkpt lat="45.9767272" lon="12.678202"><ele>38.0</ele><time>2026-04-12T17:47:03.331Z</time></trkpt><trkpt lat="45.9766507" lon="12.6782908"><ele>37.666666666666664</ele><time>2026-04-12T17:47:04.331Z</time></trkpt><trkpt lat="45.9765757" lon="12.6783678"><ele>37.33333333333333</ele><time>2026-04-12T17:47:05.331Z</time></trkpt><trkpt lat="45.9765056" lon="12.6784448"><ele>37.0</ele><time>2026-04-12T17:47:06.331Z</time></trkpt><trkpt lat="45.9764385" lon="12.6785314"><ele>36.666666666666664</ele><time>2026-04-12T17:47:07.331Z</time></trkpt><trkpt lat="45.9763816" lon="12.6785973"><ele>36.333333333333336</ele><time>2026-04-12T17:47:08.331Z</time></trkpt><trkpt lat="45.9763109" lon="12.6786913"><ele>36.0</ele><time>2026-04-12T17:47:10.331Z</time></trkpt><trkpt lat="45.9762105" lon="12.678752"><ele>35.8</ele><time>2026-04-12T17:47:20.332Z</time></trkpt><trkpt lat="45.9761053" lon="12.6788423"><ele>35.6</ele><time>2026-04-12T17:47:22.331Z</time></trkpt><trkpt lat="45.9760355" lon="12.6788828"><ele>35.4</ele><time>2026-04-12T17:47:23.331Z</time></trkpt><trkpt lat="45.975951" lon="12.6789119"><ele>35.2</ele><time>2026-04-12T17:47:24.331Z</time></trkpt><trkpt lat="45.9758685" lon="12.6789267"><ele>35.0</ele><time>2026-04-12T17:47:25.331Z</time></trkpt><trkpt lat="45.9757794" lon="12.6789356"><ele>34.8</ele><time>2026-04-12T17:47:26.331Z</time></trkpt><trkpt lat="45.9756817" lon="12.6789413"><ele>34.6</ele><time>2026-04-12T17:47:27.331Z</time></trkpt><trkpt lat="45.9755778" lon="12.6789501"><ele>34.4</ele><time>2026-04-12T17:47:28.331Z</time></trkpt><trkpt lat="45.9754786" lon="12.678953"><ele>34.2</ele><time>2026-04-12T17:47:29.331Z</time></trkpt><trkpt lat="45.9753724" lon="12.6789544"><ele>34.0</ele><time>2026-04-12T17:47:30.331Z</time></trkpt><trkpt lat="45.97527" lon="12.6789496"><ele>34.0</ele><time>2026-04-12T17:47:31.331Z</time></trkpt><trkpt lat="45.9751583" lon="12.6789571"><ele>34.0</ele><time>2026-04-12T17:47:32.331Z</time></trkpt><trkpt lat="45.9750428" lon="12.678964"><ele>34.0</ele><time>2026-04-12T17:47:33.331Z</time></trkpt><trkpt lat="45.974934" lon="12.6789669"><ele>34.0</ele><time>2026-04-12T17:47:34.331Z</time></trkpt><trkpt lat="45.9748278" lon="12.6789698"><ele>34.0</ele><time>2026-04-12T17:47:35.331Z</time></trkpt><trkpt lat="45.9747279" lon="12.6789595"><ele>33.8</ele><time>2026-04-12T17:47:36.331Z</time></trkpt><trkpt lat="45.9746327" lon="12.6789401"><ele>33.599999999999994</ele><time>2026-04-12T17:47:37.331Z</time></trkpt><trkpt lat="45.9745418" lon="12.6789137"><ele>33.4</ele><time>2026-04-12T17:47:38.332Z</time></trkpt><trkpt lat="45.9744524" lon="12.6788875"><ele>33.199999999999996</ele><time>2026-04-12T17:47:39.331Z</time></trkpt><trkpt lat="45.9743723" lon="12.678867"><ele>33.0</ele><time>2026-04-12T17:47:40.331Z</time></trkpt><trkpt lat="45.9742653" lon="12.6788477"><ele>33.0</ele><time>2026-04-12T17:47:42.331Z</time></trkpt><trkpt lat="45.9742137" lon="12.678788"><ele>33.0</ele><time>2026-04-12T17:47:44.331Z</time></trkpt><trkpt lat="45.9742445" lon="12.6786825"><ele>33.0</ele><time>2026-04-12T17:47:47.331Z</time></trkpt><trkpt lat="45.9743261" lon="12.6785782"><ele>33.0</ele><time>2026-04-12T17:47:49.331Z</time></trkpt><trkpt lat="45.9743792" lon="12.6785191"><ele>33.0</ele><time>2026-04-12T17:47:50.331Z</time></trkpt><trkpt lat="45.974475" lon="12.6783934"><ele>33.333333333333336</ele><time>2026-04-12T17:47:52.331Z</time></trkpt><trkpt lat="45.9745295" lon="12.6783189"><ele>33.666666666666664</ele><time>2026-04-12T17:47:53.331Z</time></trkpt><trkpt lat="45.9745902" lon="12.6782351"><ele>34.0</ele><time>2026-04-12T17:47:54.331Z</time></trkpt><trkpt lat="45.9746587" lon="12.6781618"><ele>34.33333333333333</ele><time>2026-04-12T17:47:55.331Z</time></trkpt><trkpt lat="45.9747248" lon="12.6780923"><ele>34.666666666666664</ele><time>2026-04-12T17:47:56.331Z</time></trkpt><trkpt lat="45.9747826" lon="12.6780212"><ele>35.0</ele><time>2026-04-12T17:47:57.332Z</time></trkpt><trkpt lat="45.9748285" lon="12.6779433"><ele>35.0</ele><time>2026-04-12T17:47:58.332Z</time></trkpt><trkpt lat="45.974846" lon="12.6778559"><ele>35.0</ele><time>2026-04-12T17:47:59.331Z</time></trkpt><trkpt lat="45.9748078" lon="12.6777015"><ele>35.0</ele><time>2026-04-12T17:48:01.331Z</time></trkpt><trkpt lat="45.974761" lon="12.6776313"><ele>35.0</ele><time>2026-04-12T17:48:02.331Z</time></trkpt><trkpt lat="45.9747102" lon="12.6775699"><ele>35.0</ele><time>2026-04-12T17:48:03.331Z</time></trkpt><trkpt lat="45.9746495" lon="12.6774984"><ele>35.0</ele><time>2026-04-12T17:48:04.331Z</time></trkpt><trkpt lat="45.9745899" lon="12.6774267"><ele>35.0</ele><time>2026-04-12T17:48:05.331Z</time></trkpt><trkpt lat="45.9745307" lon="12.6773502"><ele>35.0</ele><time>2026-04-12T17:48:06.331Z</time></trkpt><trkpt lat="45.9744768" lon="12.6772766"><ele>35.0</ele><time>2026-04-12T17:48:07.331Z</time></trkpt><trkpt lat="45.9744277" lon="12.6772092"><ele>35.0</ele><time>2026-04-12T17:48:08.331Z</time></trkpt><trkpt lat="45.9743605" lon="12.6771144"><ele>35.0</ele><time>2026-04-12T17:48:10.331Z</time></trkpt><trkpt lat="45.9742734" lon="12.6770867"><ele>35.0</ele><time>2026-04-12T17:48:13.332Z</time></trkpt><trkpt lat="45.9741875" lon="12.6771786"><ele>34.8</ele><time>2026-04-12T17:48:15.331Z</time></trkpt><trkpt lat="45.9740893" lon="12.6772528"><ele>34.6</ele><time>2026-04-12T17:48:17.332Z</time></trkpt><trkpt lat="45.9739916" lon="12.6772514"><ele>34.4</ele><time>2026-04-12T17:48:19.332Z</time></trkpt><trkpt lat="45.9739078" lon="12.6773295"><ele>34.2</ele><time>2026-04-12T17:48:21.331Z</time></trkpt><trkpt lat="45.9738094" lon="12.6774508"><ele>34.0</ele><time>2026-04-12T17:48:23.331Z</time></trkpt><trkpt lat="45.9737497" lon="12.6775201"><ele>34.0</ele><time>2026-04-12T17:48:24.331Z</time></trkpt><trkpt lat="45.9736863" lon="12.6775932"><ele>34.0</ele><time>2026-04-12T17:48:25.331Z</time></trkpt><trkpt lat="45.973626" lon="12.67766"><ele>34.0</ele><time>2026-04-12T17:48:26.331Z</time></trkpt><trkpt lat="45.9735747" lon="12.6777211"><ele>34.0</ele><time>2026-04-12T17:48:27.331Z</time></trkpt><trkpt lat="45.9734771" lon="12.6778183"><ele>34.0</ele><time>2026-04-12T17:48:29.331Z</time></trkpt><trkpt lat="45.9733897" lon="12.6779082"><ele>33.25</ele><time>2026-04-12T17:48:31.331Z</time></trkpt><trkpt lat="45.97329" lon="12.6780272"><ele>32.5</ele><time>2026-04-12T17:48:33.331Z</time></trkpt><trkpt lat="45.9731906" lon="12.6781357"><ele>31.75</ele><time>2026-04-12T17:48:35.331Z</time></trkpt><trkpt lat="45.973095" lon="12.6782438"><ele>31.0</ele><time>2026-04-12T17:48:37.331Z</time></trkpt><trkpt lat="45.9730054" lon="12.6783344"><ele>31.0</ele><time>2026-04-12T17:48:39.331Z</time></trkpt><trkpt lat="45.9729232" lon="12.6784151"><ele>31.0</ele><time>2026-04-12T17:48:41.332Z</time></trkpt><trkpt lat="45.9728799" lon="12.678484"><ele>31.0</ele><time>2026-04-12T17:48:43.331Z</time></trkpt></trkseg></trk></gpx>